[[{"header":{"parameterUnit":"m.s-1","parameterCategory":1,"la1":30.6,"la2":29.2853,"lo1":-89.7004,"lo2":-87.6739,"dy":0.0162,"dx":0.0183,"nx":112,"ny":82,"refTime":"2024-08-27T12:00:00:Z","depth":0,"parameterNumber":2,"parameterNumberName":"U-component_of_WINDS"},"data":[0.0,0.0,0.0,0.0,0.0,0.0,0.0,0.0,0.0,0.0,0.0,0.0,0.0,0.0,0.0,0.0,0.0,0.0,0.0,0.0,0.0,0.0,0.0,0.0,0.0,0.0,0.0,0.0,0.0,0.0,0.0,0.0,0.0,0.0,0.0,0.0,0.0,0.0,0.0,0.0,0.0,0.0,0.0,0.0,0.0,0.0,0.0,0.0,0.0,0.0,0.0,0.0,0.0,0.0,0.0,0.0,0.0,0.0,0.0,0.0,0.0,0.0,0.0,0.0,0.0,0.0,0.0,0.0,0.0,0.0,0.0,0.0,0.0,0.0,0.0,0.0,0.0,0.0,0.0,0.0,0.0,0.0,0.0,0.0,0.0,0.0,0.0,0.0,0.0,0.0,-3.6021,-3.7337,-3.8159,-3.8404,-3.7842,-3.7577,-3.652,-3.4404,0.0,0.0,0.0,0.0,0.0,0.0,0.0,0.0,0.0,0.0,0.0,0.0,0.0,0.0,0.0,0.0,0.0,0.0,0.0,0.0,0.0,0.0,0.0,0.0,0.0,0.0,0.0,0.0,0.0,0.0,0.0,0.0,0.0,0.0,0.0,0.0,0.0,0.0,0.0,0.0,0.0,0.0,0.0,0.0,0.0,0.0,0.0,0.0,0.0,0.0,0.0,0.0,0.0,0.0,0.0,0.0,0.0,0.0,0.0,0.0,0.0,0.0,0.0,0.0,0.0,0.0,0.0,0.0,0.0,0.0,0.0,0.0,0.0,0.0,0.0,0.0,0.0,0.0,0.0,0.0,0.0,0.0,0.0,0.0,0.0,0.0,0.0,0.0,0.0,0.0,0.0,0.0,0.0,0.0,0.0,0.0,0.0,0.0,0.0,0.0,0.0,0.0,0.0,0.0,-3.6095,-3.846,-3.8159,-3.7421,-3.6572,-3.7467,-3.6576,-3.3039,0.0,0.0,0.0,0.0,0.0,0.0,0.0,0.0,0.0,0.0,0.0,0.0,0.0,0.0,0.0,0.0,0.0,0.0,0.0,0.0,0.0,0.0,0.0,0.0,0.0,0.0,0.0,0.0,0.0,0.0,0.0,0.0,0.0,0.0,0.0,0.0,0.0,0.0,0.0,0.0,0.0,0.0,0.0,0.0,0.0,0.0,0.0,0.0,0.0,0.0,0.0,0.0,0.0,0.0,0.0,0.0,0.0,0.0,0.0,0.0,0.0,0.0,0.0,0.0,0.0,0.0,0.0,0.0,0.0,0.0,0.0,0.0,0.0,0.0,0.0,0.0,0.0,0.0,0.0,0.0,0.0,0.0,0.0,0.0,0.0,0.0,0.0,0.0,0.0,0.0,0.0,0.0,0.0,0.0,0.0,0.0,0.0,0.0,0.0,0.0,0.0,0.0,0.0,-3.5305,-3.6321,-3.8336,-3.7987,-3.7346,-3.6741,-3.7631,-3.67,-3.3218,-3.2298,0.0,0.0,0.0,0.0,0.0,0.0,0.0,0.0,0.0,0.0,0.0,0.0,0.0,0.0,0.0,0.0,0.0,0.0,0.0,0.0,0.0,0.0,0.0,0.0,0.0,0.0,0.0,0.0,0.0,0.0,0.0,0.0,0.0,0.0,0.0,0.0,0.0,0.0,0.0,0.0,0.0,0.0,0.0,0.0,0.0,0.0,0.0,0.0,0.0,0.0,0.0,0.0,0.0,0.0,0.0,0.0,0.0,0.0,0.0,0.0,0.0,0.0,0.0,0.0,0.0,0.0,0.0,0.0,0.0,0.0,0.0,0.0,0.0,0.0,0.0,0.0,0.0,0.0,0.0,0.0,0.0,0.0,0.0,0.0,0.0,0.0,0.0,0.0,0.0,0.0,0.0,0.0,0.0,0.0,0.0,0.0,0.0,0.0,0.0,0.0,0.0,0.0,-3.6417,-3.7052,-3.8311,-3.8087,-3.7632,-3.7183,-3.7325,-3.6255,-3.3538,-3.2115,0.0,0.0,0.0,0.0,0.0,0.0,0.0,0.0,0.0,0.0,0.0,0.0,0.0,0.0,0.0,0.0,0.0,0.0,0.0,0.0,0.0,0.0,0.0,0.0,0.0,0.0,0.0,0.0,0.0,0.0,0.0,0.0,0.0,0.0,0.0,0.0,0.0,0.0,0.0,0.0,0.0,0.0,0.0,0.0,0.0,0.0,0.0,0.0,0.0,0.0,0.0,0.0,0.0,0.0,0.0,0.0,0.0,0.0,0.0,0.0,0.0,0.0,0.0,0.0,0.0,0.0,0.0,0.0,0.0,0.0,0.0,0.0,0.0,0.0,0.0,0.0,0.0,0.0,0.0,0.0,0.0,0.0,0.0,0.0,0.0,0.0,0.0,0.0,0.0,0.0,0.0,0.0,0.0,0.0,0.0,0.0,0.0,0.0,0.0,0.0,0.0,0.0,-3.7177,-3.8732,-3.9088,-3.8773,-3.8196,-3.7373,-3.6007,-3.4648,-3.3306,-3.0595,0.0,0.0,0.0,0.0,0.0,0.0,0.0,0.0,0.0,0.0,0.0,0.0,0.0,0.0,0.0,0.0,0.0,0.0,0.0,0.0,0.0,0.0,0.0,0.0,0.0,0.0,0.0,0.0,0.0,0.0,0.0,0.0,0.0,0.0,0.0,0.0,0.0,0.0,0.0,0.0,0.0,0.0,0.0,0.0,0.0,0.0,0.0,0.0,0.0,0.0,0.0,0.0,0.0,0.0,0.0,0.0,0.0,0.0,0.0,0.0,0.0,0.0,0.0,0.0,0.0,0.0,0.0,0.0,0.0,0.0,0.0,0.0,0.0,0.0,0.0,0.0,0.0,0.0,0.0,0.0,0.0,0.0,0.0,0.0,0.0,0.0,0.0,0.0,0.0,0.0,0.0,0.0,0.0,0.0,0.0,0.0,0.0,0.0,0.0,0.0,0.0,0.0,-3.6315,-3.7484,-3.8472,-3.8367,-3.7948,-3.7244,-3.6646,-3.5208,-3.2609,0.0,0.0,0.0,0.0,0.0,0.0,0.0,0.0,0.0,0.0,0.0,0.0,0.0,0.0,0.0,0.0,0.0,0.0,0.0,0.0,0.0,0.0,0.0,0.0,0.0,0.0,0.0,0.0,0.0,0.0,0.0,0.0,0.0,0.0,0.0,0.0,0.0,0.0,0.0,0.0,0.0,0.0,0.0,0.0,0.0,0.0,0.0,0.0,0.0,0.0,0.0,0.0,0.0,0.0,0.0,0.0,0.0,0.0,0.0,0.0,0.0,0.0,0.0,0.0,0.0,0.0,0.0,0.0,0.0,0.0,0.0,0.0,0.0,0.0,0.0,0.0,0.0,0.0,0.0,0.0,0.0,0.0,0.0,0.0,0.0,0.0,0.0,0.0,0.0,0.0,0.0,0.0,0.0,0.0,0.0,0.0,0.0,0.0,0.0,0.0,0.0,0.0,-3.4959,-3.627,-3.7342,-3.816,-3.8079,-3.7751,-3.7223,-3.6356,-3.4734,-3.2165,0.0,0.0,0.0,0.0,0.0,0.0,0.0,0.0,0.0,0.0,0.0,0.0,0.0,0.0,0.0,0.0,0.0,0.0,0.0,0.0,0.0,0.0,0.0,0.0,0.0,0.0,0.0,0.0,0.0,0.0,0.0,0.0,0.0,0.0,0.0,0.0,0.0,0.0,0.0,0.0,0.0,0.0,0.0,0.0,0.0,0.0,0.0,0.0,0.0,0.0,0.0,0.0,0.0,0.0,0.0,0.0,0.0,0.0,0.0,0.0,0.0,0.0,0.0,0.0,0.0,0.0,0.0,0.0,0.0,0.0,0.0,0.0,0.0,0.0,0.0,0.0,0.0,0.0,0.0,0.0,0.0,0.0,0.0,0.0,0.0,0.0,0.0,0.0,0.0,0.0,0.0,0.0,0.0,0.0,0.0,0.0,0.0,0.0,0.0,0.0,0.0,0.0,-3.5104,-3.7425,-3.8832,-3.8432,-3.8063,-3.7728,-3.7318,-3.4716,-3.2789,0.0,0.0,0.0,0.0,0.0,0.0,0.0,0.0,0.0,0.0,0.0,0.0,0.0,0.0,0.0,0.0,0.0,0.0,0.0,0.0,0.0,0.0,0.0,0.0,0.0,0.0,0.0,0.0,0.0,0.0,0.0,0.0,0.0,0.0,0.0,0.0,0.0,0.0,0.0,0.0,0.0,0.0,0.0,0.0,0.0,0.0,0.0,0.0,0.0,0.0,0.0,0.0,0.0,0.0,0.0,0.0,0.0,0.0,0.0,0.0,0.0,0.0,0.0,0.0,0.0,0.0,0.0,0.0,0.0,0.0,0.0,0.0,0.0,0.0,0.0,0.0,0.0,0.0,0.0,0.0,0.0,0.0,0.0,0.0,0.0,0.0,0.0,0.0,0.0,0.0,0.0,0.0,0.0,0.0,0.0,0.0,0.0,0.0,0.0,0.0,0.0,0.0,0.0,-3.5817,-3.7043,-3.7768,-3.7647,-3.7107,-3.6501,-3.5876,-3.5065,-3.3429,-3.069,0.0,0.0,0.0,0.0,0.0,0.0,0.0,0.0,0.0,0.0,0.0,0.0,0.0,0.0,0.0,0.0,0.0,0.0,0.0,0.0,0.0,0.0,0.0,0.0,0.0,0.0,0.0,0.0,0.0,0.0,0.0,0.0,0.0,0.0,0.0,0.0,0.0,0.0,0.0,0.0,0.0,0.0,0.0,0.0,0.0,0.0,0.0,0.0,0.0,0.0,0.0,0.0,0.0,0.0,0.0,0.0,0.0,0.0,0.0,0.0,0.0,0.0,0.0,0.0,0.0,0.0,0.0,0.0,0.0,0.0,0.0,0.0,0.0,0.0,0.0,0.0,0.0,0.0,0.0,0.0,0.0,0.0,0.0,0.0,0.0,0.0,0.0,0.0,0.0,0.0,0.0,0.0,0.0,0.0,0.0,0.0,0.0,0.0,0.0,0.0,0.0,0.0,-3.5743,-3.6529,-3.693,-3.693,-3.6064,-3.5209,-3.4487,-3.4438,-3.3058,-2.9801,0.0,0.0,0.0,0.0,0.0,0.0,0.0,0.0,0.0,0.0,0.0,0.0,0.0,0.0,0.0,0.0,0.0,0.0,0.0,0.0,0.0,0.0,0.0,0.0,0.0,0.0,0.0,0.0,0.0,0.0,0.0,0.0,0.0,0.0,0.0,0.0,0.0,0.0,0.0,0.0,0.0,0.0,0.0,0.0,0.0,0.0,0.0,0.0,0.0,0.0,0.0,0.0,0.0,0.0,0.0,0.0,0.0,0.0,0.0,0.0,0.0,0.0,0.0,0.0,0.0,0.0,0.0,0.0,0.0,0.0,0.0,0.0,0.0,0.0,0.0,0.0,0.0,0.0,0.0,0.0,0.0,0.0,0.0,0.0,0.0,0.0,0.0,0.0,0.0,0.0,0.0,0.0,0.0,0.0,0.0,0.0,0.0,0.0,0.0,0.0,0.0,0.0,-3.5193,-3.5944,-3.6324,-3.6324,-3.4995,-3.3873,-3.3266,-3.3156,-3.1984,-2.9297,0.0,0.0,0.0,0.0,0.0,0.0,0.0,0.0,0.0,0.0,0.0,0.0,0.0,0.0,0.0,0.0,0.0,0.0,0.0,0.0,0.0,0.0,0.0,0.0,0.0,0.0,0.0,0.0,0.0,0.0,0.0,0.0,0.0,0.0,0.0,0.0,0.0,0.0,0.0,0.0,0.0,0.0,0.0,0.0,0.0,0.0,0.0,0.0,0.0,0.0,0.0,0.0,0.0,0.0,0.0,0.0,0.0,0.0,0.0,0.0,-3.1423,-3.1229,0.0,0.0,0.0,0.0,0.0,0.0,0.0,0.0,0.0,0.0,0.0,0.0,0.0,0.0,0.0,0.0,0.0,0.0,0.0,0.0,0.0,0.0,0.0,0.0,0.0,0.0,0.0,0.0,0.0,0.0,0.0,0.0,0.0,0.0,0.0,0.0,0.0,0.0,0.0,0.0,-3.5212,-3.5505,-3.56,-3.56,-3.3889,-3.2671,-3.2513,-3.2154,-3.1213,-2.9434,-2.9054,0.0,0.0,0.0,0.0,0.0,0.0,0.0,0.0,0.0,0.0,0.0,0.0,0.0,0.0,0.0,0.0,0.0,0.0,0.0,0.0,0.0,0.0,0.0,0.0,0.0,0.0,0.0,0.0,0.0,0.0,0.0,0.0,0.0,0.0,0.0,0.0,0.0,0.0,0.0,0.0,0.0,0.0,0.0,0.0,0.0,0.0,0.0,0.0,0.0,0.0,0.0,0.0,0.0,0.0,0.0,0.0,0.0,0.0,0.0,-3.2693,-3.2741,0.0,0.0,0.0,0.0,0.0,0.0,0.0,0.0,0.0,0.0,0.0,0.0,0.0,0.0,0.0,0.0,0.0,0.0,0.0,0.0,0.0,0.0,0.0,0.0,0.0,0.0,0.0,0.0,0.0,0.0,0.0,0.0,0.0,0.0,0.0,0.0,0.0,0.0,0.0,0.0,-3.4116,-3.4267,-3.4326,-3.4546,-3.257,-3.1205,-3.1109,-3.0719,-2.997,-2.8837,-2.8569,0.0,0.0,0.0,0.0,0.0,0.0,0.0,0.0,0.0,0.0,0.0,0.0,0.0,0.0,0.0,0.0,0.0,0.0,0.0,0.0,0.0,0.0,0.0,0.0,0.0,0.0,0.0,0.0,0.0,0.0,0.0,0.0,0.0,0.0,0.0,0.0,0.0,0.0,0.0,0.0,0.0,0.0,0.0,0.0,0.0,0.0,0.0,0.0,0.0,0.0,0.0,0.0,0.0,-3.5804,-3.5808,-3.5863,-3.5863,-3.5179,-3.3912,-3.3592,-3.394,-3.4734,-3.4086,0.0,0.0,0.0,0.0,0.0,0.0,0.0,0.0,0.0,0.0,0.0,0.0,0.0,0.0,0.0,0.0,0.0,0.0,0.0,0.0,0.0,0.0,-3.0025,-3.0328,-3.0561,-3.033,-2.9127,0.0,0.0,0.0,0.0,0.0,0.0,0.0,0.0,0.0,0.0,0.0,-3.2932,-3.2991,-3.3102,-3.3366,-3.1426,-2.9974,-2.9702,-2.9305,-2.8794,-2.8196,-2.81,-2.809,0.0,0.0,0.0,0.0,0.0,0.0,0.0,0.0,0.0,0.0,0.0,0.0,0.0,0.0,0.0,0.0,0.0,0.0,0.0,0.0,0.0,0.0,0.0,0.0,0.0,0.0,0.0,0.0,0.0,0.0,0.0,0.0,-2.8548,-2.9899,0.0,0.0,0.0,0.0,0.0,0.0,0.0,0.0,0.0,0.0,0.0,0.0,0.0,-3.4211,-3.5282,-3.5189,-3.5302,-3.5541,-3.539,-3.5421,-3.572,-3.572,-3.5257,-3.4482,-3.442,0.0,-3.3849,-3.3511,0.0,0.0,0.0,0.0,0.0,0.0,0.0,0.0,0.0,0.0,0.0,0.0,0.0,0.0,0.0,0.0,0.0,0.0,0.0,0.0,0.0,0.0,-3.0826,-3.09,-3.0928,-3.0878,-3.0679,-3.0339,-2.9903,-2.9435,-2.9292,-2.916,0.0,0.0,0.0,0.0,0.0,0.0,-3.2987,-3.2991,-3.28,-3.227,-3.091,-2.9805,-2.9239,-2.8764,-2.8453,-2.8367,-2.804,-2.8064,-2.8601,-2.7963,0.0,0.0,0.0,0.0,0.0,0.0,0.0,0.0,0.0,0.0,0.0,0.0,0.0,0.0,0.0,0.0,0.0,0.0,0.0,0.0,0.0,0.0,0.0,0.0,0.0,0.0,0.0,0.0,0.0,-2.7967,-2.959,-3.0108,-3.0848,-3.1179,0.0,0.0,0.0,0.0,0.0,0.0,0.0,0.0,0.0,-3.4211,-3.4626,-3.493,-3.5164,-3.5142,-3.5212,-3.5268,-3.4825,-3.4708,-3.4849,-3.4849,-3.4269,-3.3213,-3.3543,-3.311,-3.2245,-3.333,-3.3832,-3.3945,0.0,0.0,0.0,0.0,-3.2737,-3.1989,-3.1811,-3.1679,-3.1378,-3.0215,0.0,0.0,0.0,0.0,0.0,0.0,0.0,-3.0179,-3.0529,-3.079,-3.0986,-3.0986,-3.0986,-3.0986,-3.0986,-3.084,-3.0681,-3.0641,-3.032,-3.0185,-3.0512,-3.0502,0.0,0.0,0.0,-3.2597,-3.2216,-3.2163,-3.2014,-3.16,-3.0185,-2.9261,-2.9275,-2.8527,-2.8209,-2.855,-2.8401,-2.8577,-2.9181,-2.8437,-2.7762,0.0,0.0,0.0,0.0,0.0,0.0,0.0,0.0,0.0,0.0,0.0,0.0,0.0,0.0,0.0,0.0,0.0,0.0,0.0,0.0,0.0,0.0,0.0,0.0,0.0,0.0,0.0,0.0,-2.9213,-3.0309,-3.0309,-3.1156,-3.1499,0.0,0.0,0.0,0.0,0.0,0.0,-3.3207,-3.3276,-3.3675,-3.4551,-3.5058,-3.5154,-3.4774,-3.4727,-3.474,-3.4748,-3.4158,-3.3912,-3.3937,-3.3937,-3.3256,-3.2151,-3.2576,-3.2171,-3.131,-3.288,-3.3666,-3.3941,-3.4279,-3.395,-3.3292,-3.3522,-3.3206,-3.2646,-3.2359,-3.2346,-3.2319,-3.1313,-3.0594,-2.9957,-2.9274,0.0,0.0,0.0,0.0,-3.0451,-3.0869,-3.0986,-3.0986,-3.0986,-3.0986,-3.0986,-3.0986,-3.0986,-3.1099,-3.1384,-3.1026,-3.0916,-3.164,-3.139,0.0,-3.1596,-3.202,-3.2068,-3.1302,-3.1205,-3.103,-3.0602,-2.9417,-2.8752,-2.8931,-2.821,-2.7945,-2.8374,-2.8402,-2.8711,-2.9324,-2.8671,-2.8229,-2.8033,0.0,0.0,0.0,0.0,0.0,0.0,0.0,0.0,0.0,0.0,0.0,0.0,0.0,0.0,0.0,0.0,0.0,0.0,0.0,0.0,0.0,0.0,0.0,0.0,0.0,0.0,0.0,0.0,0.0,-3.0934,-3.0998,0.0,0.0,0.0,0.0,-3.1951,-3.2572,-3.3145,-3.3731,-3.3772,-3.3721,-3.3684,-3.3683,-3.3932,-3.4417,-3.3919,-3.3715,-3.3853,-3.3332,-3.3138,-3.3269,-3.3269,-3.2818,-3.211,-3.2114,-3.2011,-3.1758,-3.1861,-3.1637,-3.1305,-3.2624,-3.2613,-3.1991,-3.2764,-3.2898,-3.2542,-3.1444,-3.1431,-3.1745,-3.1182,-3.0594,-3.0192,-3.0712,-3.0477,0.0,0.0,-3.0934,-3.0947,-3.0973,-3.0986,-3.0986,-3.0986,-3.0986,-3.0986,-3.0986,-3.0986,-3.1024,-3.1024,-3.0998,-3.1121,-3.1553,0.0,-3.1683,-3.201,-3.211,-3.1702,-3.0617,-3.0467,-3.0018,-2.8847,-2.8651,-2.8366,-2.7736,-2.7637,-2.7623,-2.7664,-2.7664,-2.7936,-2.8624,-2.8592,-2.8261,-2.7646,-2.7534,0.0,0.0,0.0,0.0,0.0,0.0,0.0,0.0,0.0,0.0,0.0,0.0,0.0,0.0,0.0,0.0,0.0,0.0,0.0,0.0,0.0,0.0,0.0,0.0,0.0,0.0,0.0,0.0,-3.2045,-3.2424,0.0,-3.1288,-3.1561,-3.182,-3.1889,-3.247,-3.3052,-3.3622,-3.3648,-3.3805,-3.4097,-3.411,-3.4031,-3.3875,-3.33,-3.283,-3.2511,-3.1967,-3.1755,-3.1786,-3.1786,-3.164,-3.1394,-3.1394,-3.1341,-3.13,-3.13,-3.1601,-3.2136,-3.2605,-3.2606,-3.2424,-3.2684,-3.2738,-3.2633,-3.2228,-3.2215,-3.2293,-3.168,-3.1156,-3.0725,-3.0921,-3.0843,-3.0725,-3.0934,-3.0986,-3.0986,-3.0986,-3.0986,-3.0986,-3.0986,-3.0986,-3.0986,-3.0986,-3.0986,-3.0986,-3.0986,-3.0986,-3.1123,-3.1519,-3.1593,-3.1703,-3.2055,-3.2092,-3.1707,-3.0548,-3.0398,-2.9937,-2.8722,-2.8587,-2.8505,-2.8243,-2.8229,-2.8085,-2.7678,-2.803,-2.818,-2.8035,-2.819,-2.8168,-2.7921,-2.696,-2.6338,0.0,0.0,0.0,0.0,0.0,0.0,0.0,0.0,0.0,0.0,0.0,0.0,0.0,0.0,0.0,0.0,0.0,0.0,0.0,0.0,0.0,0.0,0.0,0.0,0.0,-3.1823,-3.2502,-3.2672,-3.3038,-3.2908,-3.1902,-3.2006,-3.2123,-3.2084,-3.2476,-3.3038,-3.3822,-3.3862,-3.4031,-3.4384,-3.4214,-3.3953,-3.3587,-3.2803,-3.2215,-3.1797,-3.1261,-3.0986,-3.0986,-3.0986,-3.0986,-3.0986,-3.0986,-3.0986,-3.0986,-3.0986,-3.1431,-3.2136,-3.2333,-3.2411,-3.2411,-3.2411,-3.2411,-3.2372,-3.2189,-3.2123,-3.2058,-3.1679,-3.13,-3.0986,-3.0986,-3.0986,-3.0986,-3.0986,-3.0986,-3.0986,-3.0986,-3.0986,-3.0986,-3.0986,-3.0986,-3.0986,-3.0986,-3.0986,-3.0986,-3.0986,-3.0986,-3.1099,-3.1347,-3.1421,-3.1482,-3.1703,-3.174,-3.1311,-3.018,-3.0019,-2.9577,-2.835,-2.8229,-2.8229,-2.8229,-2.8229,-2.8055,-2.7672,-2.8002,-2.8042,-2.7659,-2.7787,-2.7914,-2.7914,-2.6688,-2.6174,-2.6356,0.0,0.0,0.0,0.0,0.0,0.0,0.0,0.0,0.0,0.0,0.0,0.0,0.0,0.0,0.0,0.0,0.0,0.0,0.0,0.0,0.0,0.0,0.0,-3.1065,-3.2502,-3.3352,-3.279,-3.2698,-3.2463,-3.1863,-3.1352,-3.1483,-3.2581,-3.2698,-3.3208,-3.4319,-3.4384,-3.4384,-3.4371,-3.3862,-3.3574,-3.3535,-3.2372,-3.1797,-3.1771,-3.1248,-3.0986,-3.0986,-3.0986,-3.0986,-3.0986,-3.0986,-3.0986,-3.0986,-3.0986,-3.0986,-3.1039,-3.1562,-3.1784,-3.1784,-3.1784,-3.1784,-3.1693,-3.1182,-3.0986,-3.0986,-3.0986,-3.0986,-3.0986,-3.0986,-3.0986,-3.0986,-3.0986,-3.0986,-3.0986,-3.0986,-3.0986,-3.0986,-3.0986,-3.0986,-3.0986,-3.0986,-3.0986,-3.0986,-3.0986,-3.0986,-3.0986,-3.0986,-3.0986,-3.0986,-3.0986,-3.0986,0.0,-2.948,-2.9323,-2.883,-2.7646,-2.7503,-2.749,-2.749,-2.749,-2.749,-2.7477,-2.749,-2.749,-2.749,-2.7516,-2.7496,-2.7475,-2.6897,-2.6564,-2.6468,0.0,0.0,0.0,0.0,0.0,0.0,0.0,0.0,0.0,0.0,0.0,0.0,0.0,0.0,0.0,0.0,0.0,0.0,0.0,0.0,0.0,-3.1876,-3.2881,-3.2881,-3.2908,-3.3038,-3.3313,-3.296,-3.2463,-3.1863,-3.2071,-3.2176,-3.2045,-3.2868,-3.3483,-3.3796,-3.4188,-3.4214,-3.3822,-3.3679,-3.3182,-3.2293,-3.1967,-3.1588,-3.1222,-3.1065,-3.0986,-3.0986,-3.0986,-3.0986,-3.0986,-3.0986,-3.0986,-3.0986,-3.0986,-3.0986,-3.0999,-3.1156,-3.1222,-3.1222,-3.1222,-3.1222,-3.1196,-3.1039,-3.0911,-3.0773,-3.0773,-3.0685,-3.0596,-3.0736,-3.0773,-3.0811,-3.0949,-3.0986,-3.0986,-3.0986,-3.0986,-3.0986,-3.0986,-3.0986,-3.0986,-3.0986,-3.0986,-3.0986,-3.0986,-3.0986,-3.0986,-3.0986,-3.0986,-3.0986,-3.0986,-3.0986,-3.0725,-2.9993,-2.9536,-2.9022,-2.8229,-2.7771,-2.749,-2.749,-2.749,-2.732,-2.6935,-2.7301,-2.749,-2.749,-2.752,-2.7276,-2.6798,-2.6612,-2.613,0.0,0.0,0.0,0.0,0.0,0.0,0.0,0.0,0.0,0.0,0.0,0.0,0.0,0.0,0.0,0.0,0.0,0.0,0.0,0.0,0.0,0.0,-3.2528,-3.3587,-3.3587,-3.3287,-3.3104,-3.3208,-3.2698,-3.2176,-3.1836,-3.1914,-3.194,-3.181,-3.2698,-3.3326,-3.3574,-3.411,-3.4254,-3.394,-3.3705,-3.3143,-3.2176,-3.1928,-3.151,-3.0986,-3.0986,-3.0986,-3.0986,-3.0986,-3.0986,-3.0986,-3.0986,-3.0986,-3.0986,-3.0986,-3.0986,0.0,0.0,0.0,0.0,0.0,-3.0986,-3.0986,-3.0986,-3.0874,-3.0698,-3.0698,-3.0571,-3.0406,-3.0533,-3.0571,-3.0609,-3.0723,-3.0748,-3.0761,-3.0836,-3.0798,-3.0785,-3.0949,-3.0949,-3.0911,-3.0986,-3.0986,-3.0986,-3.0986,-3.0986,0.0,-3.0986,-3.0986,-3.0986,-3.0986,-3.0986,-3.0777,-3.0179,-2.9849,-2.9405,-2.8852,-2.8464,-2.8268,-2.8268,-2.8268,0.0,0.0,0.0,-2.8118,-2.7864,-2.7834,0.0,0.0,0.0,0.0,0.0,0.0,0.0,0.0,-2.6235,-2.6416,0.0,0.0,0.0,0.0,0.0,0.0,0.0,0.0,0.0,0.0,0.0,0.0,0.0,0.0,0.0,0.0,-3.292,-3.3639,-3.3509,-3.3496,-3.326,-3.2672,-3.2058,-3.1706,-3.1706,-3.1287,-3.1222,-3.1758,-3.2372,-3.2947,-3.3561,-3.411,0.0,0.0,0.0,-3.3273,-3.2607,-3.2058,-3.151,-3.0986,-3.0986,-3.0986,-3.0986,-3.0986,-3.0986,-3.0986,-3.0986,-3.0986,-3.0986,-3.0986,-3.0986,-3.0986,-3.0986,-3.0986,-3.0986,-3.0986,-3.0986,-3.0986,-3.0949,0.0,0.0,-3.0622,-3.0419,-3.0203,-3.033,-3.0368,-3.0368,-3.0406,-3.0406,-3.0444,-3.0609,-3.0533,-3.0482,-3.0836,-3.0798,-3.0736,-3.0911,-3.0874,-3.0785,-3.0785,-3.0785,-3.0785,-3.0785,-3.0911,-3.0986,-3.0986,-3.0986,-3.0803,-3.0257,-3.014,-2.9905,-2.9431,0.0,0.0,-2.931,-2.931,-2.931,-2.931,-2.9304,-2.8995,-2.8331,-2.8284,-2.7964,-2.7285,-2.7297,-2.7217,-2.7108,-2.7179,-2.719,-2.7085,-2.676,-2.7076,0.0,0.0,0.0,0.0,0.0,0.0,0.0,0.0,0.0,0.0,0.0,0.0,0.0,0.0,0.0,-3.2592,-3.3578,-3.3914,-3.2999,-3.2868,-3.2646,-3.2032,-3.1496,-3.1143,-3.1143,-3.1052,-3.1222,-3.1758,-3.2372,-3.2947,-3.3561,-3.411,-3.4201,-3.3757,-3.3639,-3.3077,-3.198,-3.1863,-3.151,-3.0986,-3.0986,0.0,-3.0986,-3.0986,-3.0986,-3.0986,-3.0986,-3.0986,-3.0986,-3.0986,-3.0911,-3.0773,-3.0949,-3.0986,-3.0986,-3.0811,-3.0836,-3.0949,-3.0634,-3.0037,-2.9496,-3.0024,-2.9586,-2.9015,-2.9908,-3.0152,0.0,-3.0368,-3.0406,-3.0406,-3.0444,-3.0444,-3.0406,-3.0482,-3.0482,-3.0482,-3.052,-2.996,-2.9484,-2.9484,-2.9484,-2.9484,-2.9484,-3.0317,-3.0986,-3.0986,-3.0986,-3.0947,-3.083,-3.0388,-3.0061,-2.9944,-2.9549,-2.931,-2.931,-2.931,-2.931,-2.931,-2.9258,-2.8936,-2.8249,-2.8217,-2.7917,-2.7233,-2.7233,-2.7023,-2.6663,-2.7015,-2.7015,-2.6652,-2.6953,-2.7185,0.0,0.0,0.0,0.0,0.0,0.0,0.0,0.0,0.0,0.0,0.0,-2.9345,-2.9979,0.0,-3.2478,-3.2854,-3.3534,-3.3703,-3.2696,-3.254,-3.2254,-3.1471,-3.1156,-3.0986,-3.0986,-3.1248,-3.1497,-3.1784,-3.2646,-3.3273,-3.3574,-3.411,-3.428,-3.4005,-3.3992,-3.3587,-3.2725,-3.2424,-3.2123,-3.1823,-3.1261,-3.1092,-3.1239,-3.0966,-3.0798,-3.071,-3.071,-3.0761,-3.0849,-3.0849,-3.0723,-3.0533,-3.0203,-3.0394,-3.0849,-3.0609,-3.0685,-3.0798,-3.0482,-2.9767,-2.9028,-2.9353,-2.87,-2.7891,-2.845,-2.8937,-2.9223,-2.8834,-2.9081,-2.9457,-2.9574,-2.9535,-2.9496,-2.9678,-2.9651,-2.9496,-2.9186,-2.8782,-2.8454,-2.8454,-2.8454,-2.8454,-2.8454,-2.8966,-2.9691,-3.0558,-3.071,-3.071,-3.071,-3.0426,-3.0258,-3.0258,-2.9999,-2.9868,-2.9868,-2.9634,-2.9311,-2.8888,-2.8835,-2.8392,-2.753,-2.7509,-2.7185,-2.6561,-2.6561,-2.6437,-2.6218,-2.6437,-2.6437,-2.6218,-2.6437,-2.6945,0.0,0.0,0.0,0.0,0.0,0.0,0.0,-2.6343,-2.6721,-2.8403,-2.9378,-3.0089,-3.0641,-3.1864,-3.2822,-3.296,-3.3402,-3.3412,-3.2508,-3.2393,-3.2045,-3.1055,-3.0986,-3.0986,-3.0986,-3.1509,-3.185,-3.1967,-3.2986,-3.3639,-3.3744,-3.4162,-3.4397,-3.4356,-3.4397,-3.4136,-3.3546,-3.3023,-3.2723,-3.2646,-3.1642,-3.1292,-3.1448,-3.0971,-3.0636,-3.0406,-3.0406,-3.0482,-3.066,-3.0584,-3.0495,-3.0254,-2.9328,-2.9535,-3.0305,-3.0126,-3.0216,-3.033,-3.0126,-2.938,-2.8542,-2.8502,-2.7718,-2.6894,-2.7069,-2.7637,-2.8051,-2.7313,-2.7637,-2.8263,-2.8422,-2.8343,-2.8291,-2.8636,-2.8581,-2.8331,-2.7775,-2.7522,-2.7389,-2.7389,-2.7389,-2.7389,-2.7389,-2.755,-2.8164,-2.9665,-2.9871,-2.9871,-2.9871,-2.9871,-2.9871,-2.9871,-2.9871,-2.9871,-2.9871,-2.9549,-2.9018,-2.8335,-2.8148,-2.7695,-2.6853,-2.67,-2.6393,-2.5895,-2.5895,-2.5864,-2.577,-2.5864,-2.5853,-2.577,-2.5853,-2.6523,-2.4054,-2.4277,-2.4924,-2.657,-2.7001,-2.765,0.0,-3.0104,-2.9839,-3.0852,-3.1468,-3.1914,-3.1976,-3.2706,-3.331,-3.3352,-3.356,-3.3412,-3.2508,-3.2393,-3.1966,-3.0878,-3.0874,-3.0986,-3.0986,-3.1509,-3.2006,-3.2555,-3.3208,-3.3796,-3.428,-3.4358,-3.4314,-3.416,-3.4314,-3.4053,-3.3247,-3.317,-3.2885,-3.2433,-3.2039,-3.1664,-3.124,-3.1176,-3.0881,-3.0406,-3.0406,-3.0406,-3.0406,-3.0228,-3.0152,-3.0037,-2.8988,-2.8752,-2.8988,-2.9,-2.9106,-2.9199,-2.8858,-2.8251,-2.7597,-2.7354,-2.6689,-2.6069,-2.6864,-2.7191,-2.7232,-2.7151,-2.7191,-2.7273,-2.7273,-2.7273,-2.7273,-2.7302,-2.7313,-2.7273,-2.718,-2.6565,-2.6016,-2.6016,-2.6016,-2.6016,-2.6016,-2.6689,-2.7383,-2.8004,-2.8084,-2.8084,-2.8084,-2.8084,-2.8084,-2.8084,-2.8084,-2.8084,-2.8084,-2.8032,-2.7964,-2.7872,-2.7331,-2.6935,-2.6812,-2.6279,-2.5979,-2.5895,-2.5895,-2.5686,-2.5285,-2.5686,-2.5686,-2.5285,-2.5728,-2.597,-2.5363,-2.6278,-2.7091,-2.8203,-2.8473,-2.8951,-3.0675,-3.0846,-3.0931,-3.2134,-3.2554,-3.2717,-3.2717,-3.2991,-3.324,-3.324,-3.3313,-3.3047,-3.2105,-3.1979,-3.1689,-3.0789,-3.1046,-3.1279,-3.1279,-3.1915,-3.2581,-3.3169,-3.3744,-3.4162,-3.4384,-3.4272,-3.4202,-3.4118,-3.4021,-3.3821,-3.3505,-3.3196,-3.3081,-3.3145,-3.2354,-3.1839,-3.1529,-3.121,-3.0387,-2.9289,-2.9419,-2.9094,-2.8478,-2.8569,-2.8478,-2.8239,-2.7302,-2.6976,-2.711,-2.7597,-2.7959,-2.8119,-2.7799,-2.718,-2.6483,-2.6359,-2.5757,-2.5105,-2.5474,-2.5955,-2.6246,-2.5726,-2.5955,-2.6359,-2.6359,-2.6359,-2.6359,-2.6359,-2.6359,-2.6193,-2.5684,-2.5306,-2.5062,-2.5062,-2.5062,-2.5062,-2.5062,-2.5348,-2.5631,-2.583,-2.6719,-2.7371,-2.7371,-2.7371,-2.7371,-2.7371,-2.7371,-2.7302,-2.7058,-2.7028,-2.6823,-2.6318,-2.6038,-2.5768,-2.5474,-2.52,-2.5094,-2.5094,-2.5094,-2.5009,-2.4786,-2.5009,-2.4956,-2.4786,-2.5009,-2.5094,-2.6181,-2.7395,-2.829,-2.9112,-2.946,-2.9919,-3.0833,-3.115,-3.154,-3.2614,-3.283,-3.288,-3.3056,-3.2943,-3.2893,-3.3056,-3.3124,-3.2764,-3.182,-3.1696,-3.1462,-3.0817,-3.1151,-3.1513,-3.1782,-3.2487,-3.3117,-3.3467,-3.4001,-3.4272,-3.423,-3.4063,-3.3949,-3.3907,-3.3768,-3.367,-3.3641,-3.3215,-3.3215,-3.3628,-3.2727,-3.2069,-3.1658,-3.067,-2.9606,-2.8502,-2.8383,-2.7851,-2.711,-2.7302,-2.7273,-2.7028,-2.6152,-2.5777,-2.5872,-2.6246,-2.6659,-2.7017,-2.6812,-2.6318,-2.5746,-2.5505,-2.502,-2.4497,-2.4497,-2.4935,-2.5306,-2.47,-2.4935,-2.5421,-2.5421,-2.5421,-2.5421,-2.5421,-2.5421,-2.5263,-2.4625,-2.4497,-2.4497,-2.4497,-2.4497,-2.4497,-2.4497,-2.4497,-2.4497,-2.4497,-2.5558,-2.637,-2.637,-2.637,-2.637,-2.637,-2.637,-2.6257,-2.5988,-2.5946,-2.5695,-2.5031,-2.4999,-2.4871,-2.4497,-2.4497,-2.4497,-2.4497,-2.4497,-2.4497,-2.4497,-2.4497,-2.4497,-2.4497,-2.4631,-2.4683,-2.5579,-2.6483,-2.747,-2.8949,-2.993,-3.0718,-3.1257,-3.1784,-3.2173,-3.224,-3.224,-3.2416,-3.2968,-3.2616,-3.2416,-3.298,-3.3124,-3.2764,-3.182,-3.1696,-3.1493,-3.095,-3.1084,-3.1557,-3.2492,-3.3168,-3.348,-3.3234,-3.3765,-3.3992,-3.3755,-3.3725,-3.3641,-3.3441,-3.3598,-3.3598,-3.3398,-3.3373,-3.3373,-3.3398,-3.3159,-3.2495,-3.1348,-2.945,-2.8566,-2.8462,-2.7557,-2.7151,-2.711,-2.711,-2.711,-2.7028,-2.6152,-2.5777,-2.5704,-2.4861,-2.5105,-2.5861,-2.5819,-2.5819,-2.5663,-2.4818,-2.454,-2.4497,-2.4497,-2.4497,-2.454,-2.4497,-2.4497,-2.454,-2.454,-2.454,-2.454,-2.454,-2.454,-2.454,-2.4497,-2.4497,-2.4497,-2.4497,-2.4497,-2.4497,-2.4497,-2.4497,-2.4497,-2.4497,-2.454,-2.4583,-2.4583,-2.4583,-2.4583,-2.4583,-2.4583,-2.4583,-2.454,-2.454,-2.454,-2.454,-2.454,-2.4497,-2.4497,-2.4497,-2.4497,-2.4497,-2.4497,-2.4497,-2.4497,-2.4497,-2.4497,-2.4507,-2.4962,-2.5168,-2.5166,-2.5796,-2.6606,-2.8085,-2.8639,-2.9029,-2.9558,-2.9808,-2.9927,-2.9927,-2.9927,-2.9986,-3.0219,-3.0827,-3.1406,-3.1602,-3.2475,-3.286,-3.2135,-3.2034,-3.1861,-3.1481,-3.1815,-3.2319,-3.2756,-3.3001,-3.3238,-3.3502,-3.3694,-3.381,-3.3713,-3.3556,-3.3471,-3.3398,-3.3356,-3.3283,-3.3197,-3.3197,-3.3197,-3.3185,-3.2357,-3.1763,-3.1308,-2.9398,-2.8171,-2.7516,-2.6607,-2.5913,-2.5359,-2.5359,-2.5359,-2.5359,-2.5062,-2.4935,-2.4903,-2.4625,-2.47,-2.4935,-2.4935,-2.4935,-2.4903,-2.4583,-2.4497,-2.4497,-2.4497,-2.4497,-2.4497,-2.4497,-2.4497,-2.4497,-2.4497,-2.4497,-2.4497,-2.4497,-2.4497,-2.4497,-2.4497,-2.4497,-2.4497,-2.4497,-2.4497,-2.4497,-2.4497,-2.4497,-2.4497,-2.4497,-2.4497,-2.4497,-2.4497,-2.4497,-2.4497,-2.4497,-2.4497,-2.4497,-2.4497,-2.4497,-2.4497,-2.4497,-2.4497,-2.4497,-2.4497,-2.4497,-2.4497,-2.4497,-2.4497,-2.4497,-2.4497,-2.4807,-2.4952,-2.4972,-2.5451,-2.5658,-2.5187,-2.559,-2.6104,-2.7357,-2.7697,-2.7778,-2.8119,-2.838,-2.8518,-2.8518,-2.8518,-2.8564,-2.878,-2.9523,-3.0303,-3.0795,-3.1853,-3.2469,-3.2248,-3.2215,-3.2206,-3.2193,-3.2525,-3.2988,-3.3479,-3.3382,-3.3373,-3.3586,-3.3598,-3.3556,-3.3471,-3.3356,-3.3283,-3.3283,-3.3154,-3.3124,-3.3124,-3.3124,-3.3124,-3.3068,-3.1791,-3.1121,-3.0844,-2.8756,-2.7352,-2.6577,-2.5704,-2.502,-2.4497,-2.4497,-2.4497,-2.4497,-2.4497,-2.4497,-2.4497,-2.4497,-2.4497,-2.4497,-2.4497,-2.4497,-2.4497,-2.4497,-2.4497,-2.4497,-2.4497,-2.4497,-2.4497,-2.4497,-2.4497,-2.4497,-2.4497,-2.4497,-2.4497,-2.4497,-2.4497,-2.4497,-2.4497,-2.4497,-2.4497,-2.4497,-2.4497,-2.4497,-2.4497,-2.4497,-2.4497,-2.4497,-2.4497,-2.4497,-2.4497,-2.4497,-2.4497,-2.4497,-2.4497,-2.4497,-2.4497,-2.4497,-2.4497,-2.4497,-2.4497,-2.4497,-2.4497,-2.4497,-2.4497,-2.4497,-2.4497,-2.4497,-2.4497,-2.4962,-2.5189,-2.5199,-2.5844,-2.6169,-2.5473,-2.5724,-2.5944,-2.6782,-2.6987,-2.6987,-2.6987,-2.7417,-2.7813,-2.7813,-2.7813,-2.7992,-2.8482,-2.8609,-2.9117,-3.0606,-3.13,-3.1811,-3.2276,-3.234,-3.2541,-3.3093,-3.3156,-3.3571,-3.4625,-3.4248,-3.3796,-3.3444,-3.3411,-3.3313,-3.3124,-3.3124,-3.3124,-3.3124,-3.3124,-3.3124,-3.3124,-3.3124,-3.3124,-3.3068,-3.154,-3.0555,-3.0013,-2.7617,-2.6246,-2.5746,-2.4861,-2.4497,-2.4497,-2.4497,-2.4497,-2.4497,-2.4497,-2.4497,-2.4497,-2.4497,-2.4497,-2.4497,-2.4497,-2.4497,-2.4497,-2.4497,-2.4497,-2.4497,-2.4497,-2.4497,-2.4497,-2.4497,-2.4497,-2.4497,-2.4497,-2.4497,-2.4497,-2.4497,-2.4497,-2.4497,-2.4497,-2.4497,-2.4497,-2.4497,-2.4497,-2.4497,-2.4497,-2.4497,-2.4497,-2.4497,-2.4497,-2.4497,-2.4497,-2.4497,-2.4497,-2.4497,-2.4497,-2.4497,-2.4497,-2.4497,-2.4497,-2.4497,-2.4497,-2.4497,-2.4497,-2.4497,-2.4497,-2.4497,-2.4497,-2.4507,-2.4538,-2.4993,-2.523,-2.5272,-2.6196,-2.6656,-2.4326,-2.4609,-2.4861,-2.5105,-2.5158,-2.5158,-2.5158,-2.5285,-2.5381,-2.5381,-2.5381,-2.5413,-2.5562,-2.6748,-2.8162,-2.966,-3.1223,-3.2645,-3.3902,-3.4041,-3.4135,-3.4286,-3.4299,-3.4412,-3.4655,-3.46,-3.4286,-3.3809,-3.3393,-3.3154,-3.3124,-3.3124,-3.3124,-3.3124,-3.3124,-3.3124,-3.3124,-3.3124,-3.3124,-3.3068,-3.154,-3.0555,-3.0013,-2.7617,-2.6246,-2.5746,-2.4861,-2.4497,-2.4497,-2.4497,-2.4497,-2.4497,-2.4497,-2.4497,-2.4497,-2.4497,-2.4497,-2.4497,-2.4497,-2.4497,-2.4497,-2.4497,-2.4497,-2.4497,-2.4497,-2.4497,-2.4497,-2.4497,-2.4497,-2.4497,-2.4497,-2.4497,-2.4497,-2.4497,-2.4497,-2.4497,-2.4497,-2.4497,-2.4497,-2.4497,-2.4497,-2.4497,-2.4497,-2.4497,-2.4497,-2.4497,-2.4497,-2.4497,-2.4497,-2.4497,-2.4497,-2.4497,-2.4497,-2.4497,-2.4497,-2.4497,-2.4497,-2.4497,-2.4497,-2.4497,-2.4497,-2.4497,-2.4497,-2.4497,-2.4497,-2.4662,-2.5013,-2.5502,-2.5896,-2.6248,-2.6864,-2.7133,-2.4167,-2.4353,-2.4497,-2.4497,-2.4497,-2.4497,-2.4497,-2.4497,-2.4497,-2.4497,-2.4497,-2.4497,-2.4497,-2.5872,-2.7406,-2.869,-3.0297,-3.1856,-3.3106,-3.3707,-3.4093,-3.4339,-3.4803,-3.5044,-3.5044,-3.4818,-3.45,-3.3935,-3.3608,-3.3332,-3.3093,-3.3124,-3.3124,-3.3124,-3.3124,-3.3124,-3.3124,-3.3124,-3.3124,-3.3068,-3.1368,-3.0284,-2.9753,-2.7337,-2.5967,-2.5477,-2.4784,-2.4497,-2.4497,-2.4497,-2.4497,-2.4497,-2.4497,-2.4497,-2.4497,-2.4497,-2.4497,-2.4497,-2.4497,-2.4497,-2.4497,-2.4497,-2.4497,-2.4497,-2.4497,-2.4497,-2.4497,-2.4497,-2.4497,-2.4497,-2.4497,-2.4497,-2.4497,-2.4497,-2.4497,-2.4497,-2.4497,-2.4497,-2.4497,-2.4497,-2.4497,-2.4497,-2.4497,-2.4497,-2.4497,-2.4497,-2.4497,-2.4497,-2.4497,-2.4497,-2.4497,-2.4497,-2.4497,-2.4497,-2.4497,-2.4497,-2.4497,-2.4497,-2.4497,-2.4497,-2.4497,-2.4497,-2.4497,-2.4497,-2.4693,-2.4931,-2.5189,-2.5875,-2.6366,-2.6625,-2.7092,-2.7309,-2.4497,-2.4497,-2.4497,-2.4497,-2.4497,-2.4497,-2.4497,-2.4497,-2.4497,-2.4497,-2.4497,-2.4497,-2.4497,-2.5554,-2.6812,-2.7932,-2.9216,-3.0425,-3.1558,-3.2523,-3.3326,-3.3839,-3.4777,-3.541,-3.541,-3.5123,-3.4675,-3.406,-3.401,-3.3734,-3.3106,-3.3124,-3.3124,-3.3124,-3.3124,-3.3124,-3.3124,-3.3124,-3.3025,-3.2896,-3.108,-2.9894,-2.9212,-2.692,-2.5637,-2.5158,-2.4693,-2.4497,-2.4497,-2.4497,-2.4497,-2.4497,-2.4497,-2.4497,-2.4497,-2.4497,-2.4497,-2.4497,-2.4497,-2.4497,-2.4497,-2.4497,-2.4497,-2.4497,-2.4497,-2.4497,-2.4497,-2.4497,-2.4497,-2.4497,-2.4497,-2.4497,-2.4497,-2.4497,-2.4497,-2.4497,-2.4497,-2.4497,-2.4497,-2.4497,-2.4549,-2.459,-2.459,-2.4631,-2.4673,-2.4673,-2.4578,-2.4504,-2.459,-2.4538,-2.4454,-2.4454,-2.4411,-2.4411,-2.4454,-2.4454,-2.4454,-2.4497,-2.4497,-2.4497,-2.4497,-2.4497,-2.4528,-2.459,-2.4983,-2.5241,-2.5409,-2.6185,-2.6599,-2.6532,-2.7076,-2.7251,-2.4454,-2.4497,-2.4497,-2.4497,-2.4497,-2.4497,-2.4497,-2.4497,-2.4497,-2.4497,-2.4497,-2.4497,-2.4497,-2.5003,-2.6183,-2.8372,-2.9244,-3.0367,-3.2605,-3.3085,-3.3218,-3.336,-3.4303,-3.4944,-3.4944,-3.5635,-3.5667,-3.465,-3.4575,-3.4135,-3.3131,-3.3124,-3.3124,-3.3124,-3.3124,-3.3124,-3.3124,-3.3124,-3.2667,-3.1857,-3.0711,-2.9545,-2.8196,-2.6615,-2.5637,-2.5158,-2.4693,-2.4497,-2.4497,-2.4497,-2.4497,-2.4497,-2.4497,-2.4497,-2.4497,-2.4497,-2.4497,-2.4497,-2.4497,-2.4497,-2.4497,-2.4497,-2.4497,-2.4497,-2.4497,-2.4497,-2.4497,-2.4497,-2.4497,-2.4497,-2.4497,-2.4497,-2.4497,-2.4497,-2.4497,-2.4497,-2.4497,-2.4497,-2.4497,-2.4497,-2.4807,-2.5065,-2.5065,-2.5409,-2.5647,-2.5647,-2.4873,-2.4462,-2.5021,-2.4605,-2.4249,-2.4249,-2.4057,-2.4024,-2.4239,-2.4249,-2.4335,-2.4497,-2.4497,-2.4497,-2.4497,-2.4497,-2.4683,-2.5065,-2.5148,-2.5595,-2.6341,-2.6542,-2.6474,-2.6222,-2.6935,-2.6918,-2.3596,-2.3802,-2.4019,-2.4156,-2.4332,-2.4497,-2.4497,-2.4497,-2.4497,-2.4497,-2.4497,-2.4497,-2.4497,-2.5065,-2.6034,-2.7487,-2.8269,-2.9229,-3.095,-3.1656,-3.2096,-3.2364,-3.3289,-3.3838,-3.3568,-3.4029,-3.4184,-3.3906,-3.36,-3.3345,-3.3119,-3.3124,-3.3124,-3.3124,-3.3124,-3.3124,-3.3124,-3.3124,-3.2581,-3.1581,-3.0666,-2.9545,-2.8318,-2.6894,-2.5999,-2.5544,-2.5055,-2.4724,-2.4497,-2.4497,-2.4497,-2.4497,-2.4497,-2.4497,-2.4497,-2.4497,-2.4497,-2.4497,-2.4497,-2.4497,-2.4497,-2.4497,-2.4497,-2.4497,-2.4497,-2.4497,-2.4497,-2.4497,-2.4497,-2.4497,-2.4497,-2.4497,-2.4497,-2.4497,-2.4683,-2.4859,-2.4859,-2.5078,-2.5233,-2.5233,-2.542,-2.5564,-2.5564,-2.574,-2.5875,-2.5875,-2.4856,-2.4173,-2.4455,-2.3544,-2.3201,-2.4118,-2.398,-2.3841,-2.398,-2.4236,-2.4422,-2.4499,-2.4162,-2.3959,-2.3959,-2.3445,-2.3586,-2.45,-2.4784,-2.5436,-2.6615,-2.6431,-2.6275,-2.61,-2.6081,-2.5829,-2.2788,-2.3145,-2.3491,-2.37,-2.4039,-2.4368,-2.4368,-2.4368,-2.4368,-2.4411,-2.4454,-2.4454,-2.4497,-2.5109,-2.5802,-2.6511,-2.7169,-2.8017,-2.9145,-3.0117,-3.0857,-3.1184,-3.2285,-3.2805,-3.2267,-3.2468,-3.2727,-3.3073,-3.2702,-3.2673,-3.3093,-3.3124,-3.3124,-3.3124,-3.3124,-3.3124,-3.3124,-3.2896,-3.2264,-3.1303,-3.0351,-2.9349,-2.8341,-2.7138,-2.6366,-2.5854,-2.542,-2.4921,-2.4497,-2.4497,-2.4497,-2.4497,-2.4497,-2.4497,-2.4497,-2.4497,-2.4497,-2.4497,-2.4497,-2.4497,-2.4497,-2.4497,-2.4497,-2.4497,-2.4497,-2.4497,-2.4497,-2.4497,-2.4497,-2.4497,-2.4497,-2.4497,-2.4528,-2.4621,-2.4921,-2.521,-2.5347,-2.5637,-2.5875,-2.5875,-2.5958,-2.603,-2.603,-2.6113,-2.6119,-2.5834,-2.4663,-2.3767,-2.3627,-2.2319,-2.1948,-2.3477,-2.3398,-2.3354,-2.3673,-2.38,-2.4087,-2.4601,-2.3694,-2.3252,-2.3485,-2.2492,-2.2434,-2.3627,-2.4193,-2.4983,-2.5886,-2.596,-2.58,-2.5401,-2.505,-2.4796,-2.2553,-2.2906,-2.3239,-2.3239,-2.3561,-2.3884,-2.3884,-2.3884,-2.3927,-2.4163,-2.4249,-2.4282,-2.4454,-2.4569,-2.5078,-2.6407,-2.6687,-2.7303,-2.9052,-2.9766,-3.0099,-3.0141,-3.147,-3.22,-3.1717,-3.2571,-3.311,-3.3109,-3.3034,-3.3045,-3.3081,-3.3124,-3.3124,-3.3124,-3.3124,-3.3124,-3.3124,-3.2208,-3.1258,-3.0306,-2.9314,-2.8351,-2.7431,-2.6869,-2.6366,-2.5854,-2.542,-2.4921,0.0,-2.4497,-2.4497,-2.4497,-2.4497,-2.4497,-2.4497,-2.4497,-2.4497,-2.4497,-2.4497,-2.4497,-2.4497,-2.4497,-2.4497,-2.4497,-2.4497,-2.4497,-2.4497,-2.4497,-2.4497,-2.4497,-2.4497,-2.4497,-2.4611,-2.5024,-2.5158,-2.5303,-2.573,-2.5854,-2.5875,-2.5875,-2.6262,-2.6553,-2.6553,-2.6895,-2.6775,-2.5527,-2.4324,-2.3361,-2.2792,-2.1488,-2.0931,-2.1751,-2.1591,-2.1931,-2.3159,-2.2382,-2.2785,-2.4906,-2.3187,-2.2492,-2.3439,-2.2492,-2.2139,-2.2686,-2.3705,-2.4005,-2.3628,-2.5022,-2.4854,-2.322,-2.4353,-2.4501,-2.1581,-2.2059,-2.2629,-2.2753,-2.3275,-2.3797,-2.3797,-2.3797,-2.3884,-2.4153,-2.4206,-2.4249,-2.4454,-2.4497,-2.4848,-2.5978,-2.62,-2.6693,-2.8255,-2.8866,-2.927,-2.9549,-3.0391,-3.0841,-3.0661,-3.0991,-3.1293,-3.1275,-3.2424,-3.2836,-3.2245,-3.2754,-3.3124,-3.3124,-3.3124,-3.3124,-3.3124,-3.212,-3.1125,-3.017,-2.9176,-2.8222,-2.7299,-2.7123,-2.6625,-2.5875,-2.5699,-2.5202,0.0,-2.4497,-2.4497,-2.4497,-2.4497,-2.4497,-2.4497,-2.4497,-2.4497,-2.4497,-2.4497,-2.4497,-2.4497,-2.4497,-2.4497,-2.4497,-2.4497,-2.4497,-2.4497,-2.4497,-2.4497,-2.4497,-2.4497,-2.4704,-2.4962,-2.5148,-2.5647,-2.6082,-2.6304,-2.6563,-2.675,-2.675,-2.6905,-2.7029,-2.7029,-2.7053,-2.688,-2.6332,-2.4489,-2.3045,-2.2807,-2.1003,-1.9891,-2.017,-2.0818,-2.1418,-2.1942,-2.1865,-2.2197,-2.311,-2.2008,-2.1495,-2.194,-2.0906,-2.0779,-2.1812,-2.2261,-2.2737,-2.3285,-2.3434,-2.3302,-2.2878,-2.297,-2.302,-2.1184,-2.1618,-2.2152,-2.2436,-2.3033,-2.358,-2.358,-2.358,-2.3667,-2.3937,-2.4024,-2.4153,-2.4368,-2.4454,-2.4755,-2.5564,-2.5792,-2.6351,-2.7728,-2.8442,-2.899,-2.9456,-2.9922,-3.0149,-3.0005,-3.012,-3.0213,-3.0095,-3.1819,-3.2472,-3.1629,-3.2525,-3.3124,-3.3124,-3.3124,-3.2939,-3.2667,-3.1669,-3.0711,-2.9761,-2.8771,-2.7951,-2.7309,-2.7309,-2.6801,-2.5875,-2.5875,-2.5368,0.0,-2.4497,-2.4497,-2.4497,-2.4497,-2.4497,-2.4497,-2.4497,-2.4497,-2.4497,-2.4497,-2.4497,-2.4497,-2.4497,-2.4497,-2.4497,-2.4497,-2.4497,-2.4497,-2.4497,-2.4497,-2.4528,-2.4662,-2.4941,-2.5251,-2.5564,-2.6113,-2.6656,-2.6791,-2.7081,-2.7309,-2.7309,-2.7214,-2.7167,-2.7167,-2.6688,-2.6294,-2.6197,-2.4038,-2.2391,-2.2341,-2.0534,-1.9279,-1.9279,-2.0097,-2.0786,-2.1071,-2.1114,-2.1412,-2.2057,-2.1046,-2.0585,-2.0885,-1.9879,-1.9732,-2.068,-2.1038,-2.1481,-2.2139,-2.2038,-2.1996,-2.2064,-2.1666,-2.1776,-2.1758,-2.1885,-2.1982,-2.2402,-2.2822,-2.3101,-2.3101,-2.3101,-2.3188,-2.345,-2.3667,-2.3894,-2.4153,-2.4378,-2.4652,-2.5117,-2.5595,-2.6351,-2.7728,-2.8711,-2.9466,-2.9932,-3.0398,-3.0501,-3.0046,-3.0461,-3.058,-3.0112,-3.1472,-3.21,-3.1617,-3.2525,-3.3124,-3.3124,-3.3124,-3.2624,-3.1625,-3.0666,-2.9715,-2.8678,-2.7762,-2.7309,-2.7309,-2.7309,-2.6801,-2.5875,-2.5875,-2.5368,0.0,-2.4497,-2.4497,-2.4497,-2.4497,-2.4497,-2.4497,-2.4497,-2.4497,-2.4497,-2.4497,-2.4497,-2.4497,-2.4497,-2.4497,-2.4497,-2.4497,-2.4497,-2.4497,-2.4497,-2.4497,-2.4611,-2.5065,-2.5179,-2.5406,-2.6341,-2.6604,-2.6739,-2.7195,-2.7299,-2.7309,-2.7309,-2.7081,-2.69,-2.69,-2.579,-2.4835,-2.4541,-2.2685,-2.1234,-2.0936,-1.9983,-1.9279,-1.9279,-1.9324,-1.9768,-2.0826,-1.9923,-2.0225,-2.2383,-2.0483,-1.9776,-2.0885,-1.9879,-1.9331,-1.9324,-2.038,-2.0388,-1.9331,-2.0936,-2.1132,-2.013,-2.066,-2.1224,-2.1924,-2.21,-2.2344,-2.248,-2.2779,-2.3091,-2.3091,-2.3091,-2.3188,-2.346,-2.3547,-2.3721,-2.412,-2.4249,-2.4718,-2.5968,-2.6258,-2.6827,-2.8204,-2.9197,-2.9715,-2.9539,-2.9932,-3.016,-3.0005,-2.9868,-2.96,-2.9087,-2.9862,-3.0118,-2.9658,-3.0576,-3.1713,-3.3081,-3.3124,-3.2624,-3.1625,-3.0666,-2.9715,-2.8678,-2.7762,-2.7309,-2.7309,-2.7309,-2.6978,-2.6397,-2.6397,-2.6009,-2.5461,-2.5461,-2.5461,-2.5461,-2.5461,-2.5275,-2.4972,-2.4972,-2.4766,-2.4497,-2.4497,-2.4497,-2.4497,-2.4497,-2.4497,-2.4497,-2.4497,-2.4497,-2.4497,-2.4497,-2.4497,-2.4611,-2.5065,-2.5451,-2.5823,-2.647,-2.6864,-2.7133,-2.7278,-2.7309,-2.7309,-2.7309,-2.7214,-2.687,-2.5964,-2.5275,-2.4541,-2.3543,-2.2038,-2.0987,-2.0936,-1.9983,-1.9279,-1.9279,-1.9279,-1.9428,-1.9783,-1.948,-1.9583,-2.0285,-1.968,-1.9428,-1.9776,-1.948,-1.9279,-1.9279,-1.9628,-1.9628,-1.9279,-1.9828,-2.0078,-2.0138,-2.066,-2.0968,-2.2432,-2.2432,-2.2549,-2.2672,-2.2896,-2.3091,-2.3091,-2.3091,-2.3144,-2.3319,-2.3416,-2.359,-2.3894,-2.4219,-2.4781,-2.5791,-2.645,-2.7237,-2.8214,-2.9301,-2.9953,-2.9839,-2.9922,-2.9922,-2.9746,-2.9477,-2.9042,-2.84,-2.9005,-2.919,-2.8746,-2.9669,-3.0756,-3.1989,-3.2033,-3.1536,-3.0543,-2.9943,-2.913,-2.8175,-2.7584,-2.7309,-2.7309,-2.7309,-2.705,-2.6615,-2.6615,-2.6345,0.0,-2.5875,-2.5875,-2.5875,-2.5875,-2.5709,-2.5461,-2.5251,-2.5003,-2.4735,-2.4559,-2.4497,-2.4497,-2.4497,-2.4497,-2.4497,-2.4497,-2.4497,-2.4497,-2.4497,-2.4621,-2.4859,-2.5357,-2.5723,-2.612,-2.6584,-2.6923,-2.7177,-2.7177,-2.6976,-2.687,-2.687,-2.637,-2.5664,-2.4865,-2.398,-2.3235,-2.2785,-2.1336,-2.0431,-2.0834,-1.9983,-1.9279,-1.9279,-1.9279,-1.9279,-1.9279,-1.9279,-1.9279,-1.9279,-1.9279,-1.9279,-1.9279,-1.9279,-1.9279,-1.9279,-1.9279,-1.9279,-1.9279,-1.9279,-1.948,-1.9835,-2.0351,-2.0609,0.0,-2.2808,-2.2646,-2.3003,-2.3091,-2.3091,-2.3091,-2.3091,0.0,-2.3091,-2.3319,-2.3523,-2.3583,-2.4307,-2.4931,-2.5053,-2.6347,-2.7517,-2.7955,-2.9156,-3.016,-3.0626,-3.0253,-2.9777,-2.9342,-2.9249,-2.8856,-2.7986,-2.8754,-2.9063,-2.8606,-2.9486,-2.9988,-2.9988,-2.9988,-2.9589,-2.8724,-2.8678,-2.8222,-2.7309,-2.7309,-2.7309,-2.7309,-2.7309,-2.7071,-2.6667,-2.6667,-2.6418,-2.5978,-2.5978,-2.5978,-2.5978,-2.5978,-2.6003,-2.5875,-2.5471,-2.5241,-2.5127,-2.4693,-2.4528,-2.4497,-2.4497,-2.4497,-2.4497,-2.4497,-2.4518,-2.4549,-2.4549,-2.4879,-2.5378,-2.5813,-2.6074,-2.6339,-2.6788,-2.69,-2.6853,-2.6805,-2.6352,-2.5994,-2.5945,-2.4688,-2.3642,-2.3543,-2.2089,-2.1234,-2.2139,-2.0585,-1.968,-2.0688,-1.9931,-1.9279,-1.9279,-1.9279,-1.9279,-1.9279,-1.9279,-1.9279,-1.9279,-1.9279,-1.9279,-1.9279,-1.9279,-1.9279,-1.9279,-1.9279,-1.9279,-1.9279,-1.9279,-1.9279,-1.9324,-1.9828,-2.0034,-2.3091,0.0,-2.2974,-2.3071,-2.3091,-2.3091,0.0,-2.3091,-2.3091,-2.3091,-2.3135,-2.3482,-2.4321,-2.4531,-2.5093,-2.6659,-2.7369,-2.8048,-2.8866,-2.957,-3.016,-3.0626,-2.9963,-2.9425,-2.9321,-2.8659,-2.8152,-2.7945,-2.7844,-2.7746,-2.7631,-2.7857,-2.7987,-2.7987,-2.7987,-2.8222,-2.8678,-2.8678,-2.8222,-2.7309,-2.7309,-2.7309,-2.7309,-2.7309,-2.7247,-2.7143,-2.7143,-2.7081,-2.6978,-2.6978,-2.6978,-2.6978,-2.6978,-2.677,-2.6438,-2.6289,-2.5823,-2.5168,-2.5065,-2.4797,-2.4497,-2.4497,-2.4497,-2.4454,-2.4335,-2.4625,-2.5024,-2.5024,-2.5388,-2.5834,-2.6335,-2.6496,-2.6553,-2.6836,-2.69,-2.6602,-2.5586,-2.5285,-2.4943,-2.4137,-2.3633,-2.3094,-2.2038,-2.1489,-2.0936,-2.0181,-1.9628,-1.9376,-1.9628,-1.948,-1.9279,-1.9279,-1.9279,-1.9279,-1.9279,-1.9279,-1.9279,-1.9279,-1.9279,-1.9279,-1.9279,-1.9279,-1.9279,-1.9279,-1.9279,-1.9279,-1.9279,-1.9279,-1.9279,-1.9279,-1.9428,-1.948,-2.3042,-2.3247,-2.3437,-2.3437,-2.3437,-2.3437,-2.3437,-2.3237,-2.3091,-2.3091,-2.3091,-2.3394,-2.434,-2.4871,-2.5593,-2.6995,-2.7955,-2.8876,-2.9808,-2.9973,-3.0087,-3.0336,-2.9735,-2.9135,-2.8711,-2.8214,-2.7841,-2.7634,-2.7396,-2.7309,-2.7309,-2.7309,-2.7309,-2.7309,-2.7309,-2.7536,-2.8034,-2.8034,-2.7809,-2.7309,-2.7309,-2.7309,-2.7309,-2.7309,-2.7309,-2.7309,-2.7309,-2.7309,-2.7309,-2.7309,-2.7309,-2.7309,-2.7309,-2.7154,-2.6905,-2.6687,-2.6268,-2.5782,-2.5334,-2.489,-2.4497,-2.4497,-2.4497,-2.4454,-2.4249,-2.4753,-2.5324,-2.5118,-2.5519,-2.612,-2.6506,-2.6594,-2.6574,-2.6686,-2.6602,-2.6245,-2.5294,-2.4688,-2.4097,-2.3302,-2.2391,-2.1582,-2.0885,-2.0534,-2.013,-1.9428,-1.9279,-1.9279,-1.9279,-1.9279,-1.9279,-1.9279,-1.9279,-1.9279,-1.9279,-1.9279,-1.9279,-1.9279,-1.9279,-1.9279,-1.9279,-1.9279,-1.9279,-1.9279,-1.9279,-1.9279,-1.9279,-1.9279,-1.9279,-1.9279,-1.9279,-1.9279,-2.2984,-2.3506,-2.3857,-2.3721,-2.374,-2.3769,-2.3711,-2.3408,-2.3091,-2.3091,-2.3149,-2.3462,-2.4346,-2.5301,-2.6202,-2.7069,-2.8388,-2.9632,-3.047,-3.018,-2.9891,-2.9891,-2.9415,-2.8783,-2.7997,-2.7862,-2.7665,-2.734,-2.7309,-2.7309,-2.7309,-2.7309,-2.7309,-2.7309,-2.7309,-2.7309,-2.7309,-2.7309,-2.7309,-2.7309,-2.7309,-2.7309,-2.7309,-2.7309,-2.7309,-2.7309,-2.7309,0.0,-2.7309,-2.7309,-2.7309,-2.7309,-2.7309,-2.7309,-2.7258,-2.6864,-2.6677,-2.6501,-2.5627,-2.5034,-2.4704,-2.4704,-2.4704,-2.4617,-2.441,-2.4893,-2.5427,-2.5096,-2.564,-2.6366,-2.6589,-2.6594,-2.6544,-2.6496,-2.6197,-2.5693,-2.4992,-2.4038,-2.3094,-2.2467,-2.1054,-1.9983,-1.9983,-1.9576,-1.9279,-1.9279,-1.9279,-1.9279,-1.9279,-1.9279,-1.9279,-1.9279,-1.9279,-1.9279,-1.9279,-1.9279,-1.9279,-1.9279,-1.9279,-1.9279,-1.9279,-1.9279,-1.9279,-1.9279,-1.9279,-1.9279,-1.9279,-1.9279,-1.9279,-1.9279,-1.9279,-1.9279,-2.2984,-2.3666,-2.4141,-2.3374,-2.3516,-2.3691,-2.3276,-2.314,-2.3091,-2.3091,-2.3437,-2.4134,-2.5538,-2.596,-2.6654,-2.8468,-2.9162,-2.9618,-3.0024,-2.9704,-2.9415,-2.9415,-2.8659,-2.8079,-2.7886,-2.7583,-2.7382,-2.7309,-2.7309,-2.7309,-2.7309,-2.7309,-2.7309,-2.7309,-2.7309,-2.7309,-2.7309,-2.7309,-2.7309,-2.7309,-2.7309,-2.7309,-2.7309,-2.7309,-2.7309,-2.7309,0.0,-2.7309,-2.7309,-2.7309,-2.7309,-2.7309,-2.7309,-2.7309,-2.7299,-2.7226,-2.6957,-2.6542,-2.5968,-2.573,-2.5678,-2.5678,-2.5544,-2.5294,-2.5113,-2.5227,-2.5421,-2.5418,-2.6061,-2.6798,-2.6836,-2.6849,-2.6805,-2.6544,-2.5596,-2.4384,-2.3185,-2.2089,-2.1038,-2.0034,-1.9635,-1.9428,-1.9428,-1.9324,-1.9279,-1.9279,-1.9279,-1.9279,-1.9279,-1.9279,-1.9279,-1.9279,-1.9279,-1.9279,-1.9279,-1.9279,-1.9279,-1.9279,-1.9279,-1.9279,-1.9279,-1.9279,-1.9279,-1.9279,-1.9279,-1.9279,-1.9279,-1.9279,-1.9279,-1.9279,-1.9279,-1.9279,-2.2685,-2.3428,-2.3984,-2.3584,-2.3984,-2.4434,-2.4228,-2.3994,-2.3783,-2.3783,-2.3984,-2.4545,-2.6056,-2.6542,-2.7351,-2.9257,-2.9679,-2.9755,-2.9653,-2.9435,-2.9114,-2.8618,-2.8183,-2.7821,-2.7583,-2.7423,-2.7309,-2.7309,-2.7309,-2.7309,-2.7309,-2.7309,-2.7309,-2.7309,-2.7309,-2.7309,-2.7309,-2.7309,-2.7309,-2.7309,-2.7309,-2.7309,-2.7309,-2.7309,-2.7309,-2.7309,0.0,-2.7309,-2.7309,-2.7309,-2.7309,-2.7309,-2.7309,-2.7309,-2.7262,-2.7129,-2.6794,-2.6362,-2.6156,-2.592,-2.5704,-2.584,-2.584,-2.5659,-2.5315,-2.5388,-2.5587,-2.5362,-2.5869,-2.6496,-2.6651,-2.6602,-2.6294,-2.5596,-2.4845,-2.389,-2.2391,-2.143,-2.0688,-1.9879,-1.948,-1.9279,-1.9279,-1.9279,-1.9279,-1.9279,-1.9279,-1.9279,-1.9279,-1.9279,-1.9279,-1.9279,-1.9279,-1.9279,-1.9279,-1.9279,-1.9279,-1.9279,-1.9279,-1.9279,-1.9279,-1.9279,-1.9279,-1.9279,-1.9279,-1.9279,-1.9279,-1.9279,-1.9279,-1.9279,-1.9279,-1.9279,-2.2402,-2.3144,-2.3789,-2.3789,-2.4287,-2.4871,-2.5067,-2.4727,-2.4473,-2.4678,-2.468,-2.5102,-2.6362,-2.7141,-2.8077,-2.9372,-2.9765,-2.9724,-2.9271,-2.9064,-2.8721,-2.8007,-2.7831,-2.7634,-2.734,-2.7309,-2.7309,-2.7309,-2.7309,-2.7309,-2.7309,-2.7309,-2.7309,-2.7309,-2.7309,-2.7309,-2.7309,-2.7309,-2.7309,-2.7309,-2.7309,-2.7309,-2.7309,-2.7309,-2.7309,-2.7309,-2.7309,-2.7309,-2.7309,-2.7309,-2.7309,-2.7309,-2.7309,-2.7309,-2.7262,-2.7081,-2.6723,-2.638,-2.638,-2.6155,-2.586,-2.6079,-2.6069,-2.5977,-2.5629,-2.5628,-2.57,-2.532,-2.5603,-2.6062,-2.6352,-2.6052,-2.5538,-2.4688,-2.389,-2.2985,-2.1785,-2.0979,-2.038,-1.9983,-1.9576,-1.9279,-1.9279,-1.9279,-1.9279,-1.9279,-1.9279,-1.9279,-1.9279,-1.9279,-1.9279,-1.9279,-1.9279,-1.9279,-1.9279,-1.9279,-1.9279,-1.9279,-1.9279,-1.9279,-1.9279,-1.9279,-1.9279,-1.9279,-1.9279,-1.9279,-1.9279,-1.9279,-1.9279,-1.9279,-1.9279,-1.9279,-2.2402,-2.3144,-2.3789,-2.3789,-2.3838,-2.4092,-2.494,-2.4727,-2.4648,-2.5421,-2.5596,-2.583,-2.6626,-2.7983,-2.8775,-2.8309,-2.8975,-2.9369,-2.8982,-2.8376,-2.7997,-2.7935,-2.7562,-2.734,-2.7309,-2.7309,-2.7309,-2.7309,-2.7309,-2.7309,-2.7309,-2.7309,-2.7309,-2.7309,-2.7309,-2.7309,-2.7309,-2.7309,-2.7309,-2.7309,-2.7309,-2.7309,-2.7309,-2.7309,-2.7309,-2.7309,-2.7309,-2.7309,-2.7309,-2.7309,-2.7309,-2.7309,-2.7309,-2.7309,-2.7309,-2.7262,-2.7109,-2.6849,-2.6849,-2.6829,-2.6798,-2.6798,-2.6645,-2.6454,-2.6406,-2.6099,-2.5693,-2.5693,-2.5713,-2.5781,-2.6052,-2.5392,-2.459,-2.4541,-2.2785,-2.1081,-2.0987,-2.013,-1.9376,-1.9383,-1.9331,-1.9279,-1.9279,-1.9279,-1.9279,-1.9279,-1.9279,-1.9279,-1.9279,-1.9279,-1.9279,-1.9279,-1.9279,-1.9279,-1.9279,-1.9279,-1.9279,-1.9279,-1.9279,-1.9279,-1.9279,-1.9279,-1.9279,-1.9279,-1.9279,-1.9279,-1.9279,-1.9279,-1.9279,-1.9279,-1.9279,-1.9279,-2.208,-2.2939,-2.3789,-2.3789,-2.3789,-2.4014,-2.492,-2.5156,-2.5362,-2.6016,-2.6143,-2.629,-2.6735,-2.7642,-2.8277,-2.8004,-2.836,-2.8564,-2.8175,-2.8004,-2.7821,-2.7541,-2.7413,-2.7309,-2.7309,-2.705,-2.6874,-2.6874,-2.6604,-2.6449,-2.6449,-2.6449,-2.6573,-2.6864,-2.6874,-2.7019,-2.7309,-2.7309,-2.7309,-2.7309,-2.7309,-2.7309,-2.7309,-2.7309,-2.7309,-2.7309,-2.7309,-2.7309,-2.7309,-2.7309,-2.7214,-2.7034,-2.7034,-2.7177,-2.7262,-2.6928,-2.6736,-2.6651,-2.6448,-2.6496,-2.6651,-2.6651,-2.6699,-2.6699,-2.6342,-2.61,-2.5917,-2.5732,-2.5693,-2.5732,-2.583,-2.505,-2.4088,-2.3384,-2.2038,-2.0731,-2.0034,-1.9583,-1.9279,-1.9279,-1.9279,-1.9279,-1.9279,-1.9279,-1.9279,-1.9279,-1.9279,-1.9279,-1.9279,-1.9279,-1.9279,-1.9279,-1.9279,-1.9279,-1.9279,-1.9279,-1.9279,-1.9279,-1.9279,-1.9279,-1.9279,-1.9279,-1.9279,-1.9279,-1.9279,-1.9279,-1.9279,-1.9279,-1.9279,-1.9279,-1.9279,-1.9279,-2.1885,-2.2715,-2.3613,-2.375,-2.3789,-2.4014,-2.492,-2.5303,-2.5732,-2.6435,-2.6484,-2.6397,-2.6438,-2.7073,-2.7523,-2.7432,-2.7663,-2.7791,-2.7486,-2.7518,-2.7507,-2.7293,-2.7175,-2.7092,-2.7092,-2.6667,-2.6397,-2.6397,-2.6061,-2.5875,-2.5875,-2.5875,-2.6065,-2.6387,-2.6542,-2.677,-2.7092,-2.7237,-2.7309,-2.7309,-2.7309,-2.7309,-2.7309,-2.7309,-2.7309,-2.7309,-2.7309,-2.7262,-2.7167,-2.7167,-2.7034,-2.6747,-2.6747,-2.6938,-2.7129,-2.6688,-2.6496,-2.6448,-2.6197,-2.6197,-2.6342,-2.6342,-2.6496,-2.6602,-2.6197,-2.6052,-2.5965,-2.5732,-2.5479,-2.5167,-2.5167,-2.4402,-2.3335,-2.224,-2.1183,-2.0181,-1.948,-1.9279,-1.9279,-1.9279,-1.9279,-1.9279,-1.9279,-1.9279,-1.9279,-1.9279,-1.9279,-1.9279,-1.9279,-1.9279,-1.9279,-1.9279,-1.9279,-1.9279,-1.9279,-1.9279,-1.9279,-1.9279,-1.9279,-1.9279,-1.9279,-1.9279,-1.9279,-1.9279,-1.9279,-1.9279,-1.9279,-1.9279,-1.9279,-1.9279,-1.9279,-1.9279,-2.1885,-2.25,-2.3208,-2.3682,-2.3799,-2.4014,-2.492,-2.5116,-2.5439,-2.6738,-2.668,-2.625,-2.5771,-2.632,-2.6705,-2.6427,-2.6814,-2.715,-2.7081,-2.6962,-2.6986,-2.7251,-2.6895,-2.6604,-2.6604,-2.619,-2.5875,-2.5875,-2.591,-2.591,-2.591,-2.591,-2.591,-2.5875,-2.6366,-2.6615,-2.6615,-2.7081,-2.7309,-2.7309,-2.7309,-2.7309,-2.7309,-2.7309,-2.7309,-2.7309,-2.7309,-2.7177,-2.69,-2.69,-2.6747,-2.6496,-2.6496,-2.6651,-2.6853,-2.6602,-2.6496,-2.6448,-2.6197,-2.61,-2.61,-2.61,-2.61,-2.61,-2.61,-2.5917,-2.5693,-2.5693,-2.4913,-2.4088,-2.4088,-2.3285,-2.224,-2.1132,-2.0078,-1.9279,-1.9279,-1.9279,-1.9279,-1.9279,-1.9279,-1.9279,-1.9279,-1.9279,-1.9279,-1.9279,-1.9279,-1.9279,-1.9279,-1.9331,-1.9324,-1.9279,-1.9331,-1.9324,-1.9279,-1.9279,-1.9279,-1.9279,-1.9279,-1.9279,-1.9279,-1.9279,-1.9279,-1.9279,-1.9279,-1.9279,-1.9279,-1.9279,-1.9279,-1.9279,-1.9279,-1.9279,-2.1963,-2.2725,-2.3633,-2.376,-2.4014,-2.4375,-2.4988,-2.5312,-2.5732,-2.6435,-2.6475,-2.625,-2.5771,-2.5889,-2.6026,-2.5928,-2.5954,-2.5986,-2.5986,-2.5993,-2.6008,-2.609,-2.6094,-2.6127,-2.6127,-2.5678,-2.543,-2.543,-2.5075,-2.4933,-2.4933,-2.4933,-2.5088,-2.5409,-2.5854,-2.6293,-2.6615,-2.7081,-2.7309,-2.7309,-2.7309,-2.7309,-2.7309,-2.7309,-2.7309,-2.7309,-2.7309,-2.7177,-2.6853,-2.6496,-2.64,-2.6496,-2.6294,-2.64,-2.6602,-2.6294,-2.6197,-2.6197,-2.5917,-2.5965,-2.6052,-2.5868,-2.5965,-2.6052,-2.5868,-2.5781,-2.5693,-2.5693,-2.4913,-2.4088,-2.4088,-2.3285,-2.224,-2.1132,-2.0078,-1.9279,-1.9279,-1.9279,-1.9279,-1.9279,-1.9279,-1.9279,-1.9279,-1.9279,-1.9279,-1.9279,-1.9279,-1.9279,-1.9279,-1.9983,-2.013,-1.9376,-1.9983,-2.013,-1.9376,-1.9279,-1.9279,-1.9279,-1.9279,-1.9279,-1.9279,-1.9279,-1.9279,-1.9279,-1.9279,-1.9279,-1.9279,-1.9279,-1.9279,-1.9279,-1.9279,-1.9279,-2.2158,-2.2822,-2.3613,-2.3955,-2.4228,-2.4531,-2.4971,-2.541,-2.5762,-2.6074,-2.6133,-2.5996,-2.5547,-2.5469,-2.542,-2.5187,-2.5132,-2.5095,-2.5198,-2.5257,-2.5326,-2.5427,-2.538,-2.5347,-2.5347,-2.4904,-2.4648,-2.4648,-2.4393,-2.4282,-2.4368,-2.4368,-2.4545,-2.49,-2.5388,-2.5834,-2.6335,-2.6801,-2.7123,-2.7309,-2.7167,-2.7129,-2.7129,-2.7262,-2.7262,-2.7129,-2.6928,-2.6736,-2.6554,-2.611,-2.6062,-2.6169,-2.6014,-2.61,-2.6304,-2.6062,-2.6004,-2.6052,-2.5781,-2.583,-2.5917,-2.5732,-2.583,-2.5917,-2.5732,-2.5382,-2.5069,-2.5069,-2.4304,-2.3434,-2.3434,-2.2693,-2.1684,-2.103,-2.0439,-1.9828,-1.9376,-1.9279,-1.9279,-1.9279,-1.9279,-1.9279,-1.9279,-1.9279,-1.9279,-1.9279,-1.9279,-1.9279,-1.9279,-2.0233,-2.0483,-1.9428,-2.0285,-2.0483,-1.9376,-1.968,-1.9724,-1.9331,-1.968,-1.9732,-1.9324,-1.9279,-1.9279,-1.9279,-1.9279,-1.9279,-1.9279,-1.9279,-1.9279,-1.9279,-1.9279,-1.9279,-2.2412,-2.2808,-2.3354,-2.4209,-2.4443,-2.458,-2.498,-2.5352,-2.5567,-2.5567,-2.5567,-2.5498,-2.5078,-2.5057,-2.4883,-2.4482,-2.4385,-2.4411,-2.4651,-2.4703,-2.4774,-2.5012,-2.4696,-2.4454,-2.4454,-2.4038,-2.3797,-2.3797,-2.3797,-2.3894,-2.4153,-2.4163,-2.4239,-2.4411,-2.4898,-2.5331,-2.5768,-2.6264,-2.6729,-2.7152,-2.6924,-2.6812,-2.6853,-2.7129,-2.7081,-2.6853,-2.6294,-2.61,-2.61,-2.583,-2.5693,-2.5693,-2.5693,-2.5868,-2.6052,-2.5781,-2.5868,-2.6052,-2.5781,-2.5693,-2.5693,-2.5693,-2.5693,-2.5684,-2.5586,-2.4864,-2.4088,-2.3989,-2.3235,-2.2484,-2.2484,-2.1785,-2.1038,-2.0936,-2.0834,-2.0483,-1.9524,-1.9279,-1.9279,-1.9279,-1.9279,-1.9279,-1.9279,-1.9376,-1.9428,-1.9428,-1.9376,-1.9279,-1.9279,-2.0336,-2.0585,-1.9428,-2.0336,-2.0629,-1.9532,-2.0336,-2.0483,-1.9532,-2.038,-2.0431,-1.9324,-1.9279,-1.9279,-1.9279,-1.9279,-1.9279,-1.9279,-1.9279,-1.9279,-1.9279,-1.9279,-1.9279,-2.249,-2.3066,-2.3769,-2.4287,-2.4678,-2.4998,-2.5096,-2.4883,-2.4697,-2.4697,-2.4697,-2.4668,-2.458,-2.456,-2.4521,-2.4434,-2.4141,-2.3971,-2.4016,-2.3856,-2.3781,-2.3869,-2.3921,-2.3938,-2.3938,-2.3847,-2.3797,-2.3797,-2.3797,-2.3841,-2.3884,-2.3894,-2.3927,-2.397,-2.4415,-2.4688,-2.4779,-2.5568,-2.6013,-2.6114,-2.6067,-2.6212,-2.6602,-2.664,-2.664,-2.6554,-2.6245,-2.61,-2.61,-2.583,-2.5693,-2.5693,-2.5693,-2.5732,-2.5781,-2.5732,-2.5732,-2.5781,-2.5732,-2.5693,-2.5693,-2.5693,-2.5693,-2.5538,-2.4707,-2.4295,-2.3939,-2.3085,-2.2685,-2.2484,-2.2484,-2.2341,-2.1937,-2.1081,-2.0285,-1.9576,-1.9331,-1.9279,-1.9279,-1.9279,-1.9279,-1.9279,-1.9279,-1.9983,-2.0585,-2.0585,-1.9828,-1.9279,-1.9279,-2.0987,-2.1438,-1.948,-2.103,-2.1735,-2.0637,-2.0783,-2.0783,-2.0585,-2.0783,-2.0431,-1.9324,-1.9279,-1.9279,-1.9279,-1.9279,-1.9279,-1.9279,-1.9279,-1.9279,-1.9279,-1.9279,-1.9279,-2.2705,-2.3135,-2.3584,-2.4014,-2.459,-2.5008,-2.4551,-2.4277,-2.4053,-2.3803,-2.4131,-2.4355,-2.415,-2.4111,-2.4053,-2.3793,-2.3623,-2.3477,-2.3477,-2.3369,-2.3319,-2.3319,-2.3406,-2.344,-2.344,-2.344,-2.344,-2.344,-2.344,-2.3537,-2.3667,-2.3677,-2.3711,-2.3797,-2.4018,-2.4293,-2.4515,-2.4967,-2.5299,-2.552,-2.5371,-2.5398,-2.5533,-2.5847,-2.5922,-2.5674,-2.5419,-2.5277,-2.5297,-2.538,-2.542,-2.5439,-2.5606,-2.5693,-2.5693,-2.5693,-2.5693,-2.5635,-2.5118,-2.5274,-2.5635,-2.5118,-2.4913,-2.4815,-2.4245,-2.3384,-2.2534,-2.2484,-2.2139,-2.1836,-2.2391,-2.2139,-2.1582,-2.103,-2.0483,-1.9931,-1.9428,-1.9279,-1.9279,-1.9279,-1.9279,-1.948,-1.9983,-2.0534,-2.0885,-2.0885,-1.9983,-1.9279,-1.9279,-2.1183,-2.1684,-1.9532,-2.1234,-2.2089,-2.0979,-2.1387,-2.1438,-2.0936,-2.1387,-2.0936,-1.9383,-1.9279,-1.9279,-1.9279,-1.9279,-1.9279,-1.9279,-1.9279,-1.9279,-1.9279,-1.9279,-1.9279,-2.2672,-2.2984,-2.3218,-2.3769,-2.4375,-2.4705,-2.3955,-2.373,-2.3574,-2.3169,-2.3656,-2.4092,-2.374,-2.3682,-2.3555,-2.3149,-2.3091,-2.3091,-2.3091,-2.3091,-2.3091,-2.3091,-2.3091,-2.3091,-2.3091,-2.3091,-2.3091,-2.3091,-2.3091,-2.3188,-2.3416,-2.3406,-2.3493,-2.3667,-2.3667,-2.3891,-2.4251,-2.4341,-2.4561,-2.4977,-2.4808,-2.4529,-2.4209,-2.4891,-2.5023,-2.47,-2.4516,-2.4414,-2.4443,-2.4805,-2.4998,-2.5,-2.5449,-2.5625,-2.5586,-2.5664,-2.5586,-2.5274,-2.4402,-2.4658,-2.5274,-2.4146,-2.3939,-2.4038,-2.3642,-2.2291,-2.1038,-2.1735,-2.1438,-2.1038,-2.1785,-2.1438,-2.0834,-2.0688,-2.0637,-2.038,-1.948,-1.9279,-1.9279,-1.9279,-1.9279,-1.968,-2.0987,-2.0885,-2.0739,-2.1132,-2.0138,-1.9383,-1.9524,-2.1285,-2.1735,-1.9783,-2.1336,-2.2139,-2.1234,-2.1988,-2.2139,-2.1234,-2.1988,-2.154,-1.9376,-1.9279,-1.9279,-1.9279,-1.9279,-1.9279,-1.9279,-1.9279,-1.9279,-1.9279,-1.9279,-1.9279,-2.1924,-2.2598,-2.335,-2.4141,-2.415,-2.3926,-2.3818,-2.3496,-2.3169,-2.311,-2.3188,-2.3247,-2.3198,-2.3179,-2.3159,-2.311,-2.3091,-2.3091,-2.3091,-2.3091,-2.3091,-2.3091,-2.3091,-2.3091,-2.3091,-2.3091,-2.3091,-2.3091,-2.3091,-2.3135,-2.3135,-2.3135,-2.3188,-2.3188,-2.3188,-2.3208,-2.3266,-2.3693,-2.3908,-2.3967,-2.4294,-2.4023,-2.3276,-2.3805,-2.4176,-2.446,-2.4414,-2.4414,-2.4424,-2.4482,-2.4502,-2.4551,-2.499,-2.5156,-2.5205,-2.5596,-2.5118,-2.4295,-2.4137,-2.4196,-2.4146,-2.3035,-2.3335,-2.3741,-2.1887,-2.114,-2.0731,-1.9931,-2.0277,-2.0731,-1.9931,-2.0328,-2.0688,-1.9732,-1.9524,-1.948,-1.9324,-1.9279,-1.9279,-1.9279,-1.9279,-1.9931,-2.1937,-2.0731,-2.013,-2.1988,-2.0585,-1.9628,-2.0585,-2.1735,-2.2038,-2.0834,-2.1785,-2.2433,-2.2291,-2.2433,-2.2433,-2.2291,-2.2433,-2.154,-1.9376,-1.9279,-1.9279,-1.9279,-1.9279,-1.9279,-1.9279,-1.9279,-1.9279,-1.9279,-1.9279,-1.9279,-2.2051,-2.2861,-2.3545,-2.3672,-2.374,-2.3721,-2.3486,-2.3227,-2.3091,-2.3091,-2.3091,-2.3091,-2.3091,-2.3091,-2.3091,-2.3091,-2.3091,-2.3091,-2.3091,-2.3091,-2.3091,-2.3091,-2.3091,-2.3091,-2.3091,-2.3091,-2.3091,-2.3091,-2.3091,-2.3091,-2.3091,-2.3091,-2.3091,-2.3091,-2.3091,-2.3091,-2.3091,-2.3286,-2.3428,-2.3428,-2.3613,-2.3461,-2.3101,-2.3296,-2.3481,-2.3656,-2.3656,-2.3656,-2.3676,-2.3965,-2.4062,-2.4111,-2.4541,-2.4697,-2.468,-2.4345,-2.4018,-2.366,-2.3104,-2.3058,-2.3144,-2.2634,-2.2383,-2.2139,-2.1183,-2.0483,-2.0027,-2.0181,-2.0078,-2.0027,-2.0181,-2.0078,-1.9879,-1.9428,-1.9279,-1.9279,-1.9279,-1.9279,-1.9279,-1.9279,-1.9783,-2.0688,-2.2232,-2.1234,-2.0731,-2.2291,-2.1183,-2.0388,-2.0834,-2.2341,-2.2735,-2.1081,-2.2391,-2.3135,-2.2534,-2.3035,-2.3135,-2.2534,-2.2484,-2.154,-1.9376,-1.9279,-1.9279,-1.9279,-1.9279,-1.9279,-1.9279,-1.9279,-1.9279,-1.9279,-1.9279,-1.9279,-2.2119,-2.2822,-2.3281,-2.312,-2.3379,-2.3545,-2.3169,-2.3091,-2.3091,-2.3091,-2.3091,-2.3091,-2.3091,-2.3091,-2.3091,-2.3091,-2.3091,-2.3091,-2.3091,-2.3091,-2.3091,-2.3091,-2.3091,-2.3091,-2.3091,-2.3091,-2.3091,-2.3091,-2.3091,-2.3091,-2.3091,-2.3091,-2.3091,-2.3091,-2.3091,-2.3091,-2.3091,-2.3091,-2.3091,-2.3091,-2.3091,-2.3091,-2.3091,-2.3091,-2.3091,-2.3091,-2.3091,-2.3091,-2.312,-2.3486,-2.3623,-2.3662,-2.4092,-2.411,-2.3788,-2.3233,-2.2994,-2.2826,-2.1893,-2.1909,-2.2264,-2.1811,-2.1336,-2.0834,-2.0585,-1.9931,-1.948,-2.0285,-1.9931,-1.948,-2.0285,-1.9879,-1.9279,-1.9279,-1.9279,-1.9279,-1.9279,-1.9279,-1.9279,-1.9279,-2.0181,-2.1234,-2.2341,-2.1836,-2.1582,-2.2391,-2.1836,-2.1285,-2.1285,-2.2935,-2.3493,-2.1887,-2.3144,-2.3791,-2.2985,-2.3642,-2.3642,-2.2593,-2.2484,-2.154,-1.9376,-1.9279,-1.9279,-1.9279,-1.9279,-1.9279,-1.9279,-1.9279,-1.9279,-1.9279,-1.9279,-1.9279,-2.168,-2.1953,-2.2168,-2.2906,-2.311,-2.312,-2.3101,-2.3091,-2.3091,-2.3091,-2.3091,-2.3091,-2.3091,-2.3091,-2.3091,-2.3091,-2.3091,-2.3091,-2.3091,-2.3091,-2.3091,-2.3091,-2.3091,-2.3091,-2.3091,-2.3091,-2.3091,-2.3091,-2.3091,-2.3091,-2.3091,-2.3091,-2.3091,-2.3091,-2.3091,-2.3091,-2.3091,-2.3091,-2.3091,-2.3091,-2.3091,-2.3091,-2.3091,-2.3091,-2.3091,-2.3091,-2.3091,-2.3091,-2.3091,-2.312,-2.313,-2.3169,-2.3652,-2.3257,-2.2456,-2.2842,-2.2386,-2.14,-2.0728,-2.1106,-2.1684,-1.9979,-2.013,-2.0731,-1.968,-1.9324,-1.9324,-1.9383,-1.9324,-1.9324,-1.9383,-1.9324,-1.9279,-1.9279,-1.9279,-1.9279,-1.9279,-1.9279,-1.9279,-1.9279,-2.0181,-2.1234,-2.2341,-2.2433,-2.2433,-2.2484,-2.2433,-2.2433,-2.2433,-2.3384,-2.4038,-2.3939,-2.4038,-2.4088,-2.4038,-2.4088,-2.3642,-2.2593,-2.2484,-2.154,-1.9376,-1.9279,-1.9279,-1.9279,-1.9279,-1.9279,-1.9279,-1.9279,-1.9279,-1.9279,-1.9279,-1.9279,-2.1377,-2.1875,-2.2353,-2.2656,-2.2896,-2.3091,-2.3091,-2.3091,-2.3091,-2.3091,-2.3091,-2.3091,-2.3091,-2.3091,-2.3091,-2.3091,-2.3091,-2.3091,-2.3091,-2.3091,-2.3091,-2.3091,-2.3091,-2.3091,-2.3091,-2.3091,-2.3091,-2.3091,-2.3091,-2.3091,-2.3091,-2.3091,-2.3091,-2.3091,-2.3091,-2.3091,-2.3091,-2.3091,-2.3091,-2.3091,-2.3091,-2.3091,-2.3091,-2.3091,-2.3091,-2.3091,-2.3091,-2.3091,-2.3091,-2.3091,-2.3091,-2.3067,-2.2628,-2.2229,-2.1789,-2.0683,-2.019,-2.0035,-1.983,-1.9832,-1.9942,-1.9965,-1.9954,-1.9776,-1.9428,-1.9279,-1.9279,-1.9279,-1.9279,-1.9279,-1.9279,-1.9279,-1.9279,-1.9279,-1.9279,-1.9279,-1.9279,-1.9279,-1.9279,-1.9279,-2.0181,-2.1234,-2.2341,-2.2484,-2.2735,-2.3434,-2.3543,-2.3543,-2.3543,-2.4461,-2.4864,-2.4187,-2.4707,-2.4864,-2.4137,-2.4707,-2.4658,-2.3592,-2.2885,-2.2139,-2.1387,-2.068,-2.0336,-2.0336,-2.0336,-1.9983,-1.9279,-1.9279,-1.9279,-1.9279,-1.9279,-1.9279,-2.1151,-2.1609,-2.2107,-2.2441,-2.2682,-2.2925,-2.3062,-2.3091,-2.3091,-2.3091,-2.3091,-2.3091,-2.3091,-2.3091,-2.3091,-2.3091,-2.3091,-2.3091,-2.3091,-2.3091,-2.3091,-2.3091,-2.3091,-2.3091,-2.3091,-2.3091,-2.3091,-2.3091,-2.3091,-2.3091,-2.3091,-2.3091,-2.3091,-2.3091,-2.3091,-2.3091,-2.3091,-2.3091,-2.3091,-2.3091,-2.3091,-2.3091,-2.3091,-2.3091,-2.3091,-2.3091,-2.3091,-2.3091,-2.3091,-2.3091,-2.3091,-2.3003,-2.2059,-2.1472,-2.1006,-1.9376,-1.8939,-1.9114,-1.8941,-1.8982,-1.923,-1.9687,-1.9607,-1.9279,-1.9279,-1.9279,-1.9279,-1.9279,-1.9279,-1.9279,-1.9279,-1.9279,-1.9279,-1.9279,-1.9279,-1.9279,-1.9279,-1.9279,-1.9279,-1.9279,-2.0181,-2.1234,-2.2341,-2.2785,-2.3135,-2.3493,-2.4196,-2.4402,-2.3642,-2.4815,-2.543,-2.4707,-2.5274,-2.543,-2.4707,-2.5274,-2.5079,-2.3642,-2.3235,-2.2685,-2.1988,-2.1285,-2.0885,-2.0885,-2.0534,-2.0027,-1.9279,-1.9279,-1.9279,-1.9279,-1.9279,-1.9279,0.0,0.0,0.0,-2.2285,-2.251,-2.2637,-2.3003,-2.3091,-2.3091,-2.3091,-2.3091,-2.3091,-2.3091,-2.3091,-2.3091,-2.3091,-2.3091,-2.3091,-2.3091,-2.3091,-2.3091,-2.3091,-2.3091,-2.3091,-2.3091,-2.3091,-2.3091,-2.3091,-2.3091,-2.3091,-2.3091,-2.3091,-2.3091,-2.3091,-2.3091,-2.3091,-2.3091,-2.3091,-2.3091,-2.3091,-2.3091,-2.3091,-2.3091,-2.3091,-2.3091,-2.3091,-2.3091,-2.3091,-2.3091,-2.3091,-2.3091,-2.296,-2.2015,-2.1051,-2.0051,-1.9109,-1.8742,-1.8658,-1.8018,-1.8636,-1.9664,-1.9017,-1.9001,-1.9279,-1.9279,-1.9279,-1.9279,-1.9279,-1.9279,-1.9279,-1.9279,-1.9279,-1.9279,-1.9279,-1.9279,-1.9279,-1.9279,-1.9279,-1.9279,-1.9279,-2.0181,-2.1234,-2.2341,-2.3393,-2.3741,-2.2685,-2.4362,-2.4922,-2.2844,-2.4412,-2.5693,-2.5693,-2.5693,-2.5693,-2.5693,-2.5693,-2.4824,-2.2685,-2.3543,-2.3194,-2.1081,-2.0979,-2.0987,-2.0936,-1.9931,-1.9376,-1.9279,-1.9279,-1.9279,-1.9279,-1.9279,-1.9279,-2.0752,0.0,0.0,0.0,0.0,0.0,-2.3062,-2.3091,-2.3091,-2.3091,-2.3091,-2.3091,-2.3091,-2.3091,-2.3091,-2.3091,-2.3091,-2.3091,-2.3091,-2.3091,-2.3091,-2.3091,-2.3091,-2.3091,-2.3091,-2.3091,-2.3091,-2.3091,-2.3091,-2.3091,-2.3091,-2.3091,-2.3091,-2.3091,-2.3091,-2.3091,-2.3091,-2.3091,-2.3091,-2.3091,-2.3091,-2.3091,-2.3091,-2.3091,-2.3091,-2.3091,-2.3091,-2.3091,-2.3091,-2.3091,-2.2687,-2.2006,-2.1006,-2.0005,-1.9055,-1.8056,-1.7692,-1.7707,-1.7522,-1.8015,-1.8701,-1.8508,-1.8818,-1.9279,-1.9279,-1.9279,-1.9279,-1.9279,-1.9279,-1.9279,-1.9279,-1.9279,-1.9279,-1.9279,-1.9279,-1.9279,-1.9279,-1.9279,-1.9279,-1.9279,-2.0181,-2.1234,-2.2341,-2.3393,-2.3989,-2.3692,-2.4815,-2.5226,-2.384,-2.4864,-2.5693,-2.5693,-2.5693,-2.5693,-2.5693,-2.5693,-2.5118,-2.3741,-2.3939,-2.384,-2.3235,-2.3185,-2.2844,-2.2089,-2.1785,-2.0834,-1.9279,-1.9279,-1.9279,-1.9279,-1.9279,-1.9279,-2.084,-2.1221,-2.1699,-2.206,0.0,0.0,-2.3052,-2.3091,-2.3091,-2.3091,-2.3091,-2.3091,-2.3091,-2.3091,-2.3091,-2.3091,-2.3091,-2.3091,-2.3091,-2.3091,-2.3091,-2.3091,-2.3091,-2.3091,-2.3091,-2.3091,-2.3091,-2.3091,-2.3091,-2.3091,-2.3091,-2.3091,-2.3091,-2.3091,-2.3091,-2.3091,-2.3091,-2.3091,-2.3091,-2.3091,-2.3091,-2.3091,-2.3091,-2.3091,-2.3091,-2.3091,-2.3091,-2.3091,-2.3091,-2.3091,-2.2555,-2.1606,-2.0602,-1.965,-1.8703,-1.7645,-1.7279,-1.7279,-1.7279,-1.7757,-1.8299,-1.8299,-1.8745,-1.9279,-1.9279,-1.9279,-1.9279,-1.9279,-1.9279,-1.9279,-1.9279,-1.9279,-1.9279,-1.9279,-1.9279,-1.9279,-1.9279,-1.9279,-1.9279,-1.9279,-1.9776,-2.0731,-2.224,-2.3035,-2.3592,-2.4038,-2.5011,-2.5323,-2.4245,-2.502,-2.5693,-2.5693,-2.5693,-2.5693,-2.5693,-2.5693,-2.5226,-2.4187,-2.4501,-2.4559,-2.4137,-2.4088,-2.3592,-2.2534,-2.2038,-2.0987,-1.9279,-1.9279,-1.9279,-1.9279,-1.9279,-1.9279,-2.1268,-2.1298,-2.1522,-2.2324,-2.2549,0.0,-2.3013,-2.3091,-2.3091,-2.3091,-2.3091,-2.3091,-2.3091,-2.3091,-2.3091,-2.3091,-2.314,-2.3169,-2.3169,-2.312,-2.311,-2.3159,-2.312,-2.3091,-2.3091,-2.3091,-2.3091,-2.3091,-2.3091,-2.3091,-2.3091,-2.3091,-2.3091,-2.3091,-2.3091,-2.3091,-2.3091,-2.3091,-2.3091,-2.3091,-2.3091,-2.3091,-2.3091,-2.3091,-2.3091,-2.3091,-2.3091,-2.3091,-2.3091,-2.3091,-2.2555,-2.1606,-2.0737,-1.9741,-1.8696,-1.7785,-1.7419,-1.7279,-1.7279,-1.7735,-1.8255,-1.8291,-1.8723,-1.9228,-1.9264,-1.9279,-1.9279,-1.9279,-1.9279,-1.9279,-1.9279,-1.9279,-1.9279,-1.9279,-1.9279,-1.9279,-1.9279,-1.9279,-1.9279,-1.9279,-1.9279,-1.9983,-2.2139,-2.2484,-2.2835,-2.3939,-2.5011,-2.5323,-2.4245,-2.502,-2.5693,-2.5693,-2.5693,-2.5693,-2.5693,-2.5693,-2.5226,-2.4187,-2.5118,-2.5226,-2.4137,-2.4196,-2.3741,-2.2534,-2.1336,-2.0233,-1.9279,-1.9279,-1.9279,-1.9279,-1.9279,-1.9279,-2.1799,-2.2002,-2.2305,-2.2471,-2.2721,0.0,-2.3081,-2.3091,-2.3091,-2.3091,-2.3091,-2.3091,-2.3091,-2.3091,-2.3091,-2.3091,-2.3437,-2.3662,-2.3662,-2.3359,-2.3227,-2.3623,-2.3305,-2.3091,-2.3091,-2.3091,-2.3091,-2.3091,-2.3091,-2.3091,-2.3091,-2.3091,-2.3091,-2.3091,-2.3091,-2.3091,-2.3091,-2.3091,-2.3091,-2.3091,-2.3091,-2.3091,-2.3091,-2.3091,-2.3091,-2.3091,-2.3091,-2.3091,-2.3091,-2.3091,-2.2555,-2.1695,-2.1463,-2.0331,-1.8788,-1.8557,-1.8017,-1.7279,-1.7279,-1.7582,-1.7955,-1.8218,-1.8562,-1.8935,-1.9199,-1.9279,-1.9279,-1.9279,-1.9279,-1.9279,-1.9279,-1.9279,-1.9279,-1.9279,-1.9279,-1.9279,-1.9279,-1.9279,-1.9279,-1.9279,-1.9279,-1.9983,-2.2139,-2.2484,-2.2835,-2.3939,-2.5011,-2.5323,-2.4245,-2.502,-2.5693,-2.5693,-2.5693,-2.5693,-2.5693,-2.5693,-2.5226,-2.4187,-2.5118,-2.5226,-2.4137,-2.4913,-2.447,-2.2534,-2.0585,-1.9532,-1.9279,-1.9279,-1.9279,-1.9279,-1.9279,-1.9279,-2.2281,-2.2353,-2.2568,-2.273,-2.2945,0.0,0.0,-2.3091,-2.3091,-2.3091,-2.2925,-2.2847,-2.3052,-2.2925,-2.2847,-2.3062,-2.3276,-2.3545,-2.376,-2.3779,-2.3779,-2.3789,-2.3594,-2.3379,-2.312,-2.3091,-2.3091,-2.3091,-2.3091,-2.3091,-2.3091,-2.3091,-2.3091,-2.3091,-2.3091,-2.3091,-2.3091,-2.3091,-2.3091,-2.3091,-2.3091,-2.3091,-2.3091,-2.3091,-2.3091,-2.3091,-2.3091,-2.3091,-2.3091,-2.3091,-2.2828,-2.2369,-2.1872,-2.0782,-1.9422,-1.8972,-1.8473,-1.7963,-1.7466,-1.7545,-1.7845,-1.8006,-1.8284,-1.8577,-1.8738,-1.8906,-1.9067,-1.9228,-1.9279,-1.9279,-1.9279,-1.9279,-1.9279,-1.9279,-1.9279,-1.9279,-1.9279,-1.9279,-1.9279,-1.9279,-1.9279,-1.9983,-2.2139,-2.2484,-2.3044,-2.4658,-2.5382,-2.5528,-2.4962,-2.5382,-2.5693,-2.5693,-2.5693,-2.5693,-2.5693,-2.5693,-2.5479,-2.4913,-2.4913,-2.4913,-2.4913,-2.4913,-2.4156,-2.2534,-2.038,-1.9279,-1.9279,-1.9279,-1.9279,-1.9279,-1.9279,-1.9279,-2.2679,-2.2637,-2.2672,-2.3013,-2.3091,-2.3091,0.0,0.0,0.0,-2.3091,-2.2828,-2.2691,-2.3033,-2.2818,-2.2701,-2.3042,-2.3169,-2.3389,-2.374,-2.415,-2.4258,-2.3838,-2.3711,-2.3525,-2.313,-2.3091,-2.3091,-2.3091,-2.3091,-2.3091,-2.3091,-2.3091,-2.3091,-2.3091,-2.3091,-2.3091,-2.3091,-2.3091,-2.3091,-2.3091,-2.3091,-2.3091,-2.3091,-2.3091,-2.3091,-2.3091,-2.3091,-2.3091,-2.3091,-2.3091,-2.3091,-2.3003,-2.228,-2.1239,-2.0096,-1.933,-1.8834,-1.838,-1.7606,-1.7501,-1.7728,-1.7794,-1.8035,-1.8299,-1.8299,-1.8482,-1.8752,-1.9016,-1.9133,-1.9184,-1.9184,-1.9228,-1.9279,-1.9279,-1.9279,-1.9279,-1.9279,-1.9279,-1.9279,-1.9279,-1.9279,-1.9983,-2.2139,-2.2484,-2.3253,-2.5382,-2.5693,-2.5693,-2.5693,-2.5693,-2.5693,-2.5693,-2.5693,-2.5693,-2.5693,-2.5693,-2.5586,-2.5382,-2.4756,-2.4707,-2.5382,-2.4353,-2.3384,-2.2534,-2.038,-1.9279,-1.9279,-1.9279,-1.9279,-1.9279,-1.9279,-1.9279,-2.3153,-2.3023,-2.3033,-2.3081,-2.3091,-2.3091,-2.3091,0.0,-2.3091,-2.3091,0.0,-2.3042,-2.3081,0.0,0.0,-2.3091,-2.3467,-2.373,-2.3779,-2.415,-2.4258,-2.3838,-2.3447,-2.3149,-2.3101,-2.3091,-2.3091,-2.3091,-2.3091,-2.3091,-2.3091,-2.3091,-2.3091,-2.3091,-2.3091,-2.3091,-2.3091,-2.3091,-2.3091,-2.3091,-2.3091,-2.3091,-2.3091,-2.3091,-2.3091,-2.3091,-2.3091,-2.3091,-2.3091,-2.3091,-2.3091,-2.3101,-2.296,-2.1819,-2.0187,-2.0096,-1.8964,-1.7466,-1.7326,-1.7308,-1.7428,-1.7721,-1.8035,-1.8299,-1.8299,-1.8328,-1.8364,-1.8401,-1.8621,-1.8847,-1.8847,-1.906,-1.9279,-1.9279,-1.9279,-1.9279,-1.9279,-1.9279,-1.9279,-1.9279,-1.9279,-1.9983,-2.2139,-2.2484,-2.3253,-2.5382,-2.5693,-2.5693,-2.5693,-2.5693,-2.5693,-2.5693,-2.5693,-2.5693,-2.5693,-2.5693,-2.5274,-2.4344,-2.5069,-2.5167,-2.4295,-2.3244,-2.2634,-2.2484,-2.038,-1.9279,-1.9279,-1.9279,-1.9279,-1.9279,-1.9279,-1.9279,-2.3163,-2.3091,-2.3091,-2.3091,-2.3091,-2.3091,-2.3091,-2.3091,-2.3091,-2.3091,0.0,0.0,0.0,0.0,0.0,0.0,-2.3247,-2.3408,-2.3408,-2.352,-2.3656,-2.3779,-2.3633,-2.3418,-2.312,-2.3091,-2.3091,-2.3091,-2.3091,-2.3091,-2.3091,-2.3091,-2.3091,-2.3091,-2.3091,-2.3091,-2.3091,-2.3091,-2.3091,-2.3091,-2.3091,-2.3091,-2.3091,-2.3091,-2.3091,-2.3091,-2.3091,-2.3091,-2.3091,-2.3091,-2.3091,-2.3091,-2.3091,-2.228,-2.1006,-2.0413,-1.933,-1.8102,-1.7512,-1.7279,-1.7308,-1.7439,-1.7625,-1.7772,-1.7962,-1.8021,-1.8057,-1.8247,-1.8401,-1.8547,-1.8738,-1.8891,-1.9038,-1.9228,-1.9279,-1.9279,-1.9279,-1.9279,-1.9279,-1.9279,-1.9279,-1.9783,-2.1285,-2.2089,-2.3044,-2.4559,-2.5323,-2.5693,-2.5693,-2.5693,-2.5693,-2.5693,-2.5693,-2.5693,-2.5693,-2.5693,-2.5226,-2.4187,-2.3949,-2.3899,-2.4088,-2.3094,-2.2484,-2.2484,-2.0987,-1.9931,-1.9279,-1.9279,-1.9279,-1.9279,-1.9279,-1.9279,-2.3144,-2.3091,-2.3091,-2.3091,-2.3091,-2.3062,-2.2945,-2.3013,-2.3062,-2.2945,-2.2769,0.0,0.0,0.0,-2.274,-2.3042,0.0,-2.3091,-2.3091,-2.3091,-2.3218,-2.3574,-2.3613,-2.3486,-2.312,-2.3091,-2.3091,-2.3091,-2.3091,-2.3091,-2.3091,-2.3091,-2.3091,-2.3091,-2.3091,-2.3091,-2.3091,-2.3091,-2.3091,-2.3091,-2.3091,-2.3091,-2.3091,-2.3091,-2.3091,-2.3091,-2.3091,-2.3091,-2.3091,-2.3091,-2.3091,-2.3091,-2.3091,-2.2369,-2.1195,-2.0458,-1.9422,-1.8288,-1.7552,-1.7279,-1.7279,-1.7279,-1.7279,-1.7377,-1.7611,-1.7684,-1.7728,-1.7969,-1.8101,-1.8247,-1.8569,-1.8723,-1.8869,-1.9199,-1.9279,-1.9279,-1.9279,-1.9279,-1.9279,-1.9279,-1.9279,-1.9532,-2.0336,-2.1582,-2.2835,-2.3939,-2.5011,-2.5693,-2.5693,-2.5693,-2.5693,-2.5693,-2.5693,-2.5693,-2.5693,-2.5693,-2.5382,-2.4609,-2.3543,-2.3294,-2.4088,-2.3335,-2.2785,-2.2492,-2.1438,-2.0534,-1.9732,-1.9428,-1.9279,-1.9279,-1.9279,-1.9279,-2.3222,-2.3091,-2.3091,-2.3091,-2.3091,-2.2984,-2.2627,-2.2808,-2.2984,-2.2617,-2.2799,-2.3081,-2.3091,-2.3081,-2.3081,-2.3091,-2.3091,0.0,0.0,-2.3091,-2.3101,-2.311,-2.312,-2.311,-2.3091,-2.3091,-2.3091,-2.3091,-2.3091,-2.3091,-2.3091,-2.3091,-2.3091,-2.3091,-2.3091,-2.3091,-2.3091,-2.3091,-2.3091,-2.3091,-2.3091,-2.3091,-2.3091,-2.3091,-2.3091,-2.3091,-2.3091,-2.3091,-2.3091,-2.3091,-2.3091,-2.3091,-2.3091,-2.1908,-2.0232,-2.0232,-1.901,-1.7326,-1.7326,-1.7279,-1.7279,-1.7279,-1.7279,-1.7279,-1.7293,-1.7301,-1.7301,-1.7308,-1.7589,-1.7904,-1.8233,-1.8555,-1.8869,-1.9199,-1.9279,-1.9279,-1.9279,-1.9279,-1.9279,-1.9279,-1.9279,-1.9324,-1.9331,-2.1081,-2.2835,-2.3939,-2.5011,-2.5693,-2.5693,-2.5693,-2.5693,-2.5693,-2.5693,-2.5693,-2.5693,-2.5693,-2.5693,-2.5635,-2.4648,-2.4038,-2.4088,-2.4088,-2.3543,-2.2534,-2.1438,-2.0885,-2.0834,-1.9835,-1.9279,-1.9279,-1.9279,-1.9279,0.0,0.0,-2.2373,-2.2656,-2.2519,-2.2344,-2.248,-2.2627,-2.2643,-2.2539,-2.2808,-2.3091,-2.3091,-2.3091,-2.3091,-2.3091,-2.3091,-2.3091,0.0,-2.3091,-2.3091,-2.3091,-2.3091,-2.3091,-2.3091,-2.3091,-2.3091,-2.3091,-2.3408,-2.3437,-2.311,-2.3408,-2.3437,-2.311,-2.3091,-2.3091,-2.3091,-2.3091,-2.3091,-2.3091,-2.3091,-2.3091,-2.3091,-2.3091,-2.3091,-2.3091,-2.3091,-2.3091,-2.3091,-2.3091,-2.3091,-2.3091,-2.3091,-2.1908,-2.0187,-2.0187,-1.8964,-1.7279,-1.7279,-1.7279,-1.7279,-1.7279,-1.7279,-1.7279,-1.7279,-1.7279,-1.7279,-1.7279,-1.7359,-1.7567,-1.7896,-1.8218,-1.8547,-1.8877,-1.9118,-1.9279,-1.9279,-1.9279,-1.9279,-1.9279,-1.9279,-1.9227,-1.9078,-2.038,-2.1785,-2.2885,-2.3343,-2.4106,-2.5538,-2.5069,-2.4913,-2.5635,-2.5693,-2.5693,-2.5693,-2.5069,-2.4559,-2.4402,-2.2894,-2.224,-2.2735,-2.2944,-2.2534,-2.1438,-2.1785,-2.1234,-1.9828,-1.948,-1.9279,-1.9279,-1.9279,-1.9279,-2.1889,-2.1885,0.0,-2.2217,-2.209,0.0,-2.2227,0.0,-2.251,-2.251,-2.2808,-2.3091,-2.3091,-2.3091,-2.3091,-2.3091,-2.3091,-2.3091,0.0,-2.3091,-2.3091,-2.3091,-2.3091,-2.3091,-2.3091,-2.3091,-2.3091,-2.3091,-2.3545,-2.3662,-2.3389,-2.3779,-2.3818,-2.3379,-2.3369,-2.3257,-2.3091,-2.3091,-2.3091,-2.3091,-2.3091,-2.3091,-2.3091,-2.3091,-2.3091,-2.3091,-2.3091,-2.3091,-2.3091,-2.3091,-2.3091,-2.3091,-2.3091,-2.1908,-2.0187,-2.0187,-1.8964,-1.7279,-1.7279,-1.7279,-1.7279,-1.7279,-1.7279,-1.7279,-1.7279,-1.7279,-1.7279,-1.7279,-1.7279,-1.7359,-1.7728,-1.7969,-1.824,-1.8686,-1.895,-1.9133,-1.925,-1.9279,-1.9272,-1.9175,-1.9175,-1.9071,-1.8757,-1.9524,-2.0688,-2.2139,-2.2433,-2.3302,-2.543,-2.4756,-2.4501,-2.5586,-2.5693,-2.5693,-2.5693,-2.5069,-2.4402,-2.3741,-2.2534,-2.1735,-2.1363,-2.1979,-2.1836,-2.0783,-2.1532,-2.1234,-1.9879,-1.948,-1.9279,-1.9279,-1.9279,-1.9279]},{"header":{"parameterUnit":"m.s-1","parameterCategory":1,"la1":30.6,"la2":29.2853,"lo1":-89.7004,"lo2":-87.6739,"dy":0.0162,"dx":0.0183,"nx":112,"ny":82,"refTime":"2024-08-27T12:00:00:Z","depth":0,"parameterNumber":3,"parameterNumberName":"V-component_of_WINDS"},"data":[0.0,0.0,0.0,0.0,0.0,0.0,0.0,0.0,0.0,0.0,0.0,0.0,0.0,0.0,0.0,0.0,0.0,0.0,0.0,0.0,0.0,0.0,0.0,0.0,0.0,0.0,0.0,0.0,0.0,0.0,0.0,0.0,0.0,0.0,0.0,0.0,0.0,0.0,0.0,0.0,0.0,0.0,0.0,0.0,0.0,0.0,0.0,0.0,0.0,0.0,0.0,0.0,0.0,0.0,0.0,0.0,0.0,0.0,0.0,0.0,0.0,0.0,0.0,0.0,0.0,0.0,0.0,0.0,0.0,0.0,0.0,0.0,0.0,0.0,0.0,0.0,0.0,0.0,0.0,0.0,0.0,0.0,0.0,0.0,0.0,0.0,0.0,0.0,0.0,0.0,2.2073,2.022,1.8354,1.7603,1.8559,1.9561,2.0087,1.9863,0.0,0.0,0.0,0.0,0.0,0.0,0.0,0.0,0.0,0.0,0.0,0.0,0.0,0.0,0.0,0.0,0.0,0.0,0.0,0.0,0.0,0.0,0.0,0.0,0.0,0.0,0.0,0.0,0.0,0.0,0.0,0.0,0.0,0.0,0.0,0.0,0.0,0.0,0.0,0.0,0.0,0.0,0.0,0.0,0.0,0.0,0.0,0.0,0.0,0.0,0.0,0.0,0.0,0.0,0.0,0.0,0.0,0.0,0.0,0.0,0.0,0.0,0.0,0.0,0.0,0.0,0.0,0.0,0.0,0.0,0.0,0.0,0.0,0.0,0.0,0.0,0.0,0.0,0.0,0.0,0.0,0.0,0.0,0.0,0.0,0.0,0.0,0.0,0.0,0.0,0.0,0.0,0.0,0.0,0.0,0.0,0.0,0.0,0.0,0.0,0.0,0.0,0.0,0.0,2.0997,1.9808,1.7946,1.7449,1.9038,2.0185,2.0747,2.0545,0.0,0.0,0.0,0.0,0.0,0.0,0.0,0.0,0.0,0.0,0.0,0.0,0.0,0.0,0.0,0.0,0.0,0.0,0.0,0.0,0.0,0.0,0.0,0.0,0.0,0.0,0.0,0.0,0.0,0.0,0.0,0.0,0.0,0.0,0.0,0.0,0.0,0.0,0.0,0.0,0.0,0.0,0.0,0.0,0.0,0.0,0.0,0.0,0.0,0.0,0.0,0.0,0.0,0.0,0.0,0.0,0.0,0.0,0.0,0.0,0.0,0.0,0.0,0.0,0.0,0.0,0.0,0.0,0.0,0.0,0.0,0.0,0.0,0.0,0.0,0.0,0.0,0.0,0.0,0.0,0.0,0.0,0.0,0.0,0.0,0.0,0.0,0.0,0.0,0.0,0.0,0.0,0.0,0.0,0.0,0.0,0.0,0.0,0.0,0.0,0.0,0.0,0.0,2.1635,2.0445,2.0383,1.817,1.7564,1.9638,2.0538,2.1082,2.1213,2.0875,0.0,0.0,0.0,0.0,0.0,0.0,0.0,0.0,0.0,0.0,0.0,0.0,0.0,0.0,0.0,0.0,0.0,0.0,0.0,0.0,0.0,0.0,0.0,0.0,0.0,0.0,0.0,0.0,0.0,0.0,0.0,0.0,0.0,0.0,0.0,0.0,0.0,0.0,0.0,0.0,0.0,0.0,0.0,0.0,0.0,0.0,0.0,0.0,0.0,0.0,0.0,0.0,0.0,0.0,0.0,0.0,0.0,0.0,0.0,0.0,0.0,0.0,0.0,0.0,0.0,0.0,0.0,0.0,0.0,0.0,0.0,0.0,0.0,0.0,0.0,0.0,0.0,0.0,0.0,0.0,0.0,0.0,0.0,0.0,0.0,0.0,0.0,0.0,0.0,0.0,0.0,0.0,0.0,0.0,0.0,0.0,0.0,0.0,0.0,0.0,0.0,0.0,2.172,2.0697,2.1127,1.899,1.8456,2.0664,2.101,2.1303,2.1728,2.1156,0.0,0.0,0.0,0.0,0.0,0.0,0.0,0.0,0.0,0.0,0.0,0.0,0.0,0.0,0.0,0.0,0.0,0.0,0.0,0.0,0.0,0.0,0.0,0.0,0.0,0.0,0.0,0.0,0.0,0.0,0.0,0.0,0.0,0.0,0.0,0.0,0.0,0.0,0.0,0.0,0.0,0.0,0.0,0.0,0.0,0.0,0.0,0.0,0.0,0.0,0.0,0.0,0.0,0.0,0.0,0.0,0.0,0.0,0.0,0.0,0.0,0.0,0.0,0.0,0.0,0.0,0.0,0.0,0.0,0.0,0.0,0.0,0.0,0.0,0.0,0.0,0.0,0.0,0.0,0.0,0.0,0.0,0.0,0.0,0.0,0.0,0.0,0.0,0.0,0.0,0.0,0.0,0.0,0.0,0.0,0.0,0.0,0.0,0.0,0.0,0.0,0.0,2.2008,2.2249,2.1779,2.0725,2.0685,2.229,2.1796,2.1546,2.194,2.0443,0.0,0.0,0.0,0.0,0.0,0.0,0.0,0.0,0.0,0.0,0.0,0.0,0.0,0.0,0.0,0.0,0.0,0.0,0.0,0.0,0.0,0.0,0.0,0.0,0.0,0.0,0.0,0.0,0.0,0.0,0.0,0.0,0.0,0.0,0.0,0.0,0.0,0.0,0.0,0.0,0.0,0.0,0.0,0.0,0.0,0.0,0.0,0.0,0.0,0.0,0.0,0.0,0.0,0.0,0.0,0.0,0.0,0.0,0.0,0.0,0.0,0.0,0.0,0.0,0.0,0.0,0.0,0.0,0.0,0.0,0.0,0.0,0.0,0.0,0.0,0.0,0.0,0.0,0.0,0.0,0.0,0.0,0.0,0.0,0.0,0.0,0.0,0.0,0.0,0.0,0.0,0.0,0.0,0.0,0.0,0.0,0.0,0.0,0.0,0.0,0.0,0.0,2.2527,2.2523,2.2888,2.1707,2.1416,2.2656,2.2511,2.2161,2.1789,0.0,0.0,0.0,0.0,0.0,0.0,0.0,0.0,0.0,0.0,0.0,0.0,0.0,0.0,0.0,0.0,0.0,0.0,0.0,0.0,0.0,0.0,0.0,0.0,0.0,0.0,0.0,0.0,0.0,0.0,0.0,0.0,0.0,0.0,0.0,0.0,0.0,0.0,0.0,0.0,0.0,0.0,0.0,0.0,0.0,0.0,0.0,0.0,0.0,0.0,0.0,0.0,0.0,0.0,0.0,0.0,0.0,0.0,0.0,0.0,0.0,0.0,0.0,0.0,0.0,0.0,0.0,0.0,0.0,0.0,0.0,0.0,0.0,0.0,0.0,0.0,0.0,0.0,0.0,0.0,0.0,0.0,0.0,0.0,0.0,0.0,0.0,0.0,0.0,0.0,0.0,0.0,0.0,0.0,0.0,0.0,0.0,0.0,0.0,0.0,0.0,0.0,2.358,2.3329,2.339,2.4252,2.305,2.2571,2.3543,2.305,2.2395,2.1645,0.0,0.0,0.0,0.0,0.0,0.0,0.0,0.0,0.0,0.0,0.0,0.0,0.0,0.0,0.0,0.0,0.0,0.0,0.0,0.0,0.0,0.0,0.0,0.0,0.0,0.0,0.0,0.0,0.0,0.0,0.0,0.0,0.0,0.0,0.0,0.0,0.0,0.0,0.0,0.0,0.0,0.0,0.0,0.0,0.0,0.0,0.0,0.0,0.0,0.0,0.0,0.0,0.0,0.0,0.0,0.0,0.0,0.0,0.0,0.0,0.0,0.0,0.0,0.0,0.0,0.0,0.0,0.0,0.0,0.0,0.0,0.0,0.0,0.0,0.0,0.0,0.0,0.0,0.0,0.0,0.0,0.0,0.0,0.0,0.0,0.0,0.0,0.0,0.0,0.0,0.0,0.0,0.0,0.0,0.0,0.0,0.0,0.0,0.0,0.0,0.0,0.0,2.3678,2.442,2.5158,2.5801,2.4836,2.4384,2.5112,2.3416,2.2116,0.0,0.0,0.0,0.0,0.0,0.0,0.0,0.0,0.0,0.0,0.0,0.0,0.0,0.0,0.0,0.0,0.0,0.0,0.0,0.0,0.0,0.0,0.0,0.0,0.0,0.0,0.0,0.0,0.0,0.0,0.0,0.0,0.0,0.0,0.0,0.0,0.0,0.0,0.0,0.0,0.0,0.0,0.0,0.0,0.0,0.0,0.0,0.0,0.0,0.0,0.0,0.0,0.0,0.0,0.0,0.0,0.0,0.0,0.0,0.0,0.0,0.0,0.0,0.0,0.0,0.0,0.0,0.0,0.0,0.0,0.0,0.0,0.0,0.0,0.0,0.0,0.0,0.0,0.0,0.0,0.0,0.0,0.0,0.0,0.0,0.0,0.0,0.0,0.0,0.0,0.0,0.0,0.0,0.0,0.0,0.0,0.0,0.0,0.0,0.0,0.0,0.0,0.0,2.4159,2.4751,2.5176,2.5393,2.4794,2.4331,2.4142,2.3596,2.2495,2.0652,0.0,0.0,0.0,0.0,0.0,0.0,0.0,0.0,0.0,0.0,0.0,0.0,0.0,0.0,0.0,0.0,0.0,0.0,0.0,0.0,0.0,0.0,0.0,0.0,0.0,0.0,0.0,0.0,0.0,0.0,0.0,0.0,0.0,0.0,0.0,0.0,0.0,0.0,0.0,0.0,0.0,0.0,0.0,0.0,0.0,0.0,0.0,0.0,0.0,0.0,0.0,0.0,0.0,0.0,0.0,0.0,0.0,0.0,0.0,0.0,0.0,0.0,0.0,0.0,0.0,0.0,0.0,0.0,0.0,0.0,0.0,0.0,0.0,0.0,0.0,0.0,0.0,0.0,0.0,0.0,0.0,0.0,0.0,0.0,0.0,0.0,0.0,0.0,0.0,0.0,0.0,0.0,0.0,0.0,0.0,0.0,0.0,0.0,0.0,0.0,0.0,0.0,2.4854,2.54,2.5679,2.5679,2.5077,2.4425,2.3924,2.3891,2.2933,2.0673,0.0,0.0,0.0,0.0,0.0,0.0,0.0,0.0,0.0,0.0,0.0,0.0,0.0,0.0,0.0,0.0,0.0,0.0,0.0,0.0,0.0,0.0,0.0,0.0,0.0,0.0,0.0,0.0,0.0,0.0,0.0,0.0,0.0,0.0,0.0,0.0,0.0,0.0,0.0,0.0,0.0,0.0,0.0,0.0,0.0,0.0,0.0,0.0,0.0,0.0,0.0,0.0,0.0,0.0,0.0,0.0,0.0,0.0,0.0,0.0,0.0,0.0,0.0,0.0,0.0,0.0,0.0,0.0,0.0,0.0,0.0,0.0,0.0,0.0,0.0,0.0,0.0,0.0,0.0,0.0,0.0,0.0,0.0,0.0,0.0,0.0,0.0,0.0,0.0,0.0,0.0,0.0,0.0,0.0,0.0,0.0,0.0,0.0,0.0,0.0,0.0,0.0,2.5628,2.6055,2.633,2.633,2.5367,2.4554,2.4059,2.4145,2.3398,2.1481,0.0,0.0,0.0,0.0,0.0,0.0,0.0,0.0,0.0,0.0,0.0,0.0,0.0,0.0,0.0,0.0,0.0,0.0,0.0,0.0,0.0,0.0,0.0,0.0,0.0,0.0,0.0,0.0,0.0,0.0,0.0,0.0,0.0,0.0,0.0,0.0,0.0,0.0,0.0,0.0,0.0,0.0,0.0,0.0,0.0,0.0,0.0,0.0,0.0,0.0,0.0,0.0,0.0,0.0,0.0,0.0,0.0,0.0,0.0,0.0,2.4939,2.4619,0.0,0.0,0.0,0.0,0.0,0.0,0.0,0.0,0.0,0.0,0.0,0.0,0.0,0.0,0.0,0.0,0.0,0.0,0.0,0.0,0.0,0.0,0.0,0.0,0.0,0.0,0.0,0.0,0.0,0.0,0.0,0.0,0.0,0.0,0.0,0.0,0.0,0.0,0.0,0.0,2.5701,2.5796,2.5865,2.5865,2.4565,2.3682,2.3568,2.3956,2.3681,2.2535,2.2802,0.0,0.0,0.0,0.0,0.0,0.0,0.0,0.0,0.0,0.0,0.0,0.0,0.0,0.0,0.0,0.0,0.0,0.0,0.0,0.0,0.0,0.0,0.0,0.0,0.0,0.0,0.0,0.0,0.0,0.0,0.0,0.0,0.0,0.0,0.0,0.0,0.0,0.0,0.0,0.0,0.0,0.0,0.0,0.0,0.0,0.0,0.0,0.0,0.0,0.0,0.0,0.0,0.0,0.0,0.0,0.0,0.0,0.0,0.0,2.6415,2.6043,0.0,0.0,0.0,0.0,0.0,0.0,0.0,0.0,0.0,0.0,0.0,0.0,0.0,0.0,0.0,0.0,0.0,0.0,0.0,0.0,0.0,0.0,0.0,0.0,0.0,0.0,0.0,0.0,0.0,0.0,0.0,0.0,0.0,0.0,0.0,0.0,0.0,0.0,0.0,0.0,2.7076,2.7074,2.7,2.6749,2.5504,2.449,2.3978,2.4381,2.4378,2.3666,2.3866,0.0,0.0,0.0,0.0,0.0,0.0,0.0,0.0,0.0,0.0,0.0,0.0,0.0,0.0,0.0,0.0,0.0,0.0,0.0,0.0,0.0,0.0,0.0,0.0,0.0,0.0,0.0,0.0,0.0,0.0,0.0,0.0,0.0,0.0,0.0,0.0,0.0,0.0,0.0,0.0,0.0,0.0,0.0,0.0,0.0,0.0,0.0,0.0,0.0,0.0,0.0,0.0,0.0,2.9646,2.9518,2.9236,2.9236,2.9389,2.9609,2.7876,2.7792,2.8824,2.8412,0.0,0.0,0.0,0.0,0.0,0.0,0.0,0.0,0.0,0.0,0.0,0.0,0.0,0.0,0.0,0.0,0.0,0.0,0.0,0.0,0.0,0.0,3.2409,3.2099,3.263,3.2739,3.0895,0.0,0.0,0.0,0.0,0.0,0.0,0.0,0.0,0.0,0.0,0.0,2.8564,2.8615,2.8397,2.7873,2.6781,2.5714,2.4703,2.5084,2.5196,2.4782,2.4861,2.4961,0.0,0.0,0.0,0.0,0.0,0.0,0.0,0.0,0.0,0.0,0.0,0.0,0.0,0.0,0.0,0.0,0.0,0.0,0.0,0.0,0.0,0.0,0.0,0.0,0.0,0.0,0.0,0.0,0.0,0.0,0.0,0.0,2.9177,2.9318,0.0,0.0,0.0,0.0,0.0,0.0,0.0,0.0,0.0,0.0,0.0,0.0,0.0,3.1902,3.2614,3.2886,3.2419,3.1306,3.1448,3.0791,2.938,2.938,2.9782,3.044,3.0186,0.0,3.1085,3.1249,0.0,0.0,0.0,0.0,0.0,0.0,0.0,0.0,0.0,0.0,0.0,0.0,0.0,0.0,0.0,0.0,0.0,0.0,0.0,0.0,0.0,0.0,3.4085,3.4018,3.4124,3.4143,3.3849,3.2464,3.1101,3.0548,3.0333,2.9999,0.0,0.0,0.0,0.0,0.0,0.0,2.8739,2.8615,2.8388,2.7867,2.6811,2.5909,2.525,2.5673,2.5959,2.588,2.6262,2.6748,2.726,2.6769,0.0,0.0,0.0,0.0,0.0,0.0,0.0,0.0,0.0,0.0,0.0,0.0,0.0,0.0,0.0,0.0,0.0,0.0,0.0,0.0,0.0,0.0,0.0,0.0,0.0,0.0,0.0,0.0,0.0,3.0587,3.18,3.1796,3.1736,3.1521,0.0,0.0,0.0,0.0,0.0,0.0,0.0,0.0,0.0,3.3037,3.3365,3.3585,3.3736,3.3788,3.3488,3.2888,3.2617,3.2084,3.1378,3.1378,3.1609,3.2074,3.2463,3.2822,3.3101,3.2682,3.2529,3.2496,0.0,0.0,0.0,0.0,3.3386,3.453,3.4188,3.4496,3.4849,3.3558,0.0,0.0,0.0,0.0,0.0,0.0,0.0,3.359,3.3906,3.4196,3.4414,3.4414,3.4414,3.4414,3.4414,3.3729,3.2973,3.2501,3.216,3.1669,3.0779,3.0569,0.0,0.0,0.0,3.0597,2.9715,2.9601,2.9271,2.839,2.7538,2.6812,2.6244,2.637,2.6653,2.6974,2.7188,2.7596,2.818,2.7824,2.7341,0.0,0.0,0.0,0.0,0.0,0.0,0.0,0.0,0.0,0.0,0.0,0.0,0.0,0.0,0.0,0.0,0.0,0.0,0.0,0.0,0.0,0.0,0.0,0.0,0.0,0.0,0.0,0.0,3.2515,3.3736,3.3736,3.3704,3.3411,0.0,0.0,0.0,0.0,0.0,0.0,3.2918,3.2987,3.3528,3.4778,3.5211,3.5308,3.5079,3.4879,3.4589,3.4221,3.3567,3.3036,3.2701,3.2701,3.2896,3.322,3.3733,3.4199,3.4621,3.39,3.3813,3.409,3.4056,3.4548,3.5236,3.5018,3.5532,3.6257,3.5938,3.5923,3.5894,3.4777,3.3978,3.3344,3.2513,0.0,0.0,0.0,0.0,3.3819,3.4283,3.4414,3.4414,3.4414,3.4414,3.4414,3.4414,3.4414,3.4312,3.4025,3.3638,3.3154,3.2409,3.1943,0.0,3.1185,3.1535,3.1513,3.0761,3.0665,3.0228,2.904,2.847,2.7948,2.7395,2.7301,2.7461,2.7944,2.7971,2.8214,2.8817,2.8671,2.8477,2.8341,0.0,0.0,0.0,0.0,0.0,0.0,0.0,0.0,0.0,0.0,0.0,0.0,0.0,0.0,0.0,0.0,0.0,0.0,0.0,0.0,0.0,0.0,0.0,0.0,0.0,0.0,0.0,0.0,0.0,3.4356,3.4351,0.0,0.0,0.0,0.0,3.3087,3.3655,3.4323,3.5006,3.5048,3.5691,3.7083,3.7163,3.7438,3.7974,3.7424,3.6472,3.5133,3.4441,3.3429,3.2128,3.2128,3.2533,3.3178,3.3255,3.4028,3.5348,3.5308,3.4906,3.4389,3.4228,3.4669,3.5296,3.4526,3.5125,3.6141,3.4922,3.4907,3.5334,3.4632,3.3978,3.3605,3.4109,3.3848,0.0,0.0,3.4356,3.437,3.4399,3.4414,3.4414,3.4414,3.4414,3.4414,3.4414,3.4414,3.438,3.438,3.4351,3.4187,3.3762,0.0,3.3533,3.322,3.3178,3.2757,3.1497,3.1343,3.0881,2.9677,2.954,2.9246,2.8659,2.8619,2.8605,2.8647,2.8647,2.8928,2.9512,2.9543,2.9265,2.8691,2.8637,0.0,0.0,0.0,0.0,0.0,0.0,0.0,0.0,0.0,0.0,0.0,0.0,0.0,0.0,0.0,0.0,0.0,0.0,0.0,0.0,0.0,0.0,0.0,0.0,0.0,0.0,0.0,0.0,3.559,3.6011,0.0,3.4825,3.5053,3.5108,3.4649,3.5203,3.5834,3.6531,3.656,3.6973,3.7868,3.7883,3.7796,3.7622,3.6983,3.6223,3.5324,3.4657,3.4054,3.3569,3.3569,3.3707,3.3962,3.3962,3.4277,3.4762,3.4762,3.5096,3.5613,3.5582,3.574,3.5932,3.5669,3.5884,3.6243,3.5793,3.5778,3.5865,3.5261,3.4603,3.4124,3.4341,3.4254,3.4124,3.4356,3.4414,3.4414,3.4414,3.4414,3.4414,3.4414,3.4414,3.4414,3.4414,3.4414,3.4414,3.4414,3.4414,3.4264,3.3874,3.3805,3.3701,3.3339,3.3304,3.2834,3.1564,3.141,3.0933,2.9743,2.9602,2.9518,2.931,2.9296,2.9083,2.8661,2.9026,2.9181,2.8968,2.9577,2.9813,2.9616,2.9681,2.9059,0.0,0.0,0.0,0.0,0.0,0.0,0.0,0.0,0.0,0.0,0.0,0.0,0.0,0.0,0.0,0.0,0.0,0.0,0.0,0.0,0.0,0.0,0.0,0.0,0.0,3.5343,3.6098,3.6286,3.6693,3.6548,3.5508,3.5546,3.5677,3.5712,3.6069,3.6693,3.7564,3.7607,3.7796,3.8188,3.7999,3.7709,3.7302,3.6431,3.5778,3.5392,3.4719,3.4414,3.4414,3.4414,3.4414,3.4414,3.4414,3.4414,3.4414,3.4414,3.4907,3.5691,3.5909,3.5996,3.5996,3.5996,3.5996,3.5952,3.5749,3.5677,3.5604,3.5183,3.4762,3.4414,3.4414,3.4414,3.4414,3.4414,3.4414,3.4414,3.4414,3.4414,3.4414,3.4414,3.4414,3.4414,3.4414,3.4414,3.4414,3.4414,3.4414,3.4312,3.4059,3.3991,3.3908,3.3701,3.3667,3.3212,3.1943,3.1772,3.1304,3.0071,2.9943,2.9943,2.9943,2.9943,2.9759,2.9288,2.9702,2.9744,2.9274,2.9929,3.0264,3.0264,3.0499,3.0377,2.9855,0.0,0.0,0.0,0.0,0.0,0.0,0.0,0.0,0.0,0.0,0.0,0.0,0.0,0.0,0.0,0.0,0.0,0.0,0.0,0.0,0.0,0.0,0.0,3.4501,3.6098,3.7041,3.6417,3.6315,3.6054,3.5465,3.482,3.4965,3.6185,3.6315,3.6881,3.8115,3.8188,3.8188,3.8173,3.7607,3.7288,3.7244,3.6031,3.5392,3.5363,3.4704,3.4414,3.4414,3.4414,3.4414,3.4414,3.4414,3.4414,3.4414,3.4414,3.4414,3.4472,3.5131,3.5378,3.5378,3.5378,3.5378,3.5276,3.4632,3.4414,3.4414,3.4414,3.4414,3.4414,3.4414,3.4414,3.4414,3.4414,3.4414,3.4414,3.4414,3.4414,3.4414,3.4414,3.4414,3.4414,3.4414,3.4414,3.4414,3.4414,3.4414,3.4414,3.4414,3.4414,3.4414,3.4414,3.4414,0.0,3.2669,3.2495,3.2019,3.0772,3.0612,3.0598,3.0598,3.0598,3.0598,3.0583,3.0598,3.0598,3.0598,3.0627,3.0671,3.0716,3.1146,3.194,3.3127,0.0,0.0,0.0,0.0,0.0,0.0,0.0,0.0,0.0,0.0,0.0,0.0,0.0,0.0,0.0,0.0,0.0,0.0,0.0,0.0,0.0,3.5558,3.6519,3.6519,3.6548,3.6693,3.6997,3.6606,3.6054,3.5465,3.5619,3.5735,3.5668,3.6504,3.7186,3.7535,3.797,3.7999,3.7564,3.7404,3.6852,3.5944,3.5581,3.516,3.4675,3.4501,3.4414,3.4414,3.4414,3.4414,3.4414,3.4414,3.4414,3.4414,3.4414,3.4414,3.4428,3.4603,3.4675,3.4675,3.4675,3.4675,3.4646,3.4472,3.4481,3.4631,3.4631,3.4683,3.4735,3.4664,3.4631,3.4597,3.4448,3.4414,3.4414,3.4414,3.4414,3.4414,3.4414,3.4414,3.4414,3.4414,3.4414,3.4414,3.4414,3.4414,3.4414,3.4414,3.4414,3.4414,3.4414,3.4414,3.4124,3.3311,3.2803,3.2162,3.1351,3.0843,3.0598,3.0598,3.0598,3.0409,2.9914,3.0321,3.0598,3.0598,3.138,3.2363,3.3539,3.2936,3.3071,0.0,0.0,0.0,0.0,0.0,0.0,0.0,0.0,0.0,0.0,0.0,0.0,0.0,0.0,0.0,0.0,0.0,0.0,0.0,0.0,0.0,0.0,3.6285,3.7302,3.7302,3.6968,3.6765,3.6881,3.6315,3.5813,3.5436,3.5444,3.5473,3.5407,3.6315,3.7012,3.7288,3.7883,3.8043,3.7694,3.7433,3.6809,3.5813,3.5537,3.5072,3.4414,3.4414,3.4414,3.4414,3.4414,3.4414,3.4414,3.4414,3.4414,3.4414,3.4414,3.4414,0.0,0.0,0.0,0.0,0.0,3.4414,3.4414,3.4414,3.4515,3.4698,3.4698,3.4783,3.4902,3.4817,3.4783,3.475,3.465,3.4601,3.4616,3.4549,3.4582,3.4568,3.4448,3.4448,3.4481,3.4414,3.4414,3.4414,3.4414,3.4414,0.0,3.4414,3.4414,3.4414,3.4414,3.4414,3.4182,3.359,3.3151,3.2658,3.1973,3.1613,3.1395,3.1395,3.1395,0.0,0.0,0.0,3.1503,3.1702,3.2375,0.0,0.0,0.0,0.0,0.0,0.0,0.0,0.0,3.5862,3.6358,0.0,0.0,0.0,0.0,0.0,0.0,0.0,0.0,0.0,0.0,0.0,0.0,0.0,0.0,0.0,0.0,3.6642,3.736,3.7215,3.7201,3.6939,3.6286,3.5683,3.529,3.529,3.4748,3.4675,3.5348,3.5952,3.6591,3.7273,3.7883,0.0,0.0,0.0,3.6954,3.6214,3.5683,3.5072,3.4414,3.4414,3.4414,3.4414,3.4414,3.4414,3.4414,3.4414,3.4414,3.4414,3.4414,3.4414,3.4414,3.4414,3.4414,3.4414,3.4414,3.4414,3.4414,3.4448,0.0,0.0,3.4765,3.4916,3.5052,3.4968,3.4935,3.4935,3.4902,3.4902,3.4868,3.475,3.4817,3.4835,3.4549,3.4582,3.4664,3.4481,3.4515,3.4568,3.4568,3.4568,3.4568,3.4568,3.4481,3.4414,3.4414,3.4414,3.4211,3.3678,3.3547,3.3285,3.2687,0.0,0.0,3.2481,3.2481,3.2481,3.2481,3.2617,3.2918,3.3466,3.3633,3.4379,3.5882,3.5898,3.6448,3.7569,3.7494,3.751,3.7537,3.6832,3.7182,0.0,0.0,0.0,0.0,0.0,0.0,0.0,0.0,0.0,0.0,0.0,0.0,0.0,0.0,0.0,3.7246,3.7704,3.7665,3.6649,3.6504,3.6257,3.5654,3.498,3.4588,3.4588,3.4486,3.4675,3.5348,3.5952,3.6591,3.7273,3.7883,3.7984,3.7491,3.736,3.6736,3.5595,3.5465,3.5072,3.4414,3.4414,0.0,3.4414,3.4414,3.4414,3.4414,3.4414,3.4414,3.4414,3.4414,3.4481,3.4631,3.4448,3.4414,3.4414,3.4597,3.4549,3.4448,3.4702,3.5169,3.5623,3.5231,3.5574,3.5991,3.5329,3.5148,0.0,3.4935,3.4902,3.4902,3.4868,3.4868,3.4902,3.4835,3.4835,3.4835,3.4802,3.5234,3.5608,3.5608,3.5608,3.5608,3.5608,3.4953,3.4414,3.4414,3.4414,3.437,3.424,3.3823,3.346,3.3329,3.2817,3.2481,3.2481,3.2481,3.2481,3.2481,3.3363,3.4105,3.4652,3.5554,3.6383,3.714,3.714,3.7365,3.7815,3.7612,3.7612,3.7799,3.744,3.7417,0.0,0.0,0.0,0.0,0.0,0.0,0.0,0.0,0.0,0.0,0.0,3.6076,3.6693,0.0,3.7526,3.7794,3.8238,3.8011,3.6633,3.6458,3.6058,3.5029,3.4603,3.4414,3.4414,3.4704,3.5058,3.5378,3.6257,3.6954,3.7288,3.7883,3.8072,3.7767,3.7752,3.7302,3.6344,3.6011,3.5677,3.5343,3.4719,3.4608,3.5001,3.4695,3.4582,3.4635,3.4635,3.4616,3.4563,3.4563,3.465,3.4817,3.5052,3.4887,3.4563,3.475,3.4683,3.4582,3.4835,3.5397,3.6006,3.5767,3.6243,3.6845,3.6415,3.6054,3.5847,3.6087,3.5913,3.5655,3.5559,3.5591,3.5623,3.5447,3.5494,3.5623,3.5802,3.6103,3.6337,3.6337,3.6337,3.6337,3.6337,3.593,3.5385,3.4769,3.4635,3.4635,3.4635,3.439,3.42,3.42,3.3908,3.3685,3.3685,3.3865,3.4093,3.4427,3.4979,3.5614,3.6285,3.6839,3.7417,3.7934,3.7934,3.802,3.8148,3.802,3.802,3.8148,3.802,3.795,0.0,0.0,0.0,0.0,0.0,0.0,0.0,3.7275,3.7462,3.795,3.7772,3.7659,3.8093,3.8227,3.8261,3.8168,3.8509,3.8267,3.6825,3.6614,3.6061,3.4641,3.4414,3.4414,3.4414,3.4994,3.545,3.5581,3.6635,3.736,3.7476,3.7941,3.8202,3.824,3.8202,3.7912,3.7339,3.6837,3.6503,3.6336,3.5374,3.5137,3.5624,3.516,3.4934,3.4902,3.4902,3.4835,3.4731,3.4798,3.485,3.5034,3.5737,3.5591,3.5016,3.5118,3.5067,3.4968,3.5118,3.572,3.6368,3.6399,3.6951,3.7531,3.7429,3.7011,3.6723,3.7251,3.7011,3.6585,3.6461,3.6523,3.6538,3.6244,3.6337,3.6508,3.6859,3.7024,3.7098,3.7098,3.7098,3.7098,3.7098,3.6978,3.6538,3.5432,3.5285,3.5285,3.5285,3.5285,3.5285,3.5285,3.5285,3.5285,3.5285,3.5529,3.5914,3.643,3.66,3.6919,3.756,3.7693,3.7956,3.8391,3.8391,3.8436,3.8476,3.8436,3.842,3.8476,3.842,3.8412,3.7939,3.7028,3.6265,3.6994,3.7164,3.7197,0.0,3.7846,3.8106,3.7594,3.7921,3.8287,3.8362,3.8719,3.9,3.8964,3.8863,3.8267,3.6825,3.6614,3.6131,3.4825,3.4515,3.4414,3.4414,3.4994,3.5625,3.6156,3.6881,3.7535,3.8072,3.8159,3.8277,3.8441,3.8277,3.7986,3.7579,3.7492,3.717,3.6579,3.6614,3.6345,3.5859,3.5785,3.5446,3.4902,3.4902,3.4902,3.4902,3.5082,3.5148,3.5246,3.6038,3.6227,3.6038,3.6053,3.5943,3.5817,3.6117,3.6569,3.7041,3.7221,3.7677,3.8108,3.7576,3.734,3.731,3.737,3.734,3.728,3.728,3.728,3.728,3.7235,3.7251,3.728,3.7324,3.7764,3.8121,3.8121,3.8121,3.8121,3.8121,3.7677,3.7175,3.6661,3.66,3.66,3.66,3.66,3.66,3.66,3.66,3.66,3.66,3.6615,3.6691,3.6737,3.7189,3.7501,3.7589,3.8059,3.8335,3.8391,3.8391,3.8532,3.875,3.8532,3.8532,3.875,3.8504,3.8412,3.7691,3.7011,3.6444,3.7172,3.7359,3.7559,3.8391,3.8779,3.8886,3.8637,3.8796,3.899,3.899,3.9143,3.9265,3.9265,3.9177,3.8608,3.7177,3.695,3.6374,3.4878,3.4937,3.5122,3.5122,3.5601,3.6185,3.6838,3.7476,3.7941,3.8188,3.8315,3.8404,3.8478,3.8538,3.848,3.8289,3.7937,3.7804,3.7878,3.7219,3.6788,3.6591,3.6221,3.5974,3.5769,3.5688,3.5928,3.6368,3.6321,3.6368,3.6554,3.7235,3.7472,3.7399,3.7041,3.6768,3.6646,3.689,3.7324,3.7822,3.7908,3.8367,3.8843,3.8579,3.821,3.801,3.8411,3.821,3.7908,3.7908,3.7908,3.7908,3.7908,3.7908,3.8023,3.8439,3.8689,3.8871,3.8871,3.8871,3.8871,3.8871,3.8662,3.8451,3.8294,3.7632,3.716,3.716,3.716,3.716,3.716,3.716,3.7235,3.7413,3.7458,3.7605,3.7937,3.8153,3.8383,3.8579,3.8805,3.892,3.892,3.892,3.8975,3.9094,3.8975,3.8985,3.9094,3.8975,3.892,3.7652,3.7191,3.6786,3.7261,3.7286,3.7445,3.8589,3.8986,3.9123,3.9127,3.9125,3.9185,3.9394,3.926,3.92,3.9394,3.9388,3.8874,3.7421,3.7193,3.6674,3.5295,3.5443,3.5854,3.6241,3.6479,3.678,3.7332,3.7928,3.8315,3.8352,3.8501,3.8627,3.8664,3.876,3.8819,3.887,3.8463,3.8463,3.8855,3.7982,3.7465,3.7149,3.6552,3.6317,3.6399,3.6492,3.6875,3.7399,3.7235,3.728,3.7458,3.8051,3.8306,3.8266,3.801,3.7722,3.7442,3.7589,3.7937,3.8351,3.8535,3.8898,3.9299,3.9299,3.8952,3.8689,3.9148,3.8952,3.859,3.859,3.859,3.859,3.859,3.859,3.8717,3.9218,3.9299,3.9299,3.9299,3.9299,3.9299,3.9299,3.9299,3.9299,3.9299,3.8523,3.7924,3.7924,3.7924,3.7924,3.7924,3.7924,3.8026,3.8258,3.8286,3.8455,3.8914,3.8958,3.904,3.9299,3.9299,3.9299,3.9299,3.9299,3.9299,3.9299,3.9299,3.9299,3.9299,3.9514,3.9597,3.8463,3.7822,3.7378,3.7388,3.696,3.669,3.7334,3.7963,3.8427,3.8422,3.8422,3.8631,3.929,3.8871,3.8631,3.9305,3.9388,3.8874,3.7421,3.7193,3.6956,3.6238,3.5995,3.6463,3.7875,3.7572,3.7346,3.7565,3.8164,3.859,3.8745,3.8797,3.887,3.9068,3.8907,3.8907,3.9104,3.9075,3.9075,3.9104,3.9256,3.8641,3.736,3.6694,3.6399,3.643,3.7071,3.737,3.7399,3.7399,3.7399,3.7458,3.8051,3.8306,3.8379,3.9023,3.8843,3.825,3.8278,3.8278,3.8407,3.905,3.9272,3.9299,3.9299,3.9299,3.9272,3.9299,3.9299,3.9272,3.9272,3.9272,3.9272,3.9272,3.9272,3.9272,3.9299,3.9299,3.9299,3.9299,3.9299,3.9299,3.9299,3.9299,3.9299,3.9299,3.9272,3.9245,3.9245,3.9245,3.9245,3.9245,3.9245,3.9245,3.9272,3.9272,3.9272,3.9272,3.9272,3.9299,3.9299,3.9299,3.9299,3.9299,3.9299,3.9299,3.9299,3.9299,3.9299,3.9315,4.0044,4.0376,3.7752,3.7798,3.7998,3.8041,3.7919,3.7917,3.8521,3.8846,3.9001,3.9001,3.9001,3.9079,3.9294,3.9192,3.9131,3.9375,3.9395,3.9074,3.8127,3.8008,3.7719,3.6941,3.7169,3.7508,3.7931,3.7796,3.79,3.837,3.8591,3.8723,3.8782,3.8943,3.9017,3.9104,3.9141,3.9228,3.9301,3.9301,3.9301,3.9286,3.8476,3.7853,3.7394,3.6711,3.6631,3.7101,3.7735,3.8238,3.8678,3.8678,3.8678,3.8678,3.8871,3.8952,3.8996,3.9218,3.9148,3.8952,3.8952,3.8952,3.8996,3.9245,3.9299,3.9299,3.9299,3.9299,3.9299,3.9299,3.9299,3.9299,3.9299,3.9299,3.9299,3.9299,3.9299,3.9299,3.9299,3.9299,3.9299,3.9299,3.9299,3.9299,3.9299,3.9299,3.9299,3.9299,3.9299,3.9299,3.9299,3.9299,3.9299,3.9299,3.9299,3.9299,3.9299,3.9299,3.9299,3.9299,3.9299,3.9299,3.9299,3.9299,3.9299,3.9299,3.9299,3.9299,3.9299,3.9796,4.0028,4.0061,4.0729,4.1061,3.7785,3.7938,3.825,3.8088,3.8035,3.8145,3.8525,3.8794,3.8983,3.8983,3.8983,3.9046,3.9251,3.9357,3.9402,3.9416,3.9599,3.9476,3.8517,3.8392,3.8297,3.8027,3.8335,3.871,3.9112,3.8913,3.8817,3.8892,3.8907,3.8943,3.9017,3.9141,3.9228,3.9228,3.9337,3.9388,3.9388,3.9388,3.9388,3.9409,3.8566,3.8005,3.7752,3.7561,3.7561,3.778,3.8379,3.8898,3.9299,3.9299,3.9299,3.9299,3.9299,3.9299,3.9299,3.9299,3.9299,3.9299,3.9299,3.9299,3.9299,3.9299,3.9299,3.9299,3.9299,3.9299,3.9299,3.9299,3.9299,3.9299,3.9299,3.9299,3.9299,3.9299,3.9299,3.9299,3.9299,3.9299,3.9299,3.9299,3.9299,3.9299,3.9299,3.9299,3.9299,3.9299,3.9299,3.9299,3.9299,3.9299,3.9299,3.9299,3.9299,3.9299,3.9299,3.9299,3.9299,3.9299,3.9299,3.9299,3.9299,3.9299,3.9299,3.9299,3.9299,3.9299,3.9299,4.0044,4.0409,4.0426,4.1359,4.1778,3.8486,3.8318,3.8193,3.7634,3.7488,3.7488,3.7488,3.7997,3.8457,3.8457,3.8457,3.8617,3.9202,3.9376,3.944,3.9439,4.0062,4.0082,3.8722,3.8542,3.8781,3.9439,3.9514,4.0008,4.1265,4.0816,4.0099,3.9245,3.9119,3.9177,3.9388,3.9388,3.9388,3.9388,3.9388,3.9388,3.9388,3.9388,3.9388,3.9409,3.9474,3.9108,3.8415,3.9077,3.9003,3.8351,3.9023,3.9299,3.9299,3.9299,3.9299,3.9299,3.9299,3.9299,3.9299,3.9299,3.9299,3.9299,3.9299,3.9299,3.9299,3.9299,3.9299,3.9299,3.9299,3.9299,3.9299,3.9299,3.9299,3.9299,3.9299,3.9299,3.9299,3.9299,3.9299,3.9299,3.9299,3.9299,3.9299,3.9299,3.9299,3.9299,3.9299,3.9299,3.9299,3.9299,3.9299,3.9299,3.9299,3.9299,3.9299,3.9299,3.9299,3.9299,3.9299,3.9299,3.9299,3.9299,3.9299,3.9299,3.9299,3.9299,3.9299,3.9299,3.9299,3.9315,3.9365,4.0094,4.0475,4.0542,4.1922,4.2555,3.8276,3.8628,3.9023,3.8843,3.8832,3.8832,3.8832,3.8936,3.9083,3.9083,3.9083,3.9132,3.9268,3.9748,4.0127,4.0083,4.069,4.1041,4.0673,4.0658,4.0681,4.0861,4.0876,4.101,4.1392,4.1235,4.0861,4.0114,3.9621,3.9337,3.9388,3.9388,3.9388,3.9388,3.9388,3.9388,3.9388,3.9388,3.9388,3.9409,3.9474,3.9108,3.8415,3.9077,3.9003,3.8351,3.9023,3.9299,3.9299,3.9299,3.9299,3.9299,3.9299,3.9299,3.9299,3.9299,3.9299,3.9299,3.9299,3.9299,3.9299,3.9299,3.9299,3.9299,3.9299,3.9299,3.9299,3.9299,3.9299,3.9299,3.9299,3.9299,3.9299,3.9299,3.9299,3.9299,3.9299,3.9299,3.9299,3.9299,3.9299,3.9299,3.9299,3.9299,3.9299,3.9299,3.9299,3.9299,3.9299,3.9299,3.9299,3.9299,3.9299,3.9299,3.9299,3.9299,3.9299,3.9299,3.9299,3.9299,3.9299,3.9299,3.9299,3.9299,3.9299,3.9564,4.0127,4.0812,4.1442,4.2005,4.2886,4.3317,3.8676,3.8974,3.9299,3.9299,3.9299,3.9299,3.9299,3.9299,3.9299,3.9299,3.9299,3.9299,3.9299,4.0416,4.1211,4.0878,4.1988,4.2758,4.2469,4.2093,4.2008,4.2311,4.2032,4.1856,4.1856,4.1587,4.1115,4.0442,4.0053,3.9723,3.9439,3.9388,3.9388,3.9388,3.9388,3.9388,3.9388,3.9388,3.9388,3.9409,4.0059,4.0006,3.9305,3.9962,3.989,3.9231,3.928,3.9299,3.9299,3.9299,3.9299,3.9299,3.9299,3.9299,3.9299,3.9299,3.9299,3.9299,3.9299,3.9299,3.9299,3.9299,3.9299,3.9299,3.9299,3.9299,3.9299,3.9299,3.9299,3.9299,3.9299,3.9299,3.9299,3.9299,3.9299,3.9299,3.9299,3.9299,3.9299,3.9299,3.9299,3.9299,3.9299,3.9299,3.9299,3.9299,3.9299,3.9299,3.9299,3.9299,3.9299,3.9299,3.9299,3.9299,3.9299,3.9299,3.9299,3.9299,3.9299,3.9299,3.9299,3.9299,3.9299,3.9299,3.9613,3.9995,4.0409,4.1409,4.2092,4.2506,4.3251,4.3598,3.9299,3.9299,3.9299,3.9299,3.9299,3.9299,3.9299,3.9299,3.9299,3.9299,3.9299,3.9299,3.9299,4.0895,4.2087,4.1705,4.3314,4.4476,4.404,4.3356,4.3138,4.3704,4.3138,4.267,4.267,4.2044,4.1324,4.0591,4.0531,4.0202,3.9454,3.9388,3.9388,3.9388,3.9388,3.9388,3.9388,3.9388,3.9445,3.9553,4.0873,4.1146,4.0579,4.1158,4.1028,4.0359,3.9613,3.9299,3.9299,3.9299,3.9299,3.9299,3.9299,3.9299,3.9299,3.9299,3.9299,3.9299,3.9299,3.9299,3.9299,3.9299,3.9299,3.9299,3.9299,3.9299,3.9299,3.9299,3.9299,3.9299,3.9299,3.9299,3.9299,3.9299,3.9299,3.9299,3.9299,3.9299,3.9299,3.9299,3.9381,3.9448,3.9448,3.9514,3.958,3.958,3.9524,3.9501,3.9448,3.9365,3.9325,3.9325,3.9352,3.9352,3.9325,3.9325,3.9325,3.9299,3.9299,3.9299,3.9299,3.9299,3.9348,3.9448,4.0078,4.0492,4.0663,4.1905,4.2568,4.2771,4.333,4.3611,3.9325,3.9299,3.9299,3.9299,3.9299,3.9299,3.9299,3.9299,3.9299,3.9299,3.9299,3.9299,3.9299,4.0111,4.1099,4.2163,4.3153,4.4184,4.5187,4.5225,4.52,4.529,4.4604,4.4129,4.4129,4.3421,4.2506,4.1294,4.1205,4.0681,3.9484,3.9388,3.9388,3.9388,3.9388,3.9388,3.9388,3.9388,3.9717,4.032,4.1127,4.1421,4.1315,4.1378,4.1028,4.0359,3.9613,3.9299,3.9299,3.9299,3.9299,3.9299,3.9299,3.9299,3.9299,3.9299,3.9299,3.9299,3.9299,3.9299,3.9299,3.9299,3.9299,3.9299,3.9299,3.9299,3.9299,3.9299,3.9299,3.9299,3.9299,3.9299,3.9299,3.9299,3.9299,3.9299,3.9299,3.9299,3.9299,3.9299,3.9796,4.021,4.021,4.0663,4.1044,4.1044,4.0788,4.0511,4.0237,3.9761,3.9475,3.9475,3.9547,3.959,3.9458,3.9475,3.9422,3.9299,3.9299,3.9299,3.9299,3.9299,3.9597,4.021,4.0343,4.0961,4.2154,4.2373,4.2991,4.3966,4.3739,4.3818,3.8317,3.8557,3.8814,3.8752,3.9033,3.9299,3.9299,3.9299,3.9299,3.9299,3.9299,3.9299,3.9299,4.021,4.1262,4.2327,4.3426,4.4688,4.6102,4.5952,4.5837,4.6221,4.5608,4.5007,4.4648,4.4248,4.346,4.2058,4.1678,4.0904,3.9469,3.9388,3.9388,3.9388,3.9388,3.9388,3.9388,3.9388,3.9788,4.0512,4.116,4.1709,4.2082,4.2012,4.1607,4.0878,4.0194,3.9663,3.9299,3.9299,3.9299,3.9299,3.9299,3.9299,3.9299,3.9299,3.9299,3.9299,3.9299,3.9299,3.9299,3.9299,3.9299,3.9299,3.9299,3.9299,3.9299,3.9299,3.9299,3.9299,3.9299,3.9299,3.9299,3.9299,3.9597,3.9879,3.9879,4.0133,4.0382,4.0382,4.068,4.0912,4.0912,4.1193,4.1409,4.1409,4.1573,4.1659,4.1516,4.1614,4.1112,3.9647,3.9616,3.9677,3.9616,3.994,4.0147,4.0077,4.0714,4.1083,4.1083,4.1333,4.1477,4.149,4.1866,4.2228,4.2489,4.3132,4.3729,4.431,4.4276,4.4401,3.7369,3.7861,3.8428,3.8299,3.8847,3.9379,3.9379,3.9379,3.9379,3.9352,3.9325,3.9325,3.9299,4.0183,4.1293,4.2324,4.3479,4.4837,4.6643,4.6487,4.6399,4.7002,4.6538,4.5885,4.5237,4.4997,4.4228,4.2618,4.1669,4.0619,3.9439,3.9388,3.9388,3.9388,3.9388,3.9388,3.9388,3.9553,4.0021,4.0703,4.1393,4.211,4.2818,4.2598,4.2092,4.1375,4.068,3.9978,3.9299,3.9299,3.9299,3.9299,3.9299,3.9299,3.9299,3.9299,3.9299,3.9299,3.9299,3.9299,3.9299,3.9299,3.9299,3.9299,3.9299,3.9299,3.9299,3.9299,3.9299,3.9299,3.9299,3.9299,3.9348,3.9497,3.9978,4.0442,4.0564,4.1028,4.1409,4.1409,4.1541,4.1657,4.1657,4.1789,4.1901,4.2054,4.2503,4.2877,4.2954,4.3451,4.296,4.0663,4.0527,4.0553,4.039,4.1017,4.1302,4.1044,4.2202,4.2825,4.2698,4.3207,4.3325,4.2954,4.3422,4.3491,4.3188,4.3962,4.4463,4.4669,4.4845,4.4964,3.7534,3.8028,3.8581,3.8581,3.9116,3.9651,3.9651,3.9651,3.9625,3.9528,3.9475,3.9432,3.9325,3.9415,4.0133,4.2158,4.2605,4.3694,4.6493,4.7406,4.782,4.7886,4.7773,4.7403,4.6692,4.598,4.4746,4.2664,4.0703,3.9556,3.9424,3.9388,3.9388,3.9388,3.9388,3.9388,3.9388,4.0041,4.0737,4.1426,4.2158,4.2834,4.3476,4.2791,4.2092,4.1375,4.068,3.9978,0.0,3.9299,3.9299,3.9299,3.9299,3.9299,3.9299,3.9299,3.9299,3.9299,3.9299,3.9299,3.9299,3.9299,3.9299,3.9299,3.9299,3.9299,3.9299,3.9299,3.9299,3.9299,3.9299,3.9299,3.9481,4.0144,4.0359,4.0591,4.1177,4.1375,4.1409,4.1409,4.1926,4.239,4.239,4.2936,4.3585,4.4215,4.4109,4.4052,4.4371,4.4302,4.4006,4.3388,4.3424,4.3276,4.2653,4.311,4.2965,4.1862,4.2816,4.3207,4.2723,4.3207,4.3805,4.4404,4.4001,4.4327,4.539,4.4794,4.4954,4.5819,4.5205,4.5125,3.6454,3.717,3.8035,3.7961,3.8832,3.9703,3.9703,3.9703,3.9651,3.9511,3.9501,3.9475,3.9325,3.9299,3.9862,4.1574,4.1827,4.2717,4.5218,4.6195,4.6841,4.7289,4.7704,4.7833,4.7554,4.727,4.6176,4.405,4.2255,4.0913,4.0086,3.9646,3.9388,3.9388,3.9388,3.9388,3.9388,4.0111,4.0839,4.1525,4.2253,4.2943,4.3582,4.33,4.2506,4.1409,4.1127,4.0332,0.0,3.9299,3.9299,3.9299,3.9299,3.9299,3.9299,3.9299,3.9299,3.9299,3.9299,3.9299,3.9299,3.9299,3.9299,3.9299,3.9299,3.9299,3.9299,3.9299,3.9299,3.9299,3.9299,3.963,4.0044,4.0343,4.1044,4.174,4.1993,4.2406,4.2704,4.2704,4.2953,4.3151,4.3151,4.3505,4.3864,4.415,4.4753,4.5229,4.5371,4.5955,4.6298,4.6113,4.4772,4.3793,4.3533,4.4095,4.4279,4.3809,4.4874,4.5447,4.5233,4.5742,4.5993,4.5858,4.5642,4.5603,4.5699,4.5622,4.5734,4.6013,4.5945,4.592,3.6325,3.6976,3.7795,3.79,3.8908,3.9833,3.9833,3.9833,3.9781,3.9642,3.959,3.9511,3.9379,3.9325,3.9713,4.0912,4.1276,4.217,4.4373,4.5516,4.6394,4.7139,4.7885,4.8249,4.8017,4.7622,4.6635,4.4935,4.3198,4.1749,4.0574,3.9809,3.9388,3.9388,3.9388,3.9517,3.9717,4.0443,4.1127,4.1819,4.2554,4.3143,4.3598,4.3598,4.2787,4.1409,4.1409,4.0597,0.0,3.9299,3.9299,3.9299,3.9299,3.9299,3.9299,3.9299,3.9299,3.9299,3.9299,3.9299,3.9299,3.9299,3.9299,3.9299,3.9299,3.9299,3.9299,3.9299,3.9299,3.9348,3.9564,4.0011,4.0509,4.0912,4.1789,4.2555,4.2771,4.3234,4.3598,4.3598,4.3658,4.3687,4.3687,4.3981,4.4196,4.4253,4.5329,4.6165,4.6189,4.7084,4.7717,4.7717,4.6082,4.4959,4.4804,4.5409,4.5658,4.535,4.645,4.7062,4.6908,4.7407,4.749,4.6999,4.684,4.6595,4.6286,4.6334,4.6376,4.6387,4.6596,4.6566,3.7686,3.7905,3.8075,3.8802,3.9529,4.0113,4.0113,4.0113,4.0062,3.991,3.9781,3.9668,3.9511,3.9395,3.9547,4.0293,4.0961,4.217,4.4373,4.5947,4.7156,4.7901,4.8647,4.8812,4.8084,4.6683,4.555,4.4853,4.2824,4.1271,4.0558,3.9809,3.9388,3.9388,3.9388,3.9753,4.0478,4.116,4.1852,4.2617,4.3265,4.3598,4.3598,4.3598,4.2787,4.1409,4.1409,4.0597,0.0,3.9299,3.9299,3.9299,3.9299,3.9299,3.9299,3.9299,3.9299,3.9299,3.9299,3.9299,3.9299,3.9299,3.9299,3.9299,3.9299,3.9299,3.9299,3.9299,3.9299,3.9481,4.021,4.0393,4.0757,4.2154,4.2473,4.2688,4.3416,4.3582,4.3598,4.3598,4.3763,4.3898,4.3898,4.4446,4.492,4.5081,4.6,4.673,4.6886,4.7363,4.7717,4.7717,4.7678,4.7432,4.6913,4.7367,4.7218,4.6147,4.7107,4.745,4.6908,4.7407,4.7696,4.7678,4.7151,4.7169,4.7696,4.6886,4.6776,4.728,4.7093,4.6842,3.7973,3.8278,3.87,3.8937,3.9554,4.0096,4.0096,4.0096,4.0062,3.9926,3.9875,3.9772,3.9554,3.9475,3.9943,4.1558,4.2021,4.2932,4.5135,4.6725,4.7554,4.7272,4.7901,4.8266,4.8017,4.7111,4.624,4.5548,4.3961,4.2715,4.1964,4.1227,4.0409,3.9424,3.9388,3.9753,4.0478,4.116,4.1852,4.2617,4.3265,4.3598,4.3598,4.3598,4.3069,4.2142,4.2142,4.1624,4.0746,4.0746,4.0746,4.0746,4.0746,4.0448,4.0061,4.0061,3.973,3.9299,3.9299,3.9299,3.9299,3.9299,3.9299,3.9299,3.9299,3.9299,3.9299,3.9299,3.9299,3.9481,4.021,4.0729,4.1326,4.2258,4.2886,4.3317,4.3549,4.3598,4.3598,4.3598,4.3658,4.3848,4.4299,4.4674,4.5081,4.5588,4.6334,4.6863,4.6886,4.7363,4.7717,4.7717,4.7717,4.7636,4.7468,4.7615,4.7572,4.7214,4.7511,4.7636,4.745,4.7615,4.7717,4.7717,4.7533,4.7533,4.7717,4.7428,4.7302,4.7298,4.7093,4.6957,3.8853,3.8853,3.9056,3.9368,3.9757,4.0096,4.0096,4.0096,4.0087,3.9986,3.9952,3.9849,3.9668,3.9814,4.034,4.1576,4.2431,4.3482,4.5152,4.6891,4.7934,4.7752,4.7885,4.7885,4.7603,4.7173,4.6477,4.545,4.4345,4.3378,4.2618,4.1884,4.1093,4.0216,4.0181,4.0547,4.1276,4.1689,4.2285,4.2974,4.3402,4.3598,4.3598,4.3598,4.3184,4.2489,4.2489,4.2059,0.0,4.1409,4.1409,4.1409,4.1409,4.1143,4.0746,4.0509,4.0111,3.968,3.9398,3.9299,3.9299,3.9299,3.9299,3.9299,3.9299,3.9299,3.9299,3.9299,3.9497,3.9879,4.058,4.1365,4.2107,4.2854,4.3402,4.3704,4.3704,4.3805,4.3848,4.3848,4.4105,4.4451,4.4858,4.5338,4.5724,4.595,4.6683,4.7129,4.6931,4.7363,4.7717,4.7717,4.7717,4.7717,4.7717,4.7717,4.7717,4.7717,4.7717,4.7717,4.7717,4.7717,4.7717,4.7717,4.7717,4.7717,4.7717,4.7717,4.7615,4.7446,4.7227,4.7116,0.0,3.9605,3.9225,3.9943,4.0096,4.0096,4.0096,4.0096,0.0,4.0096,3.9986,3.9934,4.0035,4.0354,4.0683,4.0883,4.2472,4.3929,4.4738,4.6659,4.8266,4.9011,4.8415,4.7653,4.6957,4.6808,4.6179,4.4787,4.4066,4.3393,4.2711,4.2013,4.1656,4.1656,4.1656,4.1965,4.2585,4.2617,4.2943,4.3598,4.3598,4.3598,4.3598,4.3598,4.3218,4.2572,4.2572,4.2175,4.1574,4.1574,4.1574,4.1574,4.1574,4.1513,4.1409,4.0763,4.0492,4.031,3.9613,3.9348,3.9299,3.9299,3.9299,3.9299,3.9299,3.9332,3.9381,3.9381,3.9912,4.0613,4.1309,4.2136,4.2982,4.3714,4.3898,4.3927,4.3956,4.4184,4.435,4.4378,4.5001,4.5537,4.5588,4.631,4.673,4.6286,4.7062,4.7511,4.7017,4.7385,4.7717,4.7717,4.7717,4.7717,4.7717,4.7717,4.7717,4.7717,4.7717,4.7717,4.7717,4.7717,4.7717,4.7717,4.7717,4.7717,4.7717,4.7717,4.7717,4.7678,4.7428,4.7341,4.0096,0.0,3.9893,4.0062,4.0096,4.0096,0.0,4.0096,4.0096,4.0096,4.007,4.0366,4.1391,4.1131,4.1454,4.361,4.4228,4.4887,4.6195,4.7322,4.8266,4.9011,4.7951,4.709,4.6924,4.5864,4.5052,4.4721,4.4023,4.3553,4.3372,4.3204,4.3096,4.3096,4.3096,4.2943,4.2617,4.2617,4.2943,4.3598,4.3598,4.3598,4.3598,4.3598,4.3499,4.3333,4.3333,4.3234,4.3069,4.3069,4.3069,4.3069,4.3069,4.2738,4.2208,4.2071,4.1326,4.0376,4.021,3.9779,3.9299,3.9299,3.9299,3.9325,3.9422,3.9794,4.0144,4.0144,4.063,4.1342,4.2042,4.2402,4.2804,4.3685,4.3898,4.4056,4.4541,4.4691,4.4882,4.5276,4.552,4.5817,4.6334,4.6613,4.6886,4.7258,4.7533,4.7657,4.7533,4.7615,4.7717,4.7717,4.7717,4.7717,4.7717,4.7717,4.7717,4.7717,4.7717,4.7717,4.7717,4.7717,4.7717,4.7717,4.7717,4.7717,4.7717,4.7717,4.7717,4.7717,4.7636,4.7615,4.0011,4.0367,4.0595,4.0595,4.0595,4.0595,4.0595,4.035,4.0096,4.0096,4.0096,4.0417,4.1425,4.1701,4.2384,4.416,4.5175,4.6212,4.7703,4.7968,4.815,4.8547,4.7587,4.6626,4.5947,4.5152,4.4556,4.4224,4.3843,4.3598,4.3598,4.3598,4.3598,4.3598,4.3598,4.3432,4.3066,4.3066,4.3235,4.3598,4.3598,4.3598,4.3598,4.3598,4.3598,4.3598,4.3598,4.3598,4.3598,4.3598,4.3598,4.3598,4.3598,4.335,4.2953,4.2605,4.2038,4.1259,4.0641,3.9928,3.9299,3.9299,3.9299,3.9325,3.9475,4.0197,4.0923,4.0591,4.1239,4.2107,4.2419,4.2871,4.3365,4.3869,4.4056,4.4224,4.4708,4.5001,4.532,4.5734,4.6165,4.6548,4.6908,4.7084,4.728,4.7636,4.7717,4.7717,4.7717,4.7717,4.7717,4.7717,4.7717,4.7717,4.7717,4.7717,4.7717,4.7717,4.7717,4.7717,4.7717,4.7717,4.7717,4.7717,4.7717,4.7717,4.7717,4.7717,4.7717,4.7717,4.7717,4.7717,3.991,4.0713,4.1322,4.1085,4.1119,4.117,4.1068,4.0544,4.0096,4.0096,4.0197,4.0535,4.1331,4.2422,4.3499,4.439,4.5986,4.7536,4.8763,4.8299,4.7835,4.7835,4.7073,4.6063,4.4804,4.4589,4.4274,4.3648,4.3598,4.3598,4.3598,4.3598,4.3598,4.3598,4.3598,4.3598,4.3598,4.3598,4.3598,4.3598,4.3598,4.3598,4.3598,4.3598,4.3598,4.3598,4.3598,0.0,4.3598,4.3598,4.3598,4.3598,4.3598,4.3598,4.3515,4.2886,4.2589,4.2307,4.1011,4.016,3.963,3.963,3.963,3.9684,3.9834,4.0821,4.1799,4.1155,4.1944,4.292,4.2759,4.3398,4.4068,4.4097,4.4253,4.4502,4.4855,4.5329,4.5817,4.6193,4.6875,4.7363,4.7363,4.7554,4.7717,4.7717,4.7717,4.7717,4.7717,4.7717,4.7717,4.7717,4.7717,4.7717,4.7717,4.7717,4.7717,4.7717,4.7717,4.7717,4.7717,4.7717,4.7717,4.7717,4.7717,4.7717,4.7717,4.7717,4.7717,4.7717,4.7717,4.7717,3.991,4.1094,4.1813,4.0587,4.073,4.1035,4.0417,4.018,4.0096,4.0096,4.0595,4.1591,4.3463,4.3962,4.4913,4.7378,4.794,4.8096,4.8166,4.7537,4.7073,4.7073,4.5864,4.4937,4.4735,4.4141,4.3714,4.3598,4.3598,4.3598,4.3598,4.3598,4.3598,4.3598,4.3598,4.3598,4.3598,4.3598,4.3598,4.3598,4.3598,4.3598,4.3598,4.3598,4.3598,4.3598,0.0,4.3598,4.3598,4.3598,4.3598,4.3598,4.3598,4.3598,4.3582,4.3466,4.3035,4.2373,4.1558,4.1177,4.1094,4.1094,4.1178,4.1377,4.1487,4.2194,4.2942,4.283,4.3265,4.3731,4.3685,4.3814,4.3956,4.4068,4.4558,4.5144,4.5749,4.631,4.684,4.7341,4.7551,4.7636,4.7636,4.7678,4.7717,4.7717,4.7717,4.7717,4.7717,4.7717,4.7717,4.7717,4.7717,4.7717,4.7717,4.7717,4.7717,4.7717,4.7717,4.7717,4.7717,4.7717,4.7717,4.7717,4.7717,4.7717,4.7717,4.7717,4.7717,4.7717,4.7717,4.7717,3.9292,4.0578,4.1542,4.0849,4.1542,4.232,4.1965,4.1559,4.1297,4.1297,4.1542,4.2301,4.3905,4.4502,4.552,4.786,4.8196,4.7966,4.7454,4.7106,4.6593,4.5798,4.5102,4.4522,4.4141,4.378,4.3598,4.3598,4.3598,4.3598,4.3598,4.3598,4.3598,4.3598,4.3598,4.3598,4.3598,4.3598,4.3598,4.3598,4.3598,4.3598,4.3598,4.3598,4.3598,4.3598,0.0,4.3598,4.3598,4.3598,4.3598,4.3598,4.3598,4.3598,4.3628,4.3734,4.3298,4.2601,4.2268,4.1886,4.1538,4.1453,4.1453,4.1566,4.1821,4.2462,4.3116,4.3271,4.3698,4.4097,4.4027,4.4056,4.4196,4.4558,4.4937,4.5407,4.6165,4.6619,4.7017,4.7407,4.7615,4.7717,4.7717,4.7717,4.7717,4.7717,4.7717,4.7717,4.7717,4.7717,4.7717,4.7717,4.7717,4.7717,4.7717,4.7717,4.7717,4.7717,4.7717,4.7717,4.7717,4.7717,4.7717,4.7717,4.7717,4.7717,4.7717,4.7717,4.7717,4.7717,4.7717,4.7717,3.8802,4.0087,4.1204,4.1204,4.2066,4.297,4.3308,4.2828,4.2388,4.2743,4.2855,4.3152,4.42,4.5282,4.6383,4.7697,4.7982,4.7801,4.7071,4.6625,4.5963,4.4821,4.4539,4.4224,4.3648,4.3598,4.3598,4.3598,4.3598,4.3598,4.3598,4.3598,4.3598,4.3598,4.3598,4.3598,4.3598,4.3598,4.3598,4.3598,4.3598,4.3598,4.3598,4.3598,4.3598,4.3598,4.3598,4.3598,4.3598,4.3598,4.3598,4.3598,4.3598,4.3598,4.3628,4.3763,4.3502,4.3048,4.3048,4.2682,4.2199,4.2041,4.2024,4.2081,4.2339,4.2864,4.3412,4.3635,4.4013,4.4355,4.4184,4.4338,4.4569,4.5001,4.5407,4.585,4.6454,4.6845,4.7151,4.7363,4.7554,4.7717,4.7717,4.7717,4.7717,4.7717,4.7717,4.7717,4.7717,4.7717,4.7717,4.7717,4.7717,4.7717,4.7717,4.7717,4.7717,4.7717,4.7717,4.7717,4.7717,4.7717,4.7717,4.7717,4.7717,4.7717,4.7717,4.7717,4.7717,4.7717,4.7717,4.7717,3.8802,4.0087,4.1204,4.1204,4.1288,4.1728,4.3088,4.2828,4.2692,4.4141,4.4445,4.4626,4.5202,4.6918,4.8128,4.7701,4.7985,4.8043,4.7295,4.5856,4.4804,4.4705,4.4108,4.3648,4.3598,4.3598,4.3598,4.3598,4.3598,4.3598,4.3598,4.3598,4.3598,4.3598,4.3598,4.3598,4.3598,4.3598,4.3598,4.3598,4.3598,4.3598,4.3598,4.3598,4.3598,4.3598,4.3598,4.3598,4.3598,4.3598,4.3598,4.3598,4.3598,4.3598,4.3598,4.3628,4.37,4.3814,4.3814,4.3781,4.3731,4.3731,4.3802,4.3918,4.3946,4.4197,4.4502,4.4502,4.4536,4.4542,4.4338,4.4652,4.5054,4.5081,4.595,4.6799,4.6863,4.728,4.7657,4.7675,4.7696,4.7717,4.7717,4.7717,4.7717,4.7717,4.7717,4.7717,4.7717,4.7717,4.7717,4.7717,4.7717,4.7717,4.7717,4.7717,4.7717,4.7717,4.7717,4.7717,4.7717,4.7717,4.7717,4.7717,4.7717,4.7717,4.7717,4.7717,4.7717,4.7717,4.7717,4.7717,3.8244,3.9732,4.1204,4.1204,4.1204,4.1593,4.3054,4.3572,4.4039,4.506,4.528,4.5307,4.5387,4.6348,4.706,4.6837,4.6851,4.6612,4.5865,4.5144,4.4522,4.4075,4.3764,4.3598,4.3598,4.3184,4.2903,4.2903,4.2473,4.2224,4.2224,4.2224,4.2423,4.2886,4.2903,4.3135,4.3598,4.3598,4.3598,4.3598,4.3598,4.3598,4.3598,4.3598,4.3598,4.3598,4.3598,4.3598,4.3598,4.3598,4.3658,4.3793,4.3793,4.3704,4.3628,4.3835,4.3952,4.4027,4.4126,4.4097,4.4027,4.4027,4.3998,4.3998,4.4167,4.431,4.444,4.457,4.4615,4.457,4.4514,4.4845,4.5303,4.5648,4.6334,4.6976,4.7341,4.7572,4.7717,4.7717,4.7717,4.7717,4.7717,4.7717,4.7717,4.7717,4.7717,4.7717,4.7717,4.7717,4.7717,4.7717,4.7717,4.7717,4.7717,4.7717,4.7717,4.7717,4.7717,4.7717,4.7717,4.7717,4.7717,4.7717,4.7717,4.7717,4.7717,4.7717,4.7717,4.7717,4.7717,4.7717,3.7905,3.9343,4.0899,4.1136,4.1204,4.1593,4.3054,4.3826,4.457,4.5788,4.5872,4.5607,4.5221,4.5618,4.6032,4.6109,4.5925,4.5574,4.5073,4.4687,4.4235,4.3678,4.3383,4.3251,4.3251,4.2572,4.2142,4.2142,4.1707,4.1409,4.1409,4.1409,4.1612,4.2125,4.2373,4.2738,4.3251,4.3482,4.3598,4.3598,4.3598,4.3598,4.3598,4.3598,4.3598,4.3598,4.3598,4.3628,4.3687,4.3687,4.3793,4.3969,4.3969,4.3852,4.3734,4.3981,4.4097,4.4126,4.4253,4.4253,4.4167,4.4167,4.4097,4.4056,4.4253,4.4338,4.4412,4.457,4.4692,4.4824,4.4824,4.5178,4.5673,4.6238,4.6753,4.7258,4.7615,4.7717,4.7717,4.7717,4.7717,4.7717,4.7717,4.7717,4.7717,4.7717,4.7717,4.7717,4.7717,4.7717,4.7717,4.7717,4.7717,4.7717,4.7717,4.7717,4.7717,4.7717,4.7717,4.7717,4.7717,4.7717,4.7717,4.7717,4.7717,4.7717,4.7717,4.7717,4.7717,4.7717,4.7717,4.7717,3.7905,3.8971,4.0299,4.1018,4.1221,4.1593,4.3054,4.3392,4.4062,4.6312,4.621,4.5466,4.475,4.5019,4.545,4.5657,4.5408,4.5185,4.5181,4.4432,4.3822,4.3611,4.2936,4.2473,4.2473,4.1811,4.1409,4.1409,4.1364,4.1364,4.1364,4.1364,4.1364,4.1409,4.2092,4.2489,4.2489,4.3234,4.3598,4.3598,4.3598,4.3598,4.3598,4.3598,4.3598,4.3598,4.3598,4.3704,4.3898,4.3898,4.3969,4.4097,4.4097,4.4027,4.3927,4.4056,4.4097,4.4126,4.4253,4.431,4.431,4.431,4.431,4.431,4.431,4.444,4.4615,4.4615,4.4944,4.5303,4.5303,4.5699,4.6238,4.6776,4.7302,4.7717,4.7717,4.7717,4.7717,4.7717,4.7717,4.7717,4.7717,4.7717,4.7717,4.7717,4.7717,4.7717,4.7717,4.7696,4.7678,4.7717,4.7696,4.7678,4.7717,4.7717,4.7717,4.7717,4.7717,4.7717,4.7717,4.7717,4.7717,4.7717,4.7717,4.7717,4.7717,4.7717,4.7717,4.7717,4.7717,4.7717,3.8041,3.936,4.0933,4.1153,4.1593,4.2219,4.3172,4.3842,4.457,4.5788,4.5855,4.5466,4.475,4.4728,4.4851,4.4908,4.4282,4.3787,4.3787,4.2941,4.2337,4.2264,4.1962,4.1711,4.1711,4.1094,4.0696,4.0696,4.0227,3.9901,3.9901,3.9901,4.015,4.0663,4.1375,4.1976,4.2489,4.3234,4.3598,4.3598,4.3598,4.3598,4.3598,4.3598,4.3598,4.3598,4.3598,4.3704,4.3927,4.4097,4.4155,4.4097,4.4196,4.4155,4.4056,4.4196,4.4253,4.4253,4.444,4.4412,4.4338,4.4468,4.4412,4.4338,4.4468,4.4542,4.4615,4.4615,4.4944,4.5303,4.5303,4.5699,4.6238,4.6776,4.7302,4.7717,4.7717,4.7717,4.7717,4.7717,4.7717,4.7717,4.7717,4.7717,4.7717,4.7717,4.7717,4.7717,4.7717,4.7363,4.728,4.7657,4.7363,4.728,4.7657,4.7717,4.7717,4.7717,4.7717,4.7717,4.7717,4.7717,4.7717,4.7717,4.7717,4.7717,4.7717,4.7717,4.7717,4.7717,4.7717,4.7717,3.8379,3.9529,4.0899,4.1491,4.1965,4.2489,4.325,4.4012,4.4733,4.5162,4.5263,4.5026,4.4248,4.4113,4.4028,4.3735,4.3202,4.2816,4.2778,4.2244,4.1838,4.1799,4.1416,4.1161,4.1161,4.054,4.0124,4.0124,3.9708,3.9432,3.9379,3.9379,3.9568,3.9945,4.063,4.1342,4.2042,4.2787,4.33,4.3598,4.3687,4.3734,4.3734,4.3628,4.3628,4.3734,4.3835,4.3952,4.4085,4.4327,4.4355,4.4315,4.4384,4.431,4.4212,4.4355,4.4367,4.4338,4.4542,4.4514,4.444,4.457,4.4514,4.444,4.457,4.4748,4.4879,4.4879,4.5232,4.5622,4.5622,4.6017,4.6501,4.6822,4.7147,4.7428,4.7657,4.7717,4.7717,4.7717,4.7717,4.7717,4.7717,4.7717,4.7717,4.7717,4.7717,4.7717,4.7717,4.7236,4.7107,4.7636,4.7214,4.7107,4.7657,4.7511,4.7472,4.7696,4.7511,4.749,4.7678,4.7717,4.7717,4.7717,4.7717,4.7717,4.7717,4.7717,4.7717,4.7717,4.7717,4.7717,3.8819,3.9605,4.0553,4.1931,4.2337,4.2574,4.3267,4.391,4.4395,4.4395,4.4395,4.4164,4.3436,4.3291,4.3098,4.2405,4.2236,4.2175,4.2058,4.1937,4.1849,4.173,4.11,4.0699,4.0699,4.0105,3.9703,3.9703,3.9703,3.9668,3.9511,3.9528,3.9458,3.9352,4.0038,4.0735,4.1337,4.2133,4.2879,4.3558,4.3722,4.386,4.3927,4.3734,4.3763,4.3927,4.4196,4.431,4.431,4.4514,4.4615,4.4615,4.4615,4.4468,4.4338,4.4542,4.4468,4.4338,4.4542,4.4615,4.4615,4.4615,4.4615,4.4598,4.4654,4.4971,4.5303,4.5355,4.5724,4.6098,4.6098,4.6454,4.684,4.6886,4.6931,4.7107,4.7575,4.7717,4.7717,4.7717,4.7717,4.7717,4.7717,4.7657,4.7636,4.7636,4.7657,4.7717,4.7717,4.7191,4.7062,4.7636,4.7191,4.7022,4.7593,4.7191,4.7107,4.7593,4.7151,4.7129,4.7678,4.7717,4.7717,4.7717,4.7717,4.7717,4.7717,4.7717,4.7717,4.7717,4.7717,4.7717,3.8954,3.9952,4.117,4.2066,4.2743,4.3189,4.3358,4.3098,4.2777,4.2777,4.2777,4.2726,4.2574,4.254,4.2472,4.232,4.1813,4.1414,4.1388,4.0804,4.0372,4.032,4.0107,3.9938,3.9938,3.9787,3.9703,3.9703,3.9703,3.9677,3.9651,3.9668,3.9625,3.9599,4.0334,4.0785,4.0936,4.2239,4.2974,4.3141,4.317,4.3516,4.4056,4.401,4.401,4.4085,4.4224,4.431,4.431,4.4514,4.4615,4.4615,4.4615,4.457,4.4542,4.457,4.457,4.4542,4.457,4.4615,4.4615,4.4615,4.4615,4.4682,4.5035,4.5214,4.5381,4.58,4.6,4.6098,4.6098,4.6189,4.6382,4.6799,4.7214,4.7554,4.7696,4.7717,4.7717,4.7717,4.7717,4.7717,4.7717,4.7363,4.7062,4.7062,4.7428,4.7717,4.7717,4.6863,4.6637,4.7615,4.6822,4.6478,4.7039,4.6954,4.6954,4.7062,4.6954,4.7129,4.7678,4.7717,4.7717,4.7717,4.7717,4.7717,4.7717,4.7717,4.7717,4.7717,4.7717,4.7717,3.9326,4.007,4.0849,4.1593,4.2591,4.3206,4.2523,4.2049,4.166,4.1331,4.1796,4.2185,4.183,4.1762,4.166,4.1314,4.0916,4.0663,4.0663,4.0273,3.9986,3.9986,3.9935,3.9893,3.9893,3.9893,3.9893,3.9893,3.9893,3.9858,3.9781,3.9798,3.9755,3.9703,4.0072,4.0431,4.0799,4.1552,4.2105,4.2473,4.254,4.2797,4.3239,4.3552,4.3462,4.3155,4.3261,4.3344,4.3377,4.3849,4.4028,4.4062,4.4462,4.4615,4.4615,4.4615,4.4615,4.4626,4.4852,4.4786,4.4626,4.4852,4.4944,4.4998,4.5241,4.5648,4.6074,4.6098,4.6286,4.643,4.6165,4.6286,4.6548,4.6822,4.7107,4.7385,4.7636,4.7717,4.7717,4.7717,4.7717,4.7615,4.7363,4.7084,4.6908,4.6908,4.7363,4.7717,4.7717,4.6753,4.6501,4.7593,4.673,4.631,4.6845,4.666,4.6637,4.6886,4.666,4.6886,4.7675,4.7717,4.7717,4.7717,4.7717,4.7717,4.7717,4.7717,4.7717,4.7717,4.7717,4.7717,3.9368,3.991,4.0316,4.117,4.2219,4.2682,4.1491,4.1102,4.0832,4.0231,4.1077,4.1728,4.1119,4.1018,4.0798,4.0197,4.0096,4.0096,4.0096,4.0096,4.0096,4.0096,4.0096,4.0096,4.0096,4.0096,4.0096,4.0096,4.0096,4.0062,3.9952,3.9935,3.9884,3.9781,3.9781,4.0057,4.0661,4.0812,4.1181,4.1774,4.2011,4.2061,4.1931,4.2574,4.2587,4.2142,4.225,4.2286,4.2337,4.2963,4.3189,4.3301,4.4079,4.4384,4.4429,4.4564,4.4654,4.4786,4.5178,4.5062,4.4786,4.5294,4.5381,4.5329,4.5537,4.6213,4.684,4.6478,4.6637,4.684,4.6454,4.6637,4.6931,4.7017,4.7039,4.7151,4.7615,4.7717,4.7717,4.7717,4.7717,4.7511,4.6863,4.6908,4.6994,4.6776,4.7298,4.7675,4.7575,4.6707,4.6478,4.7468,4.6683,4.6286,4.673,4.6358,4.6286,4.673,4.6358,4.659,4.7657,4.7717,4.7717,4.7717,4.7717,4.7717,4.7717,4.7717,4.7717,4.7717,4.7717,4.7717,3.7973,3.914,4.0443,4.1813,4.183,4.1441,4.1255,4.0696,4.0231,4.013,4.0265,4.0367,4.0282,4.0248,4.0214,4.013,4.0096,4.0096,4.0096,4.0096,4.0096,4.0096,4.0096,4.0096,4.0096,4.0096,4.0096,4.0096,4.0096,4.007,4.007,4.007,4.0062,4.0062,4.0062,4.0096,4.0197,4.0831,4.1202,4.1304,4.1972,4.161,4.0417,4.1127,4.1769,4.226,4.2286,4.2286,4.2303,4.2405,4.2439,4.2523,4.3284,4.3572,4.3656,4.4333,4.4852,4.5214,4.5276,4.5267,4.5294,4.5825,4.5673,4.5485,4.6406,4.6794,4.6976,4.7385,4.7196,4.6976,4.7385,4.7173,4.7017,4.749,4.7575,4.7615,4.7678,4.7717,4.7717,4.7717,4.7717,4.7385,4.6382,4.6976,4.728,4.6358,4.7062,4.7533,4.7062,4.6478,4.6334,4.6931,4.6454,4.6123,4.6213,4.6123,4.6123,4.6213,4.6123,4.659,4.7657,4.7717,4.7717,4.7717,4.7717,4.7717,4.7717,4.7717,4.7717,4.7717,4.7717,4.7717,3.8193,3.9597,4.0781,4.1001,4.1119,4.1085,4.0679,4.0333,4.0096,4.0096,4.0096,4.0096,4.0096,4.0096,4.0096,4.0096,4.0096,4.0096,4.0096,4.0096,4.0096,4.0096,4.0096,4.0096,4.0096,4.0096,4.0096,4.0096,4.0096,4.0096,4.0096,4.0096,4.0096,4.0096,4.0096,4.0096,4.0096,4.0434,4.0578,4.0578,4.0899,4.0739,4.0113,4.0451,4.0773,4.1077,4.1077,4.1077,4.1111,4.1508,4.1677,4.1762,4.2506,4.2777,4.2855,4.3471,4.4121,4.4734,4.498,4.5376,4.5792,4.6024,4.6147,4.6286,4.6753,4.7107,4.7323,4.7258,4.7302,4.7323,4.7258,4.7302,4.7407,4.7636,4.7717,4.7717,4.7717,4.7717,4.7717,4.7717,4.7468,4.7017,4.622,4.673,4.6976,4.6213,4.6753,4.7169,4.6931,4.6189,4.5975,4.6799,4.6165,4.5775,4.6074,4.5825,4.5775,4.6074,4.6098,4.659,4.7657,4.7717,4.7717,4.7717,4.7717,4.7717,4.7717,4.7717,4.7717,4.7717,4.7717,4.7717,3.8311,3.9529,4.0324,4.0146,4.0493,4.0781,4.0231,4.0096,4.0096,4.0096,4.0096,4.0096,4.0096,4.0096,4.0096,4.0096,4.0096,4.0096,4.0096,4.0096,4.0096,4.0096,4.0096,4.0096,4.0096,4.0096,4.0096,4.0096,4.0096,4.0096,4.0096,4.0096,4.0096,4.0096,4.0096,4.0096,4.0096,4.0096,4.0096,4.0096,4.0096,4.0096,4.0096,4.0096,4.0096,4.0096,4.0096,4.0096,4.0146,4.0679,4.0916,4.0984,4.1728,4.2078,4.2261,4.2791,4.3473,4.42,4.4887,4.5422,4.5901,4.6377,4.6683,4.6931,4.7062,4.7385,4.7615,4.7214,4.7385,4.7615,4.7214,4.7407,4.7717,4.7717,4.7717,4.7717,4.7717,4.7717,4.7717,4.7717,4.7258,4.673,4.6189,4.643,4.6548,4.6165,4.643,4.6707,4.6707,4.5875,4.5614,4.6406,4.5792,4.5459,4.585,4.5537,4.5537,4.6067,4.6098,4.659,4.7657,4.7717,4.7717,4.7717,4.7717,4.7717,4.7717,4.7717,4.7717,4.7717,4.7717,4.7717,3.755,3.8024,3.8396,3.9774,4.013,4.0146,4.0113,4.0096,4.0096,4.0096,4.0096,4.0096,4.0096,4.0096,4.0096,4.0096,4.0096,4.0096,4.0096,4.0096,4.0096,4.0096,4.0096,4.0096,4.0096,4.0096,4.0096,4.0096,4.0096,4.0096,4.0096,4.0096,4.0096,4.0096,4.0096,4.0096,4.0096,4.0096,4.0096,4.0096,4.0096,4.0096,4.0096,4.0096,4.0096,4.0096,4.0096,4.0096,4.0096,4.0146,4.0163,4.0231,4.0967,4.1529,4.2012,4.2735,4.335,4.3997,4.5222,4.5391,4.5335,4.7068,4.728,4.6976,4.7511,4.7678,4.7678,4.7675,4.7678,4.7678,4.7675,4.7678,4.7717,4.7717,4.7717,4.7717,4.7717,4.7717,4.7717,4.7717,4.7258,4.673,4.6189,4.6123,4.6123,4.6098,4.6123,4.6123,4.6123,4.5648,4.5329,4.5381,4.5329,4.5303,4.5329,4.5303,4.5537,4.6067,4.6098,4.659,4.7657,4.7717,4.7717,4.7717,4.7717,4.7717,4.7717,4.7717,4.7717,4.7717,4.7717,4.7717,3.7026,3.7889,3.8717,3.9242,3.9757,4.0096,4.0096,4.0096,4.0096,4.0096,4.0096,4.0096,4.0096,4.0096,4.0096,4.0096,4.0096,4.0096,4.0096,4.0096,4.0096,4.0096,4.0096,4.0096,4.0096,4.0096,4.0096,4.0096,4.0096,4.0096,4.0096,4.0096,4.0096,4.0096,4.0096,4.0096,4.0096,4.0096,4.0096,4.0096,4.0096,4.0096,4.0096,4.0096,4.0096,4.0096,4.0096,4.0096,4.0096,4.0096,4.0096,4.0155,4.0717,4.1047,4.1304,4.2174,4.2931,4.3584,4.4021,4.4939,4.6,4.633,4.6866,4.745,4.7636,4.7717,4.7717,4.7717,4.7717,4.7717,4.7717,4.7717,4.7717,4.7717,4.7717,4.7717,4.7717,4.7717,4.7717,4.7717,4.7258,4.673,4.6189,4.6098,4.5975,4.5622,4.5588,4.5588,4.5588,4.5169,4.4971,4.525,4.5035,4.4971,4.5276,4.5035,4.5062,4.5563,4.59,4.6286,4.666,4.6999,4.7191,4.7191,4.7191,4.7363,4.7717,4.7717,4.7717,4.7717,4.7717,4.7717,3.6728,3.7523,3.8386,3.887,3.9385,3.9808,4.0045,4.0096,4.0096,4.0096,4.0096,4.0096,4.0096,4.0096,4.0096,4.0096,4.0096,4.0096,4.0096,4.0096,4.0096,4.0096,4.0096,4.0096,4.0096,4.0096,4.0096,4.0096,4.0096,4.0096,4.0096,4.0096,4.0096,4.0096,4.0096,4.0096,4.0096,4.0096,4.0096,4.0096,4.0096,4.0096,4.0096,4.0096,4.0096,4.0096,4.0096,4.0096,4.0096,4.0096,4.0096,4.0146,4.0628,4.0919,4.1116,4.1909,4.2537,4.3057,4.3432,4.4584,4.5858,4.5961,4.6758,4.7717,4.7717,4.7717,4.7717,4.7717,4.7717,4.7717,4.7717,4.7717,4.7717,4.7717,4.7717,4.7717,4.7717,4.7717,4.7717,4.7717,4.7258,4.673,4.6189,4.595,4.5775,4.5614,4.5267,4.5178,4.5537,4.4998,4.472,4.5035,4.4786,4.472,4.5035,4.4786,4.4896,4.5537,4.5724,4.6,4.6358,4.6707,4.6908,4.6908,4.7084,4.7323,4.7717,4.7717,4.7717,4.7717,4.7717,4.7717,0.0,0.0,0.0,3.8599,3.8988,3.9208,3.9943,4.0096,4.0096,4.0096,4.0096,4.0096,4.0096,4.0096,4.0096,4.0096,4.0096,4.0096,4.0096,4.0096,4.0096,4.0096,4.0096,4.0096,4.0096,4.0096,4.0096,4.0096,4.0096,4.0096,4.0096,4.0096,4.0096,4.0096,4.0096,4.0096,4.0096,4.0096,4.0096,4.0096,4.0096,4.0096,4.0096,4.0096,4.0096,4.0096,4.0096,4.0096,4.0096,4.0096,4.0096,4.0171,4.0652,4.1094,4.1569,4.2053,4.2218,4.2405,4.3633,4.4306,4.4822,4.6052,4.7029,4.7717,4.7717,4.7717,4.7717,4.7717,4.7717,4.7717,4.7717,4.7717,4.7717,4.7717,4.7717,4.7717,4.7717,4.7717,4.7717,4.7717,4.7258,4.673,4.6189,4.5665,4.5485,4.6,4.5222,4.4961,4.5943,4.5196,4.4615,4.4615,4.4615,4.4615,4.4615,4.4615,4.5015,4.6,4.5588,4.5767,4.6799,4.6845,4.6863,4.6886,4.7385,4.7657,4.7717,4.7717,4.7717,4.7717,4.7717,4.7717,3.5853,0.0,0.0,0.0,0.0,0.0,4.0045,4.0096,4.0096,4.0096,4.0096,4.0096,4.0096,4.0096,4.0096,4.0096,4.0096,4.0096,4.0096,4.0096,4.0096,4.0096,4.0096,4.0096,4.0096,4.0096,4.0096,4.0096,4.0096,4.0096,4.0096,4.0096,4.0096,4.0096,4.0096,4.0096,4.0096,4.0096,4.0096,4.0096,4.0096,4.0096,4.0096,4.0096,4.0096,4.0096,4.0096,4.0096,4.0096,4.0096,4.0303,4.0635,4.1116,4.1591,4.2056,4.2537,4.2711,4.2747,4.3098,4.4035,4.5147,4.5522,4.6576,4.7717,4.7717,4.7717,4.7717,4.7717,4.7717,4.7717,4.7717,4.7717,4.7717,4.7717,4.7717,4.7717,4.7717,4.7717,4.7717,4.7717,4.7258,4.673,4.6189,4.5665,4.5355,4.5511,4.4998,4.4814,4.5433,4.4971,4.4615,4.4615,4.4615,4.4615,4.4615,4.4615,4.4852,4.5485,4.5381,4.5433,4.5724,4.5749,4.5943,4.631,4.6454,4.6931,4.7717,4.7717,4.7717,4.7717,4.7717,4.7717,3.6096,3.6755,3.7584,3.821,0.0,0.0,4.0028,4.0096,4.0096,4.0096,4.0096,4.0096,4.0096,4.0096,4.0096,4.0096,4.0096,4.0096,4.0096,4.0096,4.0096,4.0096,4.0096,4.0096,4.0096,4.0096,4.0096,4.0096,4.0096,4.0096,4.0096,4.0096,4.0096,4.0096,4.0096,4.0096,4.0096,4.0096,4.0096,4.0096,4.0096,4.0096,4.0096,4.0096,4.0096,4.0096,4.0096,4.0096,4.0096,4.0096,4.0377,4.0849,4.1321,4.1782,4.2257,4.2731,4.2901,4.2901,4.2901,4.3951,4.5291,4.5291,4.6395,4.7717,4.7717,4.7717,4.7717,4.7717,4.7717,4.7717,4.7717,4.7717,4.7717,4.7717,4.7717,4.7717,4.7717,4.7717,4.7717,4.7717,4.745,4.6976,4.6238,4.5825,4.5563,4.5329,4.4889,4.4759,4.5241,4.4906,4.4615,4.4615,4.4615,4.4615,4.4615,4.4615,4.4814,4.525,4.5125,4.5115,4.5276,4.5303,4.5563,4.6074,4.6334,4.6863,4.7717,4.7717,4.7717,4.7717,4.7717,4.7717,3.6931,3.6981,3.7371,3.8667,3.9056,0.0,3.996,4.0096,4.0096,4.0096,4.0096,4.0096,4.0096,4.0096,4.0096,4.0096,4.018,4.0231,4.0231,4.0146,4.013,4.0214,4.0146,4.0096,4.0096,4.0096,4.0096,4.0096,4.0096,4.0096,4.0096,4.0096,4.0096,4.0096,4.0096,4.0096,4.0096,4.0096,4.0096,4.0096,4.0096,4.0096,4.0096,4.0096,4.0096,4.0096,4.0096,4.0096,4.0096,4.0096,4.0377,4.0849,4.1253,4.1739,4.2239,4.2673,4.2844,4.2901,4.2901,4.3896,4.5182,4.5273,4.6341,4.7591,4.7681,4.7717,4.7717,4.7717,4.7717,4.7717,4.7717,4.7717,4.7717,4.7717,4.7717,4.7717,4.7717,4.7717,4.7717,4.7717,4.7717,4.7363,4.6286,4.6098,4.5925,4.5381,4.4889,4.4759,4.5241,4.4906,4.4615,4.4615,4.4615,4.4615,4.4615,4.4615,4.4814,4.525,4.4852,4.4814,4.5276,4.5267,4.5485,4.6074,4.6683,4.7236,4.7717,4.7717,4.7717,4.7717,4.7717,4.7717,3.7662,3.8108,3.8633,3.892,3.9453,0.0,4.0079,4.0096,4.0096,4.0096,4.0096,4.0096,4.0096,4.0096,4.0096,4.0096,4.0595,4.0984,4.0984,4.046,4.0333,4.0916,4.0468,4.0096,4.0096,4.0096,4.0096,4.0096,4.0096,4.0096,4.0096,4.0096,4.0096,4.0096,4.0096,4.0096,4.0096,4.0096,4.0096,4.0096,4.0096,4.0096,4.0096,4.0096,4.0096,4.0096,4.0096,4.0096,4.0096,4.0096,4.0377,4.0802,4.0902,4.1455,4.2198,4.23,4.2575,4.2901,4.2901,4.3516,4.444,4.5091,4.5943,4.6866,4.7518,4.7717,4.7717,4.7717,4.7717,4.7717,4.7717,4.7717,4.7717,4.7717,4.7717,4.7717,4.7717,4.7717,4.7717,4.7717,4.7717,4.7363,4.6286,4.6098,4.5925,4.5381,4.4889,4.4759,4.5241,4.4906,4.4615,4.4615,4.4615,4.4615,4.4615,4.4615,4.4814,4.525,4.4852,4.4814,4.5276,4.4944,4.5186,4.6074,4.7062,4.7593,4.7717,4.7717,4.7717,4.7717,4.7717,4.7717,3.8398,3.8717,3.9089,3.9469,3.9842,0.0,0.0,4.0096,4.0096,4.0096,3.9808,3.9673,4.0028,3.9808,3.9673,4.0045,4.0417,4.0781,4.1153,4.1187,4.1187,4.1204,4.0865,4.0493,4.0146,4.0096,4.0096,4.0096,4.0096,4.0096,4.0096,4.0096,4.0096,4.0096,4.0096,4.0096,4.0096,4.0096,4.0096,4.0096,4.0096,4.0096,4.0096,4.0096,4.0096,4.0096,4.0096,4.0096,4.0096,4.0096,4.0246,4.0458,4.0707,4.123,4.1888,4.2115,4.2358,4.2577,4.2825,4.3425,4.4168,4.4566,4.5254,4.5979,4.6377,4.6794,4.7192,4.7591,4.7717,4.7717,4.7717,4.7717,4.7717,4.7717,4.7717,4.7717,4.7717,4.7717,4.7717,4.7717,4.7717,4.7363,4.6286,4.6098,4.5843,4.5062,4.4748,4.4665,4.4917,4.4748,4.4615,4.4615,4.4615,4.4615,4.4615,4.4615,4.4692,4.4944,4.4944,4.4944,4.4944,4.4944,4.5311,4.6074,4.7151,4.7717,4.7717,4.7717,4.7717,4.7717,4.7717,4.7717,3.9183,3.9208,3.9368,3.996,4.0096,4.0096,0.0,0.0,0.0,4.0096,3.9639,3.9402,3.9994,3.9622,3.9419,4.0011,4.0231,4.051,4.1119,4.183,4.2016,4.1288,4.1068,4.0747,4.0163,4.0096,4.0096,4.0096,4.0096,4.0096,4.0096,4.0096,4.0096,4.0096,4.0096,4.0096,4.0096,4.0096,4.0096,4.0096,4.0096,4.0096,4.0096,4.0096,4.0096,4.0096,4.0096,4.0096,4.0096,4.0096,4.0096,4.0146,4.0507,4.1019,4.1547,4.1931,4.2177,4.2398,4.2768,4.3317,4.3878,4.4041,4.4639,4.5291,4.5291,4.5743,4.6413,4.7065,4.7355,4.7482,4.7482,4.7591,4.7717,4.7717,4.7717,4.7717,4.7717,4.7717,4.7717,4.7717,4.7717,4.7363,4.6286,4.6098,4.5759,4.4748,4.4615,4.4615,4.4615,4.4615,4.4615,4.4615,4.4615,4.4615,4.4615,4.4615,4.4654,4.4748,4.5008,4.5035,4.4748,4.5205,4.5648,4.6074,4.7151,4.7717,4.7717,4.7717,4.7717,4.7717,4.7717,4.7717,3.9902,3.9977,3.9994,4.0079,4.0096,4.0096,4.0096,0.0,4.0096,4.0096,0.0,4.0011,4.0079,0.0,0.0,4.0096,4.0646,4.1102,4.1187,4.183,4.2016,4.1288,4.0612,4.0197,4.0113,4.0096,4.0096,4.0096,4.0096,4.0096,4.0096,4.0096,4.0096,4.0096,4.0096,4.0096,4.0096,4.0096,4.0096,4.0096,4.0096,4.0096,4.0096,4.0096,4.0096,4.0096,4.0096,4.0096,4.0096,4.0096,4.0096,4.0113,4.0171,4.0713,4.1503,4.1547,4.2098,4.2825,4.2882,4.2973,4.3136,4.386,4.4639,4.5291,4.5291,4.5363,4.5454,4.5544,4.6087,4.6649,4.6649,4.7174,4.7717,4.7717,4.7717,4.7717,4.7717,4.7717,4.7717,4.7717,4.7717,4.7363,4.6286,4.6098,4.5759,4.4748,4.4615,4.4615,4.4615,4.4615,4.4615,4.4615,4.4615,4.4615,4.4615,4.4615,4.4786,4.5188,4.4879,4.4824,4.5214,4.5742,4.6024,4.6098,4.7151,4.7717,4.7717,4.7717,4.7717,4.7717,4.7717,4.7717,3.9919,4.0096,4.0096,4.0096,4.0096,4.0096,4.0096,4.0096,4.0096,4.0096,0.0,0.0,0.0,0.0,0.0,0.0,4.0367,4.0544,4.0544,4.084,4.1077,4.1187,4.0933,4.0561,4.0146,4.0096,4.0096,4.0096,4.0096,4.0096,4.0096,4.0096,4.0096,4.0096,4.0096,4.0096,4.0096,4.0096,4.0096,4.0096,4.0096,4.0096,4.0096,4.0096,4.0096,4.0096,4.0096,4.0096,4.0096,4.0096,4.0096,4.0096,4.0096,4.0507,4.1116,4.1393,4.1931,4.2518,4.2806,4.2901,4.2973,4.33,4.3625,4.3987,4.4458,4.4603,4.4693,4.5164,4.5544,4.5906,4.6377,4.6757,4.712,4.7591,4.7717,4.7717,4.7717,4.7717,4.7717,4.7717,4.7717,4.7468,4.6707,4.631,4.5843,4.5115,4.4759,4.4615,4.4615,4.4615,4.4615,4.4615,4.4615,4.4615,4.4615,4.4615,4.4814,4.525,4.5399,4.5425,4.5303,4.5817,4.6098,4.6098,4.6863,4.7385,4.7717,4.7717,4.7717,4.7717,4.7717,4.7717,3.9885,4.0096,4.0096,4.0096,4.0096,4.0045,3.9842,3.996,4.0045,3.9842,3.9537,0.0,0.0,0.0,3.9486,4.0011,0.0,4.0096,4.0096,4.0096,4.0316,4.0832,4.0899,4.0679,4.0146,4.0096,4.0096,4.0096,4.0096,4.0096,4.0096,4.0096,4.0096,4.0096,4.0096,4.0096,4.0096,4.0096,4.0096,4.0096,4.0096,4.0096,4.0096,4.0096,4.0096,4.0096,4.0096,4.0096,4.0096,4.0096,4.0096,4.0096,4.0096,4.0458,4.1042,4.137,4.1888,4.2438,4.2769,4.2901,4.2901,4.2901,4.2901,4.3009,4.3588,4.3769,4.3878,4.4476,4.4802,4.5164,4.5961,4.6341,4.6703,4.7518,4.7717,4.7717,4.7717,4.7717,4.7717,4.7717,4.7717,4.7593,4.7191,4.6548,4.5925,4.5381,4.4889,4.4615,4.4615,4.4615,4.4615,4.4615,4.4615,4.4615,4.4615,4.4615,4.4748,4.5089,4.5588,4.5716,4.5303,4.5673,4.595,4.6116,4.6637,4.7084,4.749,4.7636,4.7717,4.7717,4.7717,4.7717,4.002,4.0096,4.0096,4.0096,4.0096,3.991,3.9191,3.9605,3.991,3.9174,3.9588,4.0079,4.0096,4.0079,4.0079,4.0096,4.0096,0.0,0.0,4.0096,4.0113,4.013,4.0146,4.013,4.0096,4.0096,4.0096,4.0096,4.0096,4.0096,4.0096,4.0096,4.0096,4.0096,4.0096,4.0096,4.0096,4.0096,4.0096,4.0096,4.0096,4.0096,4.0096,4.0096,4.0096,4.0096,4.0096,4.0096,4.0096,4.0096,4.0096,4.0096,4.0096,4.0666,4.1481,4.1481,4.2077,4.2882,4.2882,4.2901,4.2901,4.2901,4.2901,4.2901,4.2937,4.2955,4.2955,4.2973,4.3534,4.4313,4.5128,4.5924,4.6703,4.7518,4.7717,4.7717,4.7717,4.7717,4.7717,4.7717,4.7717,4.7678,4.7696,4.6799,4.5925,4.5381,4.4889,4.4615,4.4615,4.4615,4.4615,4.4615,4.4615,4.4615,4.4615,4.4615,4.4615,4.4626,4.5045,4.5329,4.5303,4.5303,4.5588,4.6074,4.6637,4.6908,4.6931,4.7446,4.7717,4.7717,4.7717,4.7717,0.0,0.0,3.8751,3.9242,3.9005,3.87,3.8937,3.9191,3.9317,3.9039,3.9605,4.0096,4.0096,4.0096,4.0096,4.0096,4.0096,4.0096,0.0,4.0096,4.0096,4.0096,4.0096,4.0096,4.0096,4.0096,4.0096,4.0096,4.0544,4.0595,4.013,4.0544,4.0595,4.013,4.0096,4.0096,4.0096,4.0096,4.0096,4.0096,4.0096,4.0096,4.0096,4.0096,4.0096,4.0096,4.0096,4.0096,4.0096,4.0096,4.0096,4.0096,4.0096,4.0666,4.1503,4.1503,4.2098,4.2901,4.2901,4.2901,4.2901,4.2901,4.2901,4.2901,4.2901,4.2901,4.2901,4.2901,4.31,4.348,4.4295,4.5091,4.5906,4.6721,4.7319,4.7717,4.7717,4.7717,4.7717,4.7717,4.7717,4.7738,4.7819,4.7151,4.6454,4.59,4.5691,4.5337,4.4682,4.4879,4.4944,4.4626,4.4615,4.4615,4.4615,4.4879,4.5115,4.5178,4.5918,4.6238,4.5975,4.5893,4.6074,4.6637,4.6454,4.673,4.7428,4.7615,4.7717,4.7717,4.7717,4.7717,3.7722,3.7905,0.0,3.8481,3.8261,0.0,3.8497,0.0,3.8988,3.8988,3.9605,4.0096,4.0096,4.0096,4.0096,4.0096,4.0096,4.0096,0.0,4.0096,4.0096,4.0096,4.0096,4.0096,4.0096,4.0096,4.0096,4.0096,4.0781,4.0984,4.051,4.1187,4.1255,4.0493,4.0476,4.0383,4.0096,4.0096,4.0096,4.0096,4.0096,4.0096,4.0096,4.0096,4.0096,4.0096,4.0096,4.0096,4.0096,4.0096,4.0096,4.0096,4.0096,4.0666,4.1503,4.1503,4.2098,4.2901,4.2901,4.2901,4.2901,4.2901,4.2901,4.2901,4.2901,4.2901,4.2901,4.2901,4.2901,4.31,4.3878,4.4476,4.5146,4.625,4.6902,4.7355,4.7645,4.7717,4.7699,4.7759,4.7759,4.7801,4.7925,4.7575,4.7017,4.6286,4.6123,4.5734,4.472,4.5008,4.5125,4.4654,4.4615,4.4615,4.4615,4.4879,4.5178,4.5485,4.6074,4.6478,4.6607,4.6341,4.643,4.6954,4.6572,4.673,4.7407,4.7615,4.7717,4.7717,4.7717,4.7717]}]]